[[{"header":{"parameterUnit":"m.s-1","parameterCategory":1,"la1":31.0,"la2":29.5877,"lo1":-88.7671,"lo2":-86.6584,"dy":0.0162,"dx":0.0185,"nx":115,"ny":88,"refTime":"2024-11-29T12:00:00:Z","depth":0,"parameterNumber":2,"parameterNumberName":"U-component_of_WINDS"},"data":[0.0,0.0,0.0,0.0,0.0,0.0,0.0,0.0,0.0,0.0,0.0,0.0,0.0,0.0,0.0,0.0,0.0,0.0,0.0,0.0,0.0,0.0,0.0,0.0,0.0,0.0,0.0,0.0,0.0,0.0,0.0,0.0,0.0,0.0,0.0,0.0,0.0,0.0,0.0,0.0,0.0,0.0,0.0,0.0,0.0,0.0,0.0,0.0,0.0,0.0,0.0,0.0,0.0,0.0,0.0,0.0,0.0,0.0,0.0,0.0,0.0,0.0,0.0,0.0,0.0,0.0,0.0,0.0,0.0,0.0,0.0,0.0,0.0,0.0,0.0,0.0,0.0,0.0,0.0,0.0,0.0,0.0,0.0,0.0,0.0,0.0,0.0,0.0,0.0,0.0,0.0,0.0,0.0,0.0,0.0,0.0,0.0,0.0,0.0,0.0,0.0,0.0,0.0,0.0,0.0,0.0,0.0,0.0,0.0,0.0,0.0,0.0,0.0,0.0,0.0,0.0,0.0,0.0,0.0,0.0,0.0,0.0,0.0,0.0,0.0,0.0,0.0,0.0,0.0,0.0,0.0,0.0,0.0,0.0,0.0,0.0,0.0,0.0,0.0,0.0,0.0,0.0,0.0,0.0,0.0,0.0,0.0,0.0,0.0,0.0,0.0,0.0,0.0,0.0,0.0,0.0,0.0,0.0,0.0,0.0,0.0,0.0,0.0,0.0,0.0,0.0,0.0,0.0,0.0,0.0,0.0,0.0,0.0,0.0,0.0,0.0,0.0,0.0,0.0,0.0,0.0,0.0,0.0,0.0,0.0,0.0,0.0,0.0,0.0,0.0,0.0,0.0,0.0,0.0,0.0,0.0,0.0,0.0,0.0,0.0,0.0,0.0,0.0,0.0,0.0,0.0,0.0,0.0,0.0,0.0,0.0,0.0,0.0,0.0,0.0,0.0,0.0,0.0,0.0,0.0,0.0,0.0,0.0,0.0,0.0,0.0,0.0,0.0,0.0,0.0,0.0,0.0,0.0,0.0,0.0,0.0,0.0,0.0,0.0,0.0,0.0,0.0,0.0,0.0,0.0,0.0,0.0,0.0,0.0,0.0,0.0,0.0,0.0,0.0,0.0,0.0,0.0,0.0,0.0,0.0,0.0,0.0,0.0,0.0,0.0,0.0,0.0,0.0,0.0,0.0,0.0,0.0,0.0,0.0,0.0,0.0,0.0,0.0,0.0,0.0,0.0,0.0,0.0,0.0,0.0,0.0,0.0,0.0,0.0,0.0,0.0,0.0,0.0,0.0,0.0,0.0,0.0,0.0,0.0,0.0,0.0,0.0,0.0,0.0,0.0,0.0,0.0,0.0,0.0,0.0,0.0,0.0,0.0,0.0,0.0,0.0,0.0,0.0,0.0,0.0,0.0,0.0,0.0,0.0,0.0,0.0,0.0,0.0,0.0,0.0,0.0,0.0,0.0,0.0,0.0,0.0,0.0,0.0,0.0,0.0,0.0,0.0,0.0,0.0,0.0,0.0,0.0,0.0,0.0,0.0,0.0,0.0,0.0,0.0,0.0,0.0,0.0,0.0,0.0,0.0,0.0,0.0,0.0,0.0,0.0,0.0,0.0,0.0,0.0,0.0,0.0,0.0,0.0,0.0,0.0,0.0,0.0,0.0,0.0,0.0,0.0,0.0,0.0,0.0,0.0,0.0,0.0,0.0,0.0,0.0,0.0,0.0,0.0,0.0,0.0,0.0,0.0,0.0,0.0,0.0,0.0,0.0,0.0,0.0,0.0,0.0,0.0,0.0,0.0,0.0,0.0,0.0,0.0,0.0,0.0,0.0,0.0,0.0,0.0,0.0,0.0,0.0,0.0,0.0,0.0,0.0,0.0,0.0,0.0,0.0,0.0,0.0,0.0,0.0,0.0,0.0,0.0,0.0,0.0,0.0,0.0,0.0,0.0,0.0,0.0,0.0,0.0,0.0,0.0,0.0,0.0,0.0,0.0,0.0,0.0,0.0,0.0,0.0,0.0,0.0,0.0,0.0,0.0,0.0,0.0,0.0,0.0,0.0,0.0,0.0,0.0,0.0,0.0,0.0,0.0,0.0,0.0,0.0,0.0,0.0,0.0,0.0,0.0,0.0,0.0,0.0,0.0,0.0,0.0,0.0,0.0,0.0,0.0,0.0,0.0,0.0,0.0,0.0,0.0,0.0,0.0,0.0,0.0,0.0,0.0,0.0,0.0,0.0,0.0,0.0,0.0,0.0,0.0,0.0,0.0,0.0,0.0,0.0,0.0,0.0,0.0,0.0,0.0,0.0,0.0,0.0,0.0,0.0,0.0,0.0,0.0,0.0,0.0,0.0,0.0,0.0,0.0,0.0,0.0,0.0,0.0,0.0,0.0,0.0,0.0,0.0,0.0,0.0,0.0,0.0,0.0,0.0,0.0,0.0,0.0,0.0,0.0,0.0,0.0,0.0,0.0,0.0,0.0,0.0,0.0,0.0,0.0,0.0,0.0,0.0,0.0,0.0,0.0,0.0,0.0,0.0,0.0,0.0,0.0,0.0,0.0,0.0,0.0,0.0,0.0,0.0,0.0,0.0,0.0,0.0,0.0,0.0,0.0,0.0,0.0,0.0,0.0,0.0,0.0,0.0,0.0,0.0,0.0,0.0,0.0,0.0,0.0,0.0,0.0,0.0,0.0,0.0,0.0,0.0,0.0,0.0,0.0,0.0,0.0,0.0,0.0,0.0,0.0,0.0,0.0,0.0,0.0,0.0,0.0,0.0,0.0,0.0,0.0,0.0,0.0,0.0,0.0,0.0,0.0,0.0,0.0,0.0,0.0,0.0,0.0,0.0,0.0,0.0,0.0,0.0,0.0,0.0,0.0,0.0,0.0,0.0,0.0,0.0,0.0,0.0,0.0,0.0,0.0,0.0,0.0,0.0,0.0,0.0,0.0,0.0,0.0,0.0,0.0,0.0,0.0,0.0,0.0,0.0,0.0,0.0,0.0,0.0,0.0,0.0,0.0,0.0,0.0,0.0,0.0,0.0,0.0,0.0,0.0,0.0,0.0,0.0,0.0,0.0,0.0,0.0,0.0,0.0,0.0,0.0,0.0,0.0,0.0,0.0,0.0,0.0,0.0,0.0,0.0,0.0,0.0,0.0,0.0,0.0,0.0,0.0,0.0,0.0,0.0,0.0,0.0,0.0,0.0,0.0,0.0,0.0,0.0,0.0,0.0,0.0,0.0,0.0,0.0,0.0,0.0,0.0,0.0,0.0,0.0,0.0,0.0,0.0,0.0,0.0,0.0,0.0,0.0,0.0,0.0,0.0,0.0,0.0,0.0,0.0,0.0,0.0,0.0,0.0,0.0,0.0,0.0,0.0,0.0,0.0,0.0,0.0,0.0,0.0,0.0,0.0,0.0,0.0,0.0,0.0,0.0,0.0,0.0,0.0,0.0,0.0,0.0,0.0,0.0,0.0,0.0,0.0,0.0,0.0,0.0,0.0,0.0,0.0,0.0,0.0,0.0,0.0,0.0,0.0,0.0,0.0,0.0,0.0,0.0,0.0,0.0,0.0,0.0,0.0,0.0,0.0,0.0,0.0,0.0,0.0,0.0,0.0,0.0,0.0,0.0,0.0,0.0,0.0,0.0,0.0,0.0,0.0,0.0,0.0,0.0,0.0,0.0,0.0,0.0,0.0,0.0,0.0,0.0,0.0,0.0,0.0,0.0,0.0,0.0,0.0,0.0,0.0,0.0,0.0,0.0,0.0,0.0,0.0,0.0,0.0,0.0,0.0,0.0,0.0,0.0,0.0,0.0,0.0,0.0,0.0,0.0,0.0,0.0,0.0,0.0,0.0,0.0,0.0,0.0,0.0,0.0,0.0,0.0,0.0,0.0,0.0,0.0,0.0,0.0,0.0,0.0,0.0,0.0,0.0,0.0,0.0,0.0,0.0,0.0,0.0,0.0,0.0,0.0,0.0,0.0,0.0,0.0,0.0,0.0,0.0,0.0,0.0,0.0,0.0,0.0,0.0,0.0,0.0,0.0,0.0,0.0,0.0,0.0,0.0,0.0,0.0,0.0,0.0,0.0,0.0,0.0,0.0,0.0,0.0,0.0,0.0,0.0,0.0,0.0,0.0,0.0,0.0,0.0,0.0,0.0,0.0,0.0,0.0,0.0,0.0,0.0,0.0,0.0,0.0,0.0,0.0,0.0,0.0,0.0,0.0,0.0,0.0,0.0,0.0,0.0,0.0,0.0,0.0,0.7151,0.0,0.0,0.0,0.0,0.0,0.0,0.0,0.0,0.0,0.0,0.0,0.0,0.0,0.0,0.0,0.0,0.0,0.0,0.0,0.0,0.0,0.0,0.0,0.0,0.0,0.0,0.0,0.0,0.0,0.0,0.0,0.0,0.0,0.0,0.0,0.0,0.0,0.0,0.0,0.0,0.0,0.0,0.0,0.0,0.0,0.0,0.0,0.0,0.0,0.0,0.0,0.0,0.0,0.0,0.0,0.0,0.0,0.0,0.0,0.0,0.0,0.0,0.0,0.0,0.0,0.0,0.0,0.0,0.0,0.0,0.0,0.0,0.0,0.0,0.0,0.0,0.0,0.0,0.0,0.0,0.0,0.0,0.0,0.0,0.0,0.0,0.0,0.0,0.0,0.0,0.0,0.0,0.0,0.0,0.0,0.0,0.0,0.0,0.0,0.0,0.0,0.0,0.0,0.0,0.0,0.0,0.0,0.0,0.0,0.0,0.7495,0.7514,0.7609,0.7537,0.7282,0.0,0.0,0.0,0.0,0.0,0.0,0.0,0.0,0.0,0.0,0.0,0.0,0.0,0.0,0.0,0.0,0.0,0.0,0.0,0.0,0.0,0.0,0.0,0.0,0.0,0.0,0.0,0.0,0.0,0.0,0.0,0.0,0.0,0.0,0.0,0.0,0.0,0.0,0.0,0.0,0.0,0.0,0.0,0.0,0.0,0.0,0.0,0.0,0.0,0.0,0.0,0.0,0.0,0.0,0.0,0.0,0.0,0.0,0.0,0.0,0.0,0.0,0.0,0.0,0.0,0.0,0.0,0.0,0.0,0.0,0.0,0.0,0.0,0.0,0.0,0.0,0.0,0.0,0.0,0.0,0.0,0.0,0.0,0.0,0.0,0.0,0.0,0.0,0.0,0.0,0.0,0.0,0.0,0.0,0.0,0.0,0.0,0.0,0.0,0.0,0.0,0.0,0.0,0.0,0.0,0.0,0.0,0.0,0.0,0.0,0.0,0.0,0.8164,0.805,0.7752,0.0,0.0,0.0,0.0,0.0,0.0,0.0,0.0,0.0,0.0,0.0,0.0,0.0,0.0,0.0,0.0,0.0,0.0,0.0,0.0,0.0,0.0,0.0,0.0,0.0,0.0,0.0,0.0,0.0,0.0,0.0,0.0,0.0,0.0,0.0,0.0,0.0,0.0,0.0,0.0,0.0,0.0,0.0,0.0,0.0,0.0,0.0,0.0,0.0,0.0,0.0,0.0,0.0,0.0,0.0,0.0,0.0,0.0,0.0,0.0,0.0,0.0,0.0,0.0,0.0,0.0,0.0,0.0,0.0,0.0,0.0,0.0,0.0,0.0,0.0,0.0,0.0,0.0,0.0,0.0,0.0,0.0,0.0,0.0,0.0,0.0,0.0,0.0,0.0,0.0,0.0,0.0,0.0,0.0,0.0,0.0,0.0,0.0,0.0,0.0,0.0,0.0,0.0,0.0,0.0,0.0,0.0,0.0,0.0,0.0,0.8438,0.9638,0.9279,0.0,0.8773,0.0,0.0,0.0,0.0,0.0,0.0,0.0,0.0,0.0,0.0,0.0,0.0,0.0,0.0,0.0,0.0,0.0,0.0,0.0,0.0,0.0,0.0,0.0,0.0,0.0,0.0,0.0,0.0,0.0,0.0,0.0,0.0,0.0,0.0,0.0,0.0,0.0,0.0,0.0,0.0,0.0,0.0,0.0,0.0,0.0,0.0,0.0,0.0,0.0,0.0,0.0,0.0,0.0,0.0,0.0,0.0,0.0,0.0,0.0,0.0,0.0,0.0,0.0,0.0,0.0,0.0,0.0,0.0,0.0,0.0,0.0,0.0,0.0,0.0,0.0,0.0,0.0,0.0,0.0,0.0,0.0,0.0,0.0,0.0,0.0,0.0,0.0,0.0,0.0,0.0,0.0,0.0,0.0,0.0,0.0,0.0,0.0,0.0,0.0,0.0,0.0,0.0,0.0,0.0,0.0,0.0,0.0,0.0,0.0,0.0,0.0,0.947,0.9171,0.9126,0.0,0.0,0.0,0.0,0.0,0.0,0.0,0.0,0.0,0.0,0.0,0.0,0.0,0.0,0.0,0.0,0.0,0.0,0.0,0.0,0.0,0.0,0.0,0.0,0.0,0.0,0.0,0.0,0.0,0.0,0.0,0.0,0.0,0.0,0.0,0.0,0.0,0.0,0.0,0.0,0.0,0.0,0.0,0.0,0.0,0.0,0.0,0.0,0.0,0.0,0.0,0.0,0.0,0.0,0.0,0.0,0.0,0.0,0.0,0.0,0.0,0.0,0.0,0.0,0.0,0.0,0.0,0.0,0.0,0.0,0.0,0.0,0.0,0.0,0.0,0.0,0.0,0.0,0.0,0.0,0.0,0.0,0.0,0.0,0.0,0.0,0.0,0.0,0.0,0.0,0.0,0.0,0.0,0.0,0.0,0.0,0.0,0.0,0.0,0.0,0.0,0.0,0.0,0.0,0.0,0.0,0.0,0.0,0.0,0.0,0.931,0.0,0.9798,0.9626,0.9529,0.948,0.0,0.0,0.0,0.0,0.0,0.0,0.0,0.0,0.0,0.0,0.0,0.0,0.0,0.0,0.0,0.0,0.0,0.0,0.0,0.0,0.0,0.0,0.0,0.0,0.0,0.0,0.0,0.0,0.0,0.0,0.0,0.0,0.0,0.0,0.0,0.0,0.0,0.0,0.0,0.0,0.0,0.0,0.0,0.0,0.0,0.0,0.0,0.0,0.0,0.0,0.0,0.0,0.0,0.0,0.0,0.0,0.0,0.0,0.0,0.0,0.0,0.0,0.0,0.0,0.0,0.0,0.0,0.0,0.0,0.0,0.0,0.0,0.0,0.0,0.0,0.0,0.0,0.0,0.0,0.0,0.0,0.0,0.0,0.0,0.0,0.0,0.0,0.0,0.0,0.0,0.0,0.0,0.0,0.0,0.0,0.0,0.0,0.0,0.0,0.0,0.0,0.0,0.0,0.0,0.0,0.0,0.0,0.0,0.0,1.0603,1.0451,1.1276,1.1148,1.042,0.0,0.0,0.0,0.0,0.0,0.0,0.0,0.0,0.0,0.0,0.0,0.0,0.0,0.0,0.0,0.0,0.0,0.0,0.0,0.0,0.0,0.0,0.0,0.0,0.0,0.0,0.0,0.0,0.0,0.0,0.0,0.0,0.0,0.0,0.0,0.0,0.0,0.0,0.0,0.0,0.0,0.0,0.0,0.0,0.0,0.0,0.0,0.0,0.0,0.0,0.0,0.0,0.0,0.0,0.0,0.0,0.0,0.0,0.0,0.0,0.0,0.0,0.0,0.0,0.0,0.0,0.0,0.0,0.0,0.0,0.0,0.0,0.0,0.0,0.0,0.0,0.0,0.0,0.0,0.0,0.0,0.0,0.0,0.0,0.0,0.0,0.0,0.0,0.0,0.0,0.0,0.0,0.0,0.0,0.0,0.0,0.0,0.0,0.0,0.0,0.0,0.0,0.0,0.0,0.0,0.0,0.0,0.0,0.0,0.9406,0.9585,1.0646,1.2585,1.0799,1.0022,0.0,0.0,0.0,0.0,0.0,0.0,0.0,0.0,0.0,0.0,0.0,0.0,0.0,0.0,0.0,0.0,0.0,0.0,0.0,0.0,0.0,0.0,0.0,0.0,0.0,0.0,0.0,0.0,0.0,0.0,0.0,0.0,0.0,0.0,0.0,0.0,0.0,0.0,0.0,0.0,0.0,0.0,0.0,0.0,0.0,0.0,0.0,0.0,0.0,0.0,0.0,0.0,0.0,0.0,0.0,0.0,0.0,0.0,0.0,0.0,0.0,0.0,0.0,0.0,0.0,0.0,0.0,0.0,0.0,0.0,0.0,0.0,0.0,0.0,0.0,0.0,0.0,0.0,0.0,0.0,0.0,0.0,0.0,0.0,0.0,0.0,0.0,0.0,0.0,0.0,0.0,0.0,0.0,0.0,0.0,0.0,0.0,0.0,0.0,0.0,0.0,0.0,0.0,0.0,0.0,0.0,0.0,0.0,0.0,0.9312,0.0,1.1619,0.0,1.0866,0.9906,0.0,0.0,0.0,0.0,0.0,0.0,0.0,0.0,0.0,0.0,0.0,0.0,0.0,0.0,0.0,0.0,0.0,0.0,0.0,0.0,0.0,0.0,0.0,0.0,0.0,0.0,0.0,0.0,0.0,0.0,0.0,0.0,0.0,0.0,0.0,0.0,0.0,0.0,0.0,0.0,0.0,0.0,0.0,0.0,0.0,0.0,0.0,0.0,0.0,0.0,0.0,0.0,0.0,0.0,0.0,0.0,0.0,0.0,0.0,0.0,0.0,0.0,0.0,0.0,0.0,0.0,0.0,0.0,0.0,0.0,0.0,0.0,0.0,0.0,0.0,0.0,0.0,0.0,0.0,0.0,0.0,0.0,0.0,0.0,0.0,0.0,0.0,0.0,0.0,0.0,0.0,0.0,0.0,0.0,0.0,0.0,0.0,0.0,0.0,0.0,0.0,0.0,0.0,0.0,0.0,0.0,0.0,0.0,0.9209,1.173,1.3226,1.3258,1.1976,1.1467,1.0099,0.0,0.0,0.0,0.0,0.0,0.0,0.0,0.0,0.0,0.0,0.0,0.0,0.0,0.0,0.0,0.0,0.0,0.0,0.0,0.0,0.0,0.0,0.0,0.0,0.0,0.0,0.0,0.0,0.0,0.0,0.0,0.0,0.0,0.0,0.0,0.0,0.0,0.0,0.0,0.0,0.0,0.0,0.0,0.0,0.0,0.0,0.0,0.0,0.0,0.0,0.0,0.0,0.0,0.0,0.0,0.0,0.0,0.0,0.0,0.0,0.0,0.0,0.0,0.0,0.0,0.0,0.0,0.0,0.0,0.0,0.0,0.0,0.0,0.0,0.0,0.0,0.0,0.0,0.0,0.0,0.0,0.0,0.0,0.0,0.0,0.0,0.0,0.0,0.0,0.0,0.0,0.0,0.0,0.0,0.0,0.0,0.0,0.0,0.0,0.0,0.0,0.0,0.0,0.0,0.0,0.0,0.0,0.0,0.0,1.0511,1.125,1.2093,1.2878,1.0427,0.9369,0.0,0.0,0.0,0.0,0.0,0.0,0.0,0.0,0.0,0.0,0.0,0.0,0.0,0.0,0.0,0.0,0.0,0.0,0.0,0.0,0.0,0.0,0.0,0.0,0.0,0.0,0.0,0.0,0.0,0.0,0.0,0.0,0.0,0.0,0.0,0.0,0.0,0.0,0.0,0.0,0.0,0.0,0.0,0.0,0.0,0.0,0.0,0.0,0.0,0.0,0.0,0.0,0.0,0.0,0.0,0.0,0.0,0.0,0.0,0.0,0.0,0.0,0.0,0.0,0.0,0.0,0.0,0.0,0.0,0.0,0.0,0.0,0.0,0.0,0.0,0.0,0.0,0.0,0.0,0.0,0.0,0.0,0.0,0.0,0.0,0.0,0.0,0.0,0.0,0.0,0.0,0.0,0.0,0.0,0.0,0.0,0.0,0.0,0.0,0.0,0.0,0.0,0.0,0.0,0.0,0.0,0.0,0.0,0.0,1.1509,1.2117,1.2801,1.36,1.0859,0.959,1.0056,0.0,0.0,0.0,0.0,0.0,0.0,0.0,0.0,0.0,0.0,0.0,0.0,0.0,0.0,0.0,0.0,0.0,0.0,0.0,0.0,0.0,0.0,0.0,0.0,0.0,0.0,0.0,0.0,0.0,0.0,0.0,0.0,0.0,0.0,0.0,0.0,0.0,0.0,0.0,0.0,0.0,0.0,0.0,0.0,0.0,0.0,0.0,0.0,0.0,0.0,0.0,0.0,0.0,0.0,0.0,0.0,0.0,0.0,0.0,0.0,0.0,0.0,0.0,0.0,0.0,0.0,0.0,0.0,0.0,0.0,0.0,0.0,0.0,0.0,0.0,0.0,0.0,0.0,0.0,0.0,0.0,0.0,0.0,0.0,0.0,0.0,0.0,0.0,0.0,0.0,0.0,0.0,0.0,0.0,0.0,0.0,0.0,0.0,0.0,0.0,0.0,0.0,0.0,0.0,0.0,0.0,0.0,0.0,1.4177,1.5198,1.5131,1.3957,1.2435,1.0666,0.0,0.0,0.0,0.0,0.0,0.0,0.0,0.0,0.0,0.0,0.0,0.0,0.0,0.0,0.0,0.0,0.0,0.0,0.0,0.0,0.0,0.0,0.0,0.0,0.0,0.0,0.0,0.0,0.0,0.0,0.0,0.0,0.0,0.0,0.0,0.0,0.0,0.0,0.0,0.0,0.0,0.0,0.0,0.0,0.0,0.0,0.0,0.0,0.0,0.0,0.0,0.0,0.0,0.0,0.0,0.0,0.0,0.0,0.0,0.0,0.0,0.0,0.0,0.0,0.0,0.0,0.0,0.0,0.0,0.0,0.0,0.0,0.0,0.0,0.0,0.0,0.0,0.0,0.0,0.0,0.0,0.0,0.0,0.0,0.0,0.0,0.0,0.0,0.0,0.0,0.0,0.0,0.0,0.0,0.0,0.0,0.0,0.0,0.0,0.0,0.0,0.0,0.0,0.0,0.0,0.0,0.0,0.0,0.0,1.5293,1.601,1.5986,1.5174,1.2883,1.1144,0.0,0.0,0.0,0.0,0.0,0.0,0.0,0.0,0.0,0.0,0.0,0.0,0.0,0.0,0.0,0.0,0.0,0.0,0.0,0.0,0.0,0.0,0.0,0.0,0.0,0.0,0.0,0.0,0.0,0.0,0.0,0.0,0.0,0.0,0.0,0.0,0.0,0.0,0.0,0.0,0.0,0.0,0.0,0.0,0.0,0.0,0.0,0.0,0.0,0.0,0.0,0.0,0.0,0.0,0.0,0.0,0.0,0.0,0.0,0.0,0.0,0.0,0.0,0.0,0.0,0.0,0.0,0.0,0.0,0.0,0.0,0.0,0.0,0.0,0.0,0.0,0.0,0.0,0.0,0.0,0.0,0.0,0.0,0.0,0.0,0.0,0.0,0.0,0.0,0.0,0.0,0.0,0.0,0.0,0.0,0.0,0.0,0.0,0.0,0.0,0.0,0.0,0.0,0.0,0.0,0.0,0.0,0.0,1.4367,1.6265,1.6858,1.6863,1.6259,1.4101,1.2231,0.0,0.0,0.0,0.0,0.0,0.0,0.0,0.0,0.0,0.0,0.0,0.0,0.0,0.0,0.0,0.0,0.0,0.0,0.0,0.0,0.0,0.0,0.0,0.0,0.0,0.0,0.0,0.0,0.0,0.0,0.0,0.0,0.0,0.0,0.0,0.0,0.0,0.0,0.0,0.0,0.0,0.0,0.0,0.0,0.0,0.0,0.0,0.0,0.0,0.0,0.0,0.0,0.0,0.0,0.0,0.0,0.0,0.0,0.0,0.0,0.0,0.0,0.0,0.0,0.0,0.0,0.0,0.0,0.0,0.0,0.0,0.0,0.0,0.0,0.0,0.0,0.0,0.0,0.0,0.0,0.0,0.0,0.0,0.0,0.0,0.0,0.0,0.0,0.0,0.0,0.0,0.0,0.0,0.0,0.0,0.0,0.0,0.0,0.0,0.0,0.0,0.0,0.0,0.0,0.0,0.0,0.0,0.0,1.5484,1.6959,1.7593,1.7644,1.7087,1.5632,1.3608,0.0,0.0,0.0,0.0,0.0,0.0,0.0,0.0,0.0,0.0,0.0,0.0,0.0,0.0,0.0,0.0,0.0,0.0,0.0,0.0,0.0,0.0,0.0,0.0,0.0,0.0,0.0,0.0,0.0,0.0,0.0,0.0,0.0,0.0,0.0,0.0,0.0,0.0,0.0,0.0,0.0,0.0,0.0,0.0,0.0,0.0,0.0,0.0,0.0,0.0,0.0,0.0,0.0,0.0,0.0,0.0,0.0,0.0,0.0,0.0,0.0,0.0,0.0,0.0,0.0,0.0,0.0,0.0,0.0,0.0,0.0,0.0,0.0,0.0,0.0,0.0,0.0,0.0,0.0,0.0,0.0,0.0,0.0,0.0,0.0,0.0,0.0,0.0,0.0,0.0,0.0,0.0,0.0,0.0,0.0,0.0,0.0,0.0,0.0,0.0,0.0,0.0,0.0,0.0,0.0,0.0,0.0,0.0,1.5714,1.6969,1.758,1.7848,1.7712,1.6032,1.4154,0.0,0.0,0.0,0.0,0.0,0.0,0.0,0.0,0.0,0.0,0.0,0.0,0.0,0.0,0.0,0.0,0.0,0.0,0.0,0.0,0.0,0.0,0.0,0.0,0.0,0.0,0.0,0.0,0.0,0.0,0.0,0.0,0.0,0.0,0.0,0.0,0.0,0.0,0.0,0.0,0.0,0.0,0.0,0.0,0.0,0.0,0.0,0.0,1.0762,0.0,0.0,0.0,0.0,0.0,0.0,0.0,0.0,0.0,0.0,0.0,0.0,0.0,0.0,0.0,0.0,0.0,0.0,0.0,0.0,0.0,0.0,0.0,0.0,0.0,0.0,0.0,0.0,0.0,0.0,0.0,0.0,0.0,0.0,0.0,0.0,0.0,0.0,0.0,0.0,0.0,0.0,0.0,0.0,0.0,0.0,0.0,0.0,0.0,0.0,0.0,0.0,0.0,0.0,0.0,0.0,0.0,0.0,0.0,1.62,1.739,1.7729,1.7912,1.7861,1.6684,1.5051,0.0,0.0,0.0,0.0,0.0,0.0,0.0,0.0,0.0,0.0,0.0,0.0,0.0,0.0,0.0,0.0,0.0,0.0,0.0,0.0,0.0,0.0,0.0,0.0,0.0,0.0,0.0,0.0,0.0,0.0,0.0,0.0,0.0,0.0,0.0,0.0,0.0,0.0,0.0,0.0,0.0,0.0,0.0,0.0,0.0,0.0,0.0,0.0,0.0,0.0,0.0,0.0,0.0,0.0,0.0,0.0,0.0,0.0,0.0,0.0,0.0,0.0,0.0,0.0,0.0,0.0,0.0,0.0,0.0,0.0,0.0,0.0,0.0,0.0,0.0,0.0,0.0,0.0,0.0,0.0,0.0,0.0,0.0,0.0,0.0,0.0,0.0,0.0,0.0,0.0,0.0,0.0,0.0,0.0,0.0,0.0,0.0,0.0,0.0,0.0,0.0,0.0,0.0,0.0,0.0,0.0,0.0,1.5236,1.6584,1.7834,1.7912,1.7892,1.7872,1.7374,1.5969,1.3589,0.0,0.0,0.0,0.0,0.0,0.0,0.0,0.0,0.0,0.0,0.0,0.0,0.0,0.0,0.0,0.0,0.0,0.0,0.0,0.0,0.0,0.0,0.0,0.0,0.0,0.0,0.0,0.0,0.0,0.0,0.0,0.0,0.0,0.0,0.0,0.0,0.0,0.0,0.9726,1.1215,0.0,0.0,0.0,0.0,0.0,0.0,0.0,0.0,1.2234,0.0,0.0,0.0,0.0,0.0,0.0,0.0,0.0,0.0,0.0,0.0,0.0,0.0,0.0,0.0,0.0,0.0,0.0,0.0,0.0,0.0,0.0,0.0,0.0,0.0,0.0,0.0,0.0,0.0,0.0,0.0,0.0,0.0,0.0,0.0,0.0,0.0,0.0,0.0,0.0,0.0,0.0,0.0,0.0,0.0,0.0,0.0,0.0,0.0,0.0,0.0,0.0,0.0,0.0,0.0,0.0,1.5607,1.5462,1.6177,1.7848,1.7912,1.7852,1.773,1.7626,1.6428,1.4022,0.0,0.0,0.0,0.0,0.0,0.0,0.0,0.0,0.0,0.0,0.0,0.0,0.0,0.0,0.0,0.0,0.0,0.0,0.0,0.0,0.0,0.0,0.0,0.0,0.0,0.0,0.0,0.0,0.0,0.0,0.0,0.0,0.0,0.0,0.0,0.0,0.0,0.0,0.0,1.477,1.5946,0.0,0.0,0.0,0.0,0.0,0.0,0.0,0.0,1.22,0.0,0.0,0.0,0.0,0.0,0.0,0.0,0.0,0.0,0.0,0.0,0.0,0.0,0.0,0.0,0.0,0.0,0.0,0.0,0.0,0.0,0.0,0.0,0.0,0.0,0.0,0.0,0.0,0.0,0.0,0.0,0.0,0.0,0.0,0.0,0.0,0.0,0.0,0.0,0.0,0.0,0.0,0.0,0.0,0.0,0.0,0.0,0.0,0.0,0.0,0.0,0.0,0.0,0.0,0.0,1.5051,1.6041,1.6904,1.7764,1.7727,1.7652,1.7588,1.7026,1.5848,0.0,0.0,0.0,0.0,0.0,0.0,0.0,0.0,0.0,0.0,0.0,0.0,0.0,0.0,0.0,0.0,0.0,0.0,0.0,0.0,0.0,0.0,0.0,0.0,0.0,0.0,0.0,0.0,0.0,0.0,0.0,0.0,0.0,0.0,0.0,0.0,0.0,0.0,0.0,0.0,1.5526,1.6626,1.704,0.0,0.0,0.0,0.0,0.0,0.0,1.4378,1.3388,0.0,0.0,0.0,0.0,0.0,0.0,0.0,0.0,0.0,0.0,0.0,0.0,0.0,0.0,0.0,0.0,0.0,0.0,0.0,0.0,0.0,0.0,0.0,0.0,0.0,0.0,0.0,0.0,0.0,0.0,0.0,0.0,0.0,0.0,0.0,0.0,0.0,0.0,0.0,0.0,0.0,0.0,0.0,0.0,0.0,0.0,0.0,0.0,0.0,0.0,0.0,0.0,0.0,0.0,0.0,1.4276,1.6309,1.7461,1.7689,1.7594,1.7519,1.7475,1.6475,1.5225,0.0,0.0,0.0,0.0,0.0,0.0,0.0,0.0,0.0,0.0,0.0,0.0,0.0,0.0,0.0,0.0,0.0,0.0,0.0,0.0,0.0,0.0,0.0,0.0,0.0,0.0,0.0,0.0,0.0,0.0,0.0,0.0,0.0,0.0,0.0,0.0,0.0,0.0,0.0,0.0,0.0,1.7432,1.8476,1.7471,0.0,0.0,0.0,0.0,1.6679,1.6077,0.0,0.0,0.0,0.0,0.0,0.0,0.0,0.0,0.0,0.0,0.0,0.0,0.0,0.0,0.0,0.0,0.0,0.0,0.0,0.0,0.0,0.0,0.0,0.0,0.0,0.0,0.0,0.0,0.0,0.0,0.0,0.0,0.0,0.0,0.0,0.0,0.0,0.0,0.0,0.0,0.0,0.0,0.0,0.0,0.0,0.0,0.0,0.0,0.0,0.0,0.0,0.0,0.0,0.0,0.0,0.0,1.4136,1.5461,1.6635,1.7635,1.7679,1.761,1.7412,1.6764,1.5341,0.0,0.0,0.0,0.0,0.0,0.0,0.0,0.0,0.0,0.0,0.0,0.0,0.0,0.0,0.0,0.0,0.0,0.0,0.0,0.0,0.0,0.0,0.0,0.0,0.0,0.0,0.0,0.0,0.0,0.0,0.0,0.0,0.0,0.0,0.0,0.0,0.0,0.0,0.0,0.0,0.0,2.0745,2.0222,1.9435,1.8872,0.0,0.0,1.8304,1.9659,1.8734,0.0,0.0,0.0,0.0,0.0,0.0,0.0,0.0,0.0,0.0,0.0,0.0,0.0,0.0,0.0,0.0,0.0,0.0,0.0,0.0,0.0,0.0,0.0,0.0,0.0,0.0,0.0,0.0,0.0,0.0,0.0,0.0,0.0,0.0,0.0,0.0,0.0,0.0,0.0,0.0,0.0,0.0,0.0,0.0,0.0,0.0,0.0,0.0,0.0,0.0,0.0,0.0,0.0,0.0,0.0,1.2291,1.4065,1.5871,1.706,1.7567,1.7546,1.7497,1.7391,1.6125,1.4625,0.0,0.0,0.0,0.0,0.0,0.0,0.0,0.0,0.0,0.0,0.0,0.0,0.0,0.0,0.0,0.0,0.0,0.0,0.0,0.0,0.0,0.0,0.0,0.0,0.0,0.0,0.0,0.0,0.0,0.0,0.0,0.0,0.0,0.0,0.0,0.0,0.0,0.0,0.0,0.0,0.0,0.0,2.0952,2.04,0.0,0.0,0.0,2.0199,2.0377,0.0,0.0,0.0,0.0,0.0,0.0,0.0,0.0,0.0,0.0,0.0,0.0,0.0,0.0,0.0,0.0,0.0,0.0,0.0,0.0,0.0,0.0,0.0,0.0,0.0,0.0,0.0,0.0,0.0,0.0,0.0,0.0,0.0,0.0,0.0,0.0,0.0,0.0,0.0,0.0,0.0,0.0,0.0,0.0,0.0,0.0,0.0,0.0,0.0,0.0,0.0,0.0,0.0,0.0,0.0,0.0,0.0,1.3975,1.627,1.7491,1.7491,1.7422,1.7394,1.7313,1.5713,0.0,0.0,0.0,0.0,0.0,0.0,0.0,0.0,0.0,0.0,0.0,0.0,0.0,0.0,0.0,0.0,0.0,0.0,0.0,0.0,0.0,0.0,0.0,0.0,0.0,0.0,0.0,0.0,0.0,0.0,0.0,0.0,0.0,0.0,0.0,0.0,0.0,0.0,0.0,0.0,0.0,0.0,1.9734,2.1619,2.1365,2.1101,0.0,0.0,2.174,2.1331,2.1757,2.0848,0.0,0.0,0.0,0.0,0.0,0.0,0.0,0.0,0.0,0.0,0.0,0.0,0.0,0.0,0.0,0.0,0.0,0.0,0.0,0.0,0.0,0.0,0.0,0.0,0.0,0.0,0.0,0.0,0.0,0.0,0.0,0.0,0.0,0.0,0.0,0.0,0.0,0.0,0.0,0.0,0.0,0.0,0.0,0.0,0.0,0.0,0.0,0.0,0.0,0.0,0.0,0.0,0.0,0.0,0.0,1.3927,1.6213,1.7404,1.7404,1.7394,1.7339,1.7217,1.6049,1.438,0.0,0.0,0.0,0.0,0.0,0.0,0.0,0.0,0.0,0.0,0.0,0.0,0.0,0.0,0.0,0.0,0.0,0.0,0.0,0.0,0.0,0.0,0.0,0.0,0.0,0.0,0.0,0.0,0.0,0.0,0.0,0.0,0.0,0.0,0.0,0.0,0.0,0.0,0.0,0.0,0.0,2.1653,2.2502,2.2578,2.3043,0.0,0.0,2.2836,2.3474,2.3605,2.2365,1.8648,0.0,0.0,0.0,0.0,0.0,0.0,0.0,0.0,0.0,0.0,0.0,0.0,0.0,0.0,0.0,0.0,0.0,0.0,0.0,0.0,0.0,0.0,0.0,0.0,0.0,0.0,0.0,0.0,0.0,0.0,0.0,0.0,0.0,0.0,0.0,0.0,0.0,0.0,0.0,0.0,0.0,0.0,0.0,0.0,0.0,0.0,0.0,0.0,0.0,0.0,0.0,0.0,0.0,1.2598,1.385,1.6197,1.7394,1.7394,1.7394,1.7373,1.7319,1.6497,1.496,0.0,0.0,0.0,0.0,0.0,0.0,0.0,0.0,0.0,0.0,0.0,0.0,0.0,0.0,0.0,0.0,0.0,0.0,0.0,0.0,0.0,0.0,0.0,0.0,0.0,0.0,0.0,0.0,0.9686,0.9921,0.9758,0.0,0.0,0.0,0.0,0.0,0.0,0.0,0.0,0.0,0.0,2.1962,2.294,2.3463,0.0,0.0,2.397,2.3615,2.4097,2.34,2.1997,1.9584,1.8386,0.0,0.0,0.0,0.0,0.0,0.0,0.0,0.0,0.0,0.0,0.0,0.0,0.0,0.0,0.0,0.0,0.0,0.0,0.0,0.0,0.0,0.0,0.0,0.0,0.0,0.0,0.0,0.0,0.0,0.0,0.0,0.0,0.0,0.0,0.0,0.0,0.0,0.0,0.0,0.0,0.0,0.0,0.0,0.0,0.0,0.0,0.0,0.0,0.0,0.0,0.0,0.0,1.2576,1.3791,1.613,1.7339,1.7329,1.7339,1.7339,1.7316,1.674,1.5391,0.0,0.0,0.0,0.0,0.0,0.0,0.0,0.0,0.0,0.0,0.0,0.0,0.0,0.0,0.0,0.0,0.0,0.0,0.0,0.0,0.0,0.0,0.0,0.0,0.0,0.0,0.0,0.0,1.0411,1.0416,0.9889,0.0,0.0,0.0,0.0,0.0,0.0,0.0,0.0,0.0,0.0,2.2494,2.3511,2.4082,2.447,2.473,2.4259,2.4034,2.4501,2.3606,2.216,2.0139,0.0,0.0,0.0,0.0,0.0,0.0,0.0,0.0,0.0,0.0,0.0,0.0,0.0,0.0,0.0,0.0,0.0,0.0,0.0,0.0,0.0,0.0,0.0,0.0,0.0,0.0,0.0,0.6346,0.0,0.0,0.6607,0.0,0.0,0.0,0.0,0.0,0.0,0.0,0.0,0.0,0.0,0.0,0.0,0.0,0.0,0.0,0.0,0.0,0.0,0.0,0.0,0.0,0.0,1.2602,1.3801,1.6068,1.7222,1.7222,1.7209,1.7222,1.7196,1.6686,1.5575,1.3817,0.0,0.0,0.0,0.0,0.0,0.0,0.0,0.0,0.0,0.0,0.0,0.0,0.0,0.0,0.0,0.0,0.0,0.0,0.0,0.0,0.0,0.0,0.0,0.0,0.0,0.0,1.0118,0.9481,0.9108,0.0,0.0,0.0,0.0,0.0,0.0,0.0,0.0,0.0,0.0,2.2051,2.3549,2.4344,2.4426,2.4691,2.5454,2.4564,2.4073,2.4871,2.4584,2.3319,0.0,0.0,0.0,0.0,0.0,0.0,0.0,0.0,0.0,0.0,0.0,0.0,0.0,0.0,0.0,0.0,0.0,0.0,0.0,0.0,0.0,0.0,0.0,0.0,0.0,0.0,0.0,0.8904,0.8678,0.0,0.0,0.0,0.0,0.0,0.0,0.0,0.0,0.0,0.0,0.0,1.3226,1.3975,0.0,0.0,0.0,0.0,0.0,0.0,0.0,0.0,0.0,0.0,0.0,0.0,1.2766,1.4332,1.6228,1.7222,1.7222,1.7222,1.7222,1.7222,1.7039,1.5954,1.387,0.0,0.0,0.0,0.0,0.0,0.0,0.0,0.0,0.0,0.0,0.0,0.0,0.0,0.0,0.0,0.0,0.0,0.0,0.0,0.0,0.0,0.0,0.0,0.0,0.0,1.0282,0.0,0.0,0.0,0.0,0.0,0.0,0.0,0.0,0.0,0.0,0.0,1.9728,2.0965,2.3221,2.4571,2.4048,2.4593,2.5151,0.0,0.0,0.0,0.0,0.0,0.0,0.0,0.0,0.0,0.0,0.0,0.0,0.0,0.0,2.0705,1.5962,1.5158,1.5529,1.6625,0.0,0.0,0.0,0.0,0.0,0.0,0.0,0.0,0.0,0.0,0.0,0.0,0.0,0.0,1.0536,0.0,1.0129,0.0,0.0,0.0,0.0,0.0,0.0,0.0,0.0,1.5016,1.5722,1.5604,1.6333,1.5888,0.0,1.4616,1.3226,0.0,0.0,0.0,0.0,0.0,0.0,0.0,0.0,1.3388,1.4899,1.6415,1.7222,1.7222,1.7222,1.7222,1.7199,1.7016,1.6114,1.445,1.344,1.2134,0.0,0.0,0.0,0.0,0.0,0.0,0.0,0.0,0.0,0.0,0.0,0.0,0.0,0.0,0.0,0.0,0.0,0.0,0.0,0.0,0.0,0.0,0.0,1.0671,0.0,0.0,0.0,0.0,0.0,0.0,0.0,0.0,0.0,1.8035,1.977,2.1433,2.2695,2.4122,2.4762,2.4018,0.0,0.0,0.0,0.0,0.0,0.0,0.0,2.3113,2.3702,2.3335,2.2916,2.2781,2.4168,2.5165,2.4742,0.0,0.0,1.9366,1.8526,1.8894,1.9998,2.0275,2.0573,2.1357,2.1769,2.1956,0.0,0.0,0.0,0.0,0.0,0.0,0.0,0.0,1.0996,1.1563,0.0,1.1763,0.0,0.0,0.0,0.0,0.0,1.3573,0.0,0.0,1.729,1.8401,1.8821,1.8821,1.8298,1.734,1.7774,1.6647,1.3966,1.2268,0.0,0.0,0.0,0.0,0.0,0.0,1.4398,1.5519,1.6624,1.7222,1.7222,1.7222,1.7222,1.7186,1.6702,1.615,1.5548,1.4947,1.3853,1.2164,1.1553,0.0,0.0,0.0,0.0,0.0,0.0,0.0,0.0,0.0,0.0,0.0,0.0,0.0,0.0,0.0,0.0,0.0,0.0,0.0,0.0,1.1113,0.0,0.0,0.0,0.0,0.0,0.0,0.0,0.0,0.0,0.0,2.0542,2.1495,2.2906,2.5058,0.0,0.0,0.0,0.0,2.456,2.5333,2.4945,2.5081,2.648,2.6328,2.5772,2.5061,0.0,0.0,2.4163,2.5362,2.5957,2.4296,2.5132,2.5832,2.5601,2.4396,2.3995,2.4767,2.4243,2.416,2.4871,2.468,2.4516,1.3764,0.0,0.0,0.0,0.0,1.1902,1.2614,1.4079,1.4055,1.4017,1.3983,1.3962,0.0,0.0,0.0,0.0,0.0,0.0,1.6717,1.7382,1.8257,1.8754,1.8886,1.8886,1.8728,1.8427,1.8584,1.8257,1.7408,1.6114,1.4023,1.1253,0.0,0.0,0.0,0.0,1.496,1.6111,1.6846,1.7222,1.7222,1.7222,1.7222,1.7222,1.7065,1.6712,1.6163,1.599,1.5261,1.391,1.2941,0.0,0.0,0.0,0.0,0.0,0.0,0.0,0.0,0.0,0.0,0.0,0.0,0.0,0.0,0.0,0.0,0.0,0.0,0.0,1.1093,1.1524,1.1912,0.0,0.0,0.0,0.0,0.0,0.0,0.0,0.0,0.0,2.3852,2.4255,2.4521,0.0,0.0,2.5015,2.5276,2.5275,2.5527,2.6225,2.6183,0.0,2.6751,2.622,2.5843,2.614,2.6605,2.7026,2.7304,2.7639,2.7685,2.7242,2.7445,2.7647,2.7508,2.6115,2.5213,2.5632,2.5563,2.5628,2.6323,2.643,2.6272,1.6066,1.4741,1.4171,1.4235,1.4656,1.414,1.474,1.6016,1.578,1.5857,1.6131,1.5729,1.5092,1.4372,1.4319,0.0,0.0,0.0,1.8104,1.8656,1.906,1.9371,1.9531,1.9592,1.9473,1.9251,1.9264,1.9133,1.8886,1.8218,1.6422,1.3664,0.0,0.0,1.4293,1.4973,1.5685,1.6422,1.6946,1.7126,1.6937,1.7092,1.7222,1.7222,1.7222,1.7055,1.6738,1.6715,1.6284,1.5352,1.4437,1.3022,0.0,0.0,0.0,0.0,0.0,0.0,0.0,0.0,0.0,0.0,0.0,1.0101,0.0,0.0,0.0,0.0,1.0741,1.1926,1.3082,1.3352,0.0,0.0,0.0,0.0,0.0,0.0,0.0,2.1013,2.1946,2.3175,2.5359,2.5861,2.5917,2.5801,2.5741,2.5781,2.5987,0.0,2.6238,2.6912,2.6998,2.7091,2.7428,2.7049,2.6869,2.7287,2.7643,2.7995,2.8507,2.8508,2.8448,2.8481,2.8456,2.8411,2.8411,2.7562,2.6913,2.6987,2.6986,2.7132,2.7628,2.7675,2.7615,1.7864,1.7792,1.6968,1.6578,1.6516,1.646,1.6468,1.6509,1.6527,1.7124,1.807,1.7178,1.7068,1.7573,1.7352,0.0,1.7832,1.8715,1.932,1.9604,1.9811,2.0145,2.0576,2.065,2.04,1.9866,1.9817,1.9518,1.8974,1.8862,1.8288,1.7264,1.6171,1.5883,1.6373,1.6438,1.6494,1.6559,1.6942,1.6933,1.6509,1.6958,1.7222,1.7222,1.7222,1.7199,1.7209,1.7199,1.6987,1.6477,1.5849,1.4472,1.2281,0.0,0.0,0.0,0.0,0.0,0.0,0.0,0.0,0.0,0.0,0.0,0.0,0.0,0.0,0.0,1.2893,0.0,1.6096,1.6007,0.0,0.0,0.0,1.6645,1.8132,1.9221,2.0566,2.2302,0.0,0.0,2.5676,2.6505,2.7082,2.7189,2.6784,2.651,2.6601,2.6627,2.6819,2.75,2.7539,2.7723,2.8225,2.8282,2.8251,2.8297,2.8411,2.8377,2.8408,2.8411,2.8411,2.8519,2.8488,2.855,2.855,2.9024,2.9292,2.8651,2.8485,2.8491,2.8592,2.8562,2.8493,1.9299,1.9264,1.8688,1.804,1.7373,1.6996,1.7076,1.7467,1.7535,1.7958,1.863,1.8851,1.9107,1.9408,1.9775,2.0029,2.0195,2.0873,2.1246,2.1269,2.0938,2.0914,2.1082,2.0732,2.0534,2.0453,2.0015,1.9725,1.9547,1.871,1.8154,1.786,1.7145,1.6646,1.6427,1.6815,1.7012,1.7027,1.6791,1.6613,1.6513,1.6958,1.7222,1.7222,1.7222,1.7222,1.7222,1.7222,1.7146,1.7,1.6036,1.4846,1.3435,1.1669,0.0,0.0,0.0,0.0,0.0,0.0,0.0,0.0,0.0,1.2939,1.029,0.0,1.3659,0.0,1.4023,1.5342,1.6545,1.6901,0.0,0.0,1.8859,1.966,2.1429,2.2063,2.2812,2.4071,2.5017,2.5937,2.686,2.7173,2.7508,2.7984,2.7087,2.6687,2.7538,2.7507,2.7573,2.817,2.8286,2.8379,2.8494,2.8456,2.8411,2.8411,2.8411,2.8411,2.8411,2.8411,2.8565,2.903,2.9153,2.9353,2.9799,3.0076,3.0094,2.9938,2.9522,2.9153,2.9203,2.8814,2.8472,2.0076,2.0055,1.9779,1.9385,1.8845,1.821,1.8108,1.8367,1.819,1.847,1.9046,1.9427,1.9716,1.9906,2.0532,2.0973,2.1258,2.1713,2.1687,2.1272,2.111,2.0865,2.0582,2.0134,1.9966,2.0019,1.9547,1.9307,1.9268,1.8778,1.8362,1.8103,1.7769,1.7333,1.6838,1.7066,1.7107,1.6898,1.642,1.6403,1.6796,1.6861,1.6976,1.7201,1.7222,1.7222,1.7222,1.6974,1.6846,1.683,1.598,1.5091,1.4197,1.2871,1.1865,0.0,0.0,0.0,0.0,0.0,0.0,0.0,0.0,0.0,0.0,0.0,1.5432,1.527,1.6323,1.7553,1.8865,1.9382,1.9961,2.0707,2.093,2.1672,2.3288,2.3616,2.4163,2.5363,2.6094,2.6732,2.7338,2.7673,2.798,2.835,2.7738,2.7473,2.8042,2.8058,2.8111,2.8455,2.8501,2.8517,2.8517,2.8444,2.8411,2.8411,2.8411,2.8411,2.8411,2.8645,2.8969,2.9338,2.9633,2.994,3.034,3.0661,3.083,3.0784,3.0551,3.0199,2.9894,2.9553,2.9283,2.0478,2.0496,2.0434,2.0374,2.0323,1.9572,1.9243,1.916,1.8688,1.8834,1.942,1.9617,1.975,1.9932,2.0505,2.1014,2.1441,2.1694,2.1354,2.0607,2.074,2.0461,1.9798,1.9447,1.9226,1.9186,1.8834,1.8625,1.8568,1.867,1.8454,1.7943,1.7957,1.7733,1.729,1.723,1.6974,1.6505,1.6159,1.6338,1.7085,1.6773,1.6788,1.718,1.7222,1.7222,1.7199,1.6765,1.6506,1.648,1.5941,1.5369,1.4833,1.4201,1.3824,0.0,1.3277,0.0,0.0,0.0,0.0,0.0,0.0,0.0,0.0,1.6717,1.7394,1.8224,1.9147,2.0268,2.1645,2.2254,2.2557,2.2557,2.2726,2.3296,2.442,2.4646,2.5164,2.6391,2.7103,2.753,2.758,2.8057,2.8396,2.8396,2.835,2.83,2.8393,2.8389,2.8377,2.8411,2.8411,2.8436,2.8424,2.8424,2.8442,2.8504,2.8581,2.8553,2.8719,2.9153,2.9553,2.9707,3.0184,3.0553,3.0632,3.1151,3.1503,3.1518,3.1488,3.1259,3.0705,3.0384,3.0402,2.0814,2.094,2.0558,2.0374,2.0374,2.0227,1.9965,1.9637,1.917,1.9341,1.9997,2.0536,2.0818,2.0834,2.0973,2.1086,2.1164,2.1237,2.1164,2.0965,2.058,2.0398,2.0322,1.9851,1.9448,1.9179,1.864,1.8204,1.79,1.7429,1.7159,1.705,1.7165,1.714,1.7067,0.0,0.0,0.0,1.6805,1.6831,1.6653,1.6919,1.7102,1.7204,1.7222,0.0,1.7199,1.7107,1.7052,1.7029,1.6529,0.0,0.0,0.0,0.0,0.0,0.0,0.0,0.0,0.0,0.0,0.0,1.8597,1.8396,1.7127,1.903,2.0534,2.0931,2.1437,2.1855,2.2155,2.3233,2.3933,2.3953,2.4918,2.5729,2.6006,2.6457,2.6949,2.7165,2.7808,2.8211,2.8196,2.8334,2.8396,2.8411,2.8411,2.8411,2.8411,2.8411,2.8411,2.8411,2.8411,2.8411,2.8411,2.8411,2.863,2.903,2.9215,2.9415,2.9845,3.0076,3.0443,3.0856,3.1133,3.1397,3.1874,3.2121,3.218,3.2198,3.2182,3.1997,3.1349,3.0768,3.0394,2.1071,2.1145,2.1003,2.0938,0.0,2.0793,2.062,2.0407,1.9934,1.9818,1.9957,2.0058,2.0291,2.0613,2.0613,2.0789,2.1087,2.1087,2.0917,2.0586,2.0323,2.0054,1.9782,1.9284,1.8964,1.8787,1.8318,1.7893,1.7506,1.7334,1.7131,1.6909,1.7064,1.7134,1.7159,1.7253,1.7161,1.6896,1.6873,1.6836,1.6849,1.6846,1.6973,1.7195,1.7216,0.0,0.0,0.0,0.0,0.0,0.0,0.0,0.0,0.0,0.0,1.6272,1.635,1.6701,1.7461,1.8019,1.8874,2.0173,2.1358,2.1372,1.9786,2.0975,2.213,2.2903,2.3174,2.3573,2.4266,2.4944,2.5322,2.5364,2.5975,2.6503,2.6853,2.718,2.7534,2.7857,2.8181,2.8411,2.8411,2.8411,2.8411,2.8411,2.8411,2.8411,2.8411,2.8411,2.8411,2.8411,2.8411,2.8411,2.8442,2.8707,2.8984,2.9338,2.9676,3.0002,3.034,3.0676,3.1012,3.1349,3.1657,3.2026,3.2304,3.2411,3.2411,3.2411,3.2411,3.2319,3.195,3.1613,3.1384,2.1205,2.1282,2.1474,2.154,2.1539,2.1319,2.122,2.1178,0.0,0.0,0.0,1.9485,1.9622,2.0149,2.009,2.0341,2.0849,2.0786,2.0436,1.9917,1.9944,1.9633,1.9104,1.8704,1.848,1.8403,1.8124,1.7768,1.7405,1.7597,1.7458,1.7045,1.7204,1.727,1.7208,1.7222,1.7211,1.7217,1.6798,1.6788,1.7165,1.6901,1.6951,1.7349,1.7453,1.7499,1.7497,1.7091,1.6833,1.682,1.6375,1.6333,1.682,1.7264,1.7869,1.8677,1.9273,1.994,2.0739,2.0965,2.1409,2.2188,2.3564,2.3885,2.2718,2.2871,2.3456,2.4579,2.4671,2.5149,2.6283,2.6514,2.6576,2.6591,2.6684,2.6995,2.7488,2.7565,2.7823,2.8288,2.8396,2.8411,2.8411,2.8411,2.8411,2.8411,2.8411,2.8411,2.8411,2.8411,2.8411,2.8411,2.8535,2.8615,2.8676,2.9141,2.9584,2.983,3.0261,3.0599,3.0799,3.1213,3.1534,3.1626,3.2044,3.2321,3.2411,3.2411,3.2411,3.2411,3.2411,3.2411,3.2411,3.2411,3.235,2.1301,2.1464,2.1655,2.175,2.1759,2.1716,2.1704,2.1642,2.0785,2.0372,2.031,2.0248,2.0259,2.0354,2.0003,1.9905,1.9958,1.9542,1.9347,1.9247,1.9247,1.9198,1.9098,1.9036,1.8797,1.8408,1.8351,1.8108,1.7693,1.7682,1.7459,1.7084,1.7194,1.7154,1.6892,1.6874,1.6934,1.7039,1.6974,1.7011,1.72,1.7542,1.7786,1.7983,1.8404,1.8651,1.8662,1.8571,1.8545,1.8545,1.8466,1.8466,1.8534,1.861,1.8724,1.888,1.9324,1.9831,2.0358,2.1237,2.2512,2.421,2.5321,2.5339,2.4116,2.5064,2.5846,2.6087,2.6068,2.6176,2.6422,2.693,2.7269,2.7288,2.778,2.8165,2.8211,2.8215,2.8245,2.8381,2.8411,2.8411,2.8411,2.8411,2.8411,2.8411,2.8473,2.8458,2.8535,2.8411,2.8411,2.8488,2.8892,2.9199,2.9322,2.9817,3.0399,3.1041,3.1136,3.1426,3.1874,3.2059,3.2167,3.2242,3.2319,3.2396,3.2411,3.2411,3.2411,3.2411,3.2411,3.2411,3.2411,3.2411,3.2411,2.1491,2.1371,2.1557,2.1572,2.1493,2.1712,2.1788,2.1766,2.1344,2.1013,2.0754,2.0509,2.0374,2.0382,2.0213,2.012,2.01,1.9661,1.9482,1.9461,1.9222,1.9098,1.9098,1.9098,1.8994,1.8797,1.877,1.8543,1.8112,1.8155,1.7947,1.75,1.7429,1.733,1.7161,1.6931,1.6867,1.6997,1.7011,1.7081,1.7242,1.7417,1.7707,1.8081,1.8341,1.861,1.8875,1.8886,1.8886,1.8886,1.8886,1.8886,1.8899,1.92,1.9381,1.942,2.0163,2.0857,2.1354,2.2662,2.3963,2.5232,2.6153,2.6428,2.5874,2.6155,2.6518,2.6899,2.6945,2.7099,2.7442,2.775,2.7938,2.7934,2.8242,2.8396,2.8411,2.8411,2.8411,2.8411,2.8411,2.8411,2.8411,2.8411,2.8411,2.8427,2.8661,2.9045,2.9399,2.9476,2.935,2.9076,2.9494,2.9907,2.9971,3.0507,3.1028,3.138,3.1703,3.2026,3.2381,3.2411,3.2411,3.2411,3.2411,3.2411,3.2411,3.2411,3.2411,3.2411,3.2411,3.2411,3.2411,3.2411,3.2411,2.1771,2.1437,2.1629,2.16,2.1423,2.1639,2.178,2.1788,2.1778,2.1582,2.122,2.0868,2.0713,2.0713,2.062,2.0558,2.0496,2.011,1.9879,1.9761,1.943,1.9202,1.9108,1.9098,1.9098,1.9098,1.9098,1.8922,1.86,1.865,1.8469,1.8025,1.7692,1.7546,1.7546,1.7201,1.7058,1.7195,1.7263,1.7294,1.7295,1.7346,1.7676,1.8261,1.8437,1.8746,1.9256,1.9314,1.9301,1.9303,1.9314,1.9368,1.9474,1.993,2.0232,2.044,2.1198,2.1917,2.2524,2.3894,2.5043,2.5723,2.6516,2.7089,2.7301,2.703,2.7019,2.7519,2.7626,2.7842,2.8242,2.8381,2.8411,2.8411,2.8411,2.8411,2.8411,2.8411,2.8411,2.8411,2.8411,2.8411,2.8427,2.8538,2.8722,2.8969,2.9307,2.9833,3.0294,3.0507,3.0384,3.0153,3.0307,3.0584,3.0676,3.1197,3.158,3.1626,3.2026,3.2304,3.2411,3.2411,3.2411,3.2411,3.2411,3.2411,3.2411,3.2411,3.2411,3.2411,3.2411,3.2411,3.2411,3.2411,3.2411,2.2123,2.2145,2.2268,2.2241,2.1975,2.1696,2.1667,2.1809,2.1799,2.1787,2.1714,2.1683,2.1633,2.1621,2.1209,2.1033,2.1002,2.0547,2.0162,1.9855,1.9751,1.9513,1.9187,1.9119,1.9098,1.9119,1.9108,1.9067,1.9005,1.9032,1.8797,1.8351,1.79,1.7698,1.7688,1.7631,1.7661,1.7819,1.8002,1.7851,1.7361,1.7669,1.8182,1.8889,1.9377,1.9915,2.0427,2.0542,2.0517,2.0542,2.0503,2.0752,2.1172,2.1303,2.159,2.2073,2.2243,2.2524,2.3055,2.4164,2.5124,2.5678,2.6469,2.7208,2.7834,2.8,2.8075,2.8267,2.8292,2.8304,2.8396,2.8411,2.8411,2.8411,2.8411,2.8411,2.8458,2.8411,2.8411,2.8411,2.8565,2.8427,2.8599,2.8984,2.9538,3.0045,3.0199,3.0347,3.0525,3.092,3.1156,3.1115,3.1247,3.1261,3.1366,3.1859,3.2165,3.2259,3.2321,3.2411,3.2411,3.2411,3.2411,3.2411,3.2411,3.2411,3.2411,3.2411,3.2411,3.2411,3.2411,3.2411,3.2411,3.2411,3.2411,2.1225,2.1551,2.1657,2.1878,2.212,2.211,2.2046,2.1978,2.1987,2.1902,2.1799,2.1788,2.1788,2.1797,2.1582,2.1518,2.1478,2.1023,2.0723,2.0563,2.0286,2.0048,1.9862,1.9627,1.953,1.9482,1.9243,1.9098,1.9098,1.9098,1.8994,1.8797,1.8356,1.8112,1.8102,1.7838,1.775,1.7909,1.7976,1.7949,1.7857,1.7907,1.8421,1.9274,1.937,1.9772,2.0586,2.0699,2.0831,2.1119,2.1184,2.1433,2.1995,2.2034,2.2139,2.2401,2.2714,2.3277,2.4163,2.4682,2.5378,2.6324,2.6766,2.7327,2.8057,2.8602,2.8919,2.8925,2.8658,2.8411,2.8427,2.8411,2.8411,2.8411,2.8411,2.8565,2.8941,2.8984,2.9107,2.9507,2.9571,2.9556,2.9615,2.983,3.0276,3.0843,3.0984,3.093,3.1042,3.1291,3.1258,3.1032,3.1189,3.1625,3.1873,3.218,3.2396,3.2411,3.2411,3.2411,3.2411,3.2411,3.2411,3.2411,3.2411,3.2411,3.2411,3.2411,3.2411,3.2411,3.2411,3.2411,3.2411,3.2411,3.2411,2.0624,2.1251,2.1423,2.1828,2.2362,2.2388,2.2332,2.223,2.2269,2.2133,2.1889,2.1955,2.1921,2.1799,2.1788,2.1788,2.1737,2.1455,2.1209,2.1075,2.0744,2.0527,2.0392,2.011,1.9962,1.9889,1.9513,1.9233,1.9119,1.9098,1.9098,1.9046,1.8756,1.8611,1.8553,1.8247,1.8123,1.8223,1.827,1.8349,1.8479,1.8512,1.8939,1.9765,1.9762,2.0157,2.1107,2.1158,2.1341,2.1721,2.176,2.2021,2.2556,2.2622,2.2688,2.2871,2.3223,2.38,2.4708,2.4777,2.5217,2.6243,2.6599,2.7085,2.7855,2.8583,2.9113,2.9335,2.8961,2.8729,2.8925,2.8953,2.895,2.8953,2.8965,2.9169,2.9599,2.9676,2.9861,3.0309,3.0079,3.0148,3.0137,3.0103,3.0316,3.0933,3.1097,3.1162,3.1258,3.1319,3.132,3.0881,3.1349,3.1793,3.2134,3.2299,3.237,3.2411,3.2411,3.2411,3.2411,3.2411,3.2411,3.2411,3.2411,3.2411,3.2411,3.2411,3.2411,3.2411,3.2411,3.2411,3.2411,3.2411,3.2411,2.0796,2.1679,2.2224,2.251,2.2759,2.2382,2.2328,2.2493,2.2656,2.2503,2.2165,2.2311,2.2192,2.1819,2.1809,2.1788,2.1797,2.1737,2.1528,2.1158,2.1085,2.0837,2.0413,2.0372,2.0372,2.0341,1.9962,1.9564,1.9181,1.9139,1.9098,1.9108,1.9071,1.9077,1.9025,1.8973,1.9015,1.8975,1.9058,1.9203,1.9259,1.9581,1.9905,2.0324,2.0964,2.1566,2.2175,2.2283,2.2323,2.2349,2.2362,2.2597,2.3119,2.3156,2.3405,2.3889,2.4019,2.406,2.4157,2.4239,2.453,2.5128,2.5793,2.6311,2.7322,2.7951,2.8605,2.9293,2.9347,2.9547,3.0029,3.0035,3.0125,3.0156,3.0233,3.0233,3.0301,3.0327,3.0356,3.0306,2.9969,2.9744,2.9652,2.9537,2.9959,3.0426,3.0571,3.057,3.06,3.1043,3.1204,3.1291,3.1608,3.2118,3.1724,3.1937,3.2259,3.2287,3.2217,3.2328,3.2384,3.2411,3.2398,3.2398,3.2411,3.2411,3.2411,3.2411,3.2411,3.2411,3.2411,3.2411,3.2411,3.2411,3.2411,1.9285,2.0818,2.1649,2.237,2.2955,2.2851,2.2742,2.2705,2.2758,2.2622,2.2372,2.2288,2.2152,2.2008,2.1855,2.1788,2.1788,2.1788,2.1714,2.154,2.1559,2.1447,2.13,2.1002,2.0847,2.0785,2.041,2.01,1.9965,1.9934,1.9806,1.9585,1.9527,1.9409,1.916,1.9098,1.9098,1.9098,1.9158,1.9175,1.9231,1.9819,2.0452,2.1097,2.128,2.1635,2.2197,2.2319,2.2544,2.2898,2.2924,2.3171,2.3706,2.3757,2.3862,2.4057,2.4111,2.4111,2.415,2.448,2.4917,2.5459,2.6121,2.6773,2.7525,2.821,2.8784,2.9132,2.9566,2.9915,3.0071,3.0276,3.0402,3.0402,3.0404,3.0418,3.0534,3.079,3.0899,3.0529,3.022,3.0134,3.0016,3.0131,3.0248,3.0422,3.048,3.0284,2.9981,3.0103,3.0194,2.9871,3.0133,3.0466,3.03,3.1189,3.1808,3.1808,3.1794,3.1794,3.1837,3.2217,3.2287,3.2258,3.2315,3.2301,3.2258,3.2273,3.2301,3.2411,3.2411,3.2411,3.2411,3.2411,3.2411,1.8711,2.0232,2.1284,2.2258,2.3047,2.3101,2.3022,2.2929,2.3047,2.2978,2.2745,2.2676,2.2613,2.2408,2.2154,2.2035,2.1985,2.188,2.1788,2.1788,2.1788,2.1788,2.1737,2.1468,2.1313,2.1269,2.0847,2.0568,2.0413,2.0374,2.0237,2.0003,1.9993,1.9837,1.9547,1.9392,1.9336,1.9305,1.9181,1.9098,1.9198,1.9835,2.0537,2.1162,2.1535,2.2052,2.2686,2.2879,2.3091,2.3431,2.3511,2.368,2.4058,2.4111,2.4111,2.4111,2.4295,2.4387,2.4452,2.4922,2.5406,2.577,2.6416,2.7043,2.7522,2.8187,2.8646,2.9029,2.9377,2.9736,3.0051,3.0231,3.0327,3.034,3.0381,3.0438,3.0505,3.0863,3.0758,3.0276,3.0107,3.0059,2.9933,2.9857,2.9826,2.9886,2.9886,2.9656,2.9329,2.9378,2.9409,2.9044,2.9596,2.9996,3.0011,3.0585,3.1014,3.1058,3.1175,3.1189,3.1465,3.1879,3.2062,3.209,3.2118,3.2104,3.2104,3.2104,3.2203,3.2315,3.2411,3.2411,3.2411,3.2411,3.2361,1.9293,2.0277,2.1253,2.217,2.3025,2.3101,2.3091,2.3139,2.3509,2.3442,2.3207,2.3586,2.3412,2.3143,2.2688,2.249,2.2428,2.2128,2.1871,2.1818,2.1788,2.1788,2.1778,2.1737,2.1716,2.1725,2.1313,2.0889,2.0558,2.0547,2.0506,2.0434,2.0413,2.0343,2.0361,1.9955,1.9786,1.973,1.943,1.9202,1.9202,1.9816,2.0331,2.0709,2.1842,2.2992,2.3967,2.4003,2.398,2.4032,2.4045,2.4084,2.415,2.4191,2.4164,2.432,2.4702,2.4964,2.5042,2.5511,2.5824,2.5984,2.6411,2.6899,2.7128,2.7561,2.8147,2.8698,2.8914,2.9223,2.9815,2.996,3.0069,3.0242,3.0396,3.0469,3.0438,3.0451,3.0254,2.9704,2.9551,2.9237,2.8817,2.8798,2.8878,2.8862,2.883,2.883,2.8801,2.9091,2.938,2.9487,2.9594,2.9732,2.9872,3.0011,3.0133,3.0269,3.0434,3.0584,3.1043,3.145,3.145,3.1464,3.1708,3.1708,3.1522,3.1551,3.1752,3.1908,3.2104,3.212,3.1979,3.1896,3.2159,1.8742,2.0164,2.0525,2.1619,2.3003,2.3101,2.3101,2.3123,2.3276,2.3349,2.3416,2.3412,2.3409,2.3371,2.3103,2.2997,2.2976,2.2811,2.2428,2.1892,2.1809,2.1799,2.1788,2.1788,2.1788,2.1768,2.1673,2.1509,2.1364,2.1344,2.1209,2.0959,2.0878,2.0684,2.0444,2.0286,2.0213,2.0193,2.0079,2.0006,1.9996,2.0177,2.0668,2.1503,2.2448,2.3454,2.4431,2.4247,2.4109,2.4137,2.4111,2.4282,2.4624,2.473,2.4883,2.5247,2.5445,2.555,2.5628,2.6086,2.6412,2.652,2.6935,2.7239,2.7311,2.7472,2.7709,2.7977,2.796,2.8111,2.8293,2.8487,2.9079,3.0269,3.0465,3.0238,2.9842,2.9454,2.9329,2.944,2.9139,2.8801,2.8667,2.8587,2.8587,2.8587,2.8587,2.8587,2.8651,2.8769,2.8865,2.8928,2.9166,2.9357,2.9341,2.9343,2.9437,2.9639,2.9811,3.0071,3.0554,3.0822,3.0807,3.0852,3.1116,3.116,3.097,3.1014,3.1204,3.1234,3.1249,3.1205,3.1161,3.1441,3.1915,1.8241,1.9642,1.9687,2.0579,2.2028,2.2391,2.2577,2.2665,2.3069,2.3341,2.3477,2.3569,2.3629,2.3707,2.3546,2.3473,2.3453,2.3297,2.2873,2.2335,2.2108,2.1983,2.1819,2.1788,2.1788,2.1788,2.1788,2.1788,2.1788,2.1778,2.1652,2.1395,2.1354,2.123,2.0909,2.0762,2.0661,2.0651,2.0485,2.0374,2.0392,2.0374,2.0907,2.1891,2.2655,2.3539,2.4462,2.4587,2.4664,2.4694,2.4723,2.4936,2.5262,2.5301,2.5445,2.573,2.5991,2.6138,2.6203,2.669,2.6987,2.7066,2.7327,2.749,2.749,2.7503,2.7503,2.7503,2.7523,2.7536,2.764,2.7726,2.8387,2.9437,2.9546,2.9439,2.9046,2.8739,2.8691,2.8933,2.8833,2.8635,2.8587,2.8587,2.8587,2.8587,2.8587,2.8587,2.8587,2.8603,2.8587,2.8587,2.8732,2.8798,2.8683,2.8686,2.875,2.8976,2.9218,2.9548,2.9964,3.0087,3.0133,3.0011,3.0163,3.0163,3.001,3.0299,3.0495,3.0446,3.0691,3.1181,3.1508,3.1694,3.2034,1.7901,1.875,1.8819,1.9422,2.0421,2.1239,2.1606,2.1784,2.2665,2.3144,2.3385,2.3596,2.4005,2.4084,2.3948,2.3888,2.3867,2.3577,2.3349,2.3101,2.2801,2.2439,2.2087,2.2026,2.2037,2.1985,2.1974,2.1932,2.1932,2.1902,2.1809,2.1756,2.1716,2.1768,2.1592,2.1323,2.1127,2.1104,2.0744,2.0578,2.0568,2.0547,2.103,2.2027,2.276,2.3582,2.4522,2.5259,2.5678,2.5764,2.5652,2.5691,2.5835,2.5848,2.5887,2.6057,2.6465,2.6677,2.6847,2.7144,2.7425,2.7411,2.7454,2.7503,2.7503,2.7503,2.7503,2.7503,2.7503,2.7556,2.7723,2.7756,2.7924,2.8046,2.8344,2.8363,2.832,2.8336,2.8465,2.8589,2.8603,2.8587,2.8587,2.8587,2.8587,2.8587,2.8587,2.8587,2.8587,2.8587,2.8587,2.8587,2.8587,2.8587,2.8587,2.8603,2.8667,2.875,2.8944,2.9202,2.9439,2.9517,2.947,2.9345,2.9434,2.934,2.9383,2.9785,3.014,3.0409,3.088,3.1566,3.1762,3.1707,3.1872,1.7878,1.8788,1.8796,1.9353,2.0164,2.0512,2.0602,2.0624,2.0939,2.1686,2.2262,2.2514,2.3234,2.41,2.4127,2.4193,2.4228,2.4187,2.3981,2.3732,2.3608,2.3277,2.2924,2.2811,2.2801,2.278,2.2718,2.2646,2.2346,2.2315,2.2159,2.1799,2.184,2.1809,2.1747,2.1673,2.1631,2.1621,2.1499,2.1395,2.1385,2.1385,2.1919,2.2874,2.36,2.4453,2.5436,2.6341,2.6457,2.5829,2.578,2.6018,2.6386,2.6481,2.6608,2.6945,2.7141,2.7271,2.7298,2.7398,2.749,2.7503,2.7503,2.7503,2.7503,2.7503,2.7503,2.7503,2.7503,2.7533,2.7586,2.759,2.7623,2.7673,2.7898,2.8115,2.8252,2.8303,2.8382,2.8541,2.8587,2.8587,2.8587,2.8587,2.8587,2.8587,2.8587,2.8587,2.8587,2.8587,2.8587,2.8587,2.8587,2.8587,2.8587,2.8587,2.8619,2.8651,2.8798,2.896,2.9105,2.9139,2.8978,2.8785,2.9323,2.9412,2.9398,2.9593,2.9947,3.0476,3.0698,3.1129,3.1109,3.1086,3.1474,1.7645,1.8172,1.8172,1.8473,1.9001,1.9422,1.9604,1.9695,2.0059,2.0548,2.1253,2.1832,2.246,2.3268,2.3787,2.4163,2.4347,2.4368,2.4288,2.4187,2.4146,2.3774,2.3318,2.3184,2.3194,2.3194,2.3205,2.3039,2.2822,2.2791,2.2625,2.2418,2.219,2.2088,2.2088,2.1871,2.1799,2.1778,2.1788,2.1788,2.1788,2.1788,2.2279,2.312,2.3913,2.4856,2.6191,2.6884,2.6915,2.6541,2.6505,2.6684,2.6974,2.704,2.7183,2.749,2.7503,2.749,2.7503,2.7503,2.7503,2.7503,2.7503,2.7503,2.7503,2.7503,2.7546,2.7876,2.7859,2.7872,2.782,2.7663,2.7516,2.7553,2.7703,2.7918,2.8072,2.8072,2.8219,2.8395,2.8476,2.8522,2.8571,2.8587,2.8587,2.8587,2.8587,2.8587,2.8587,2.8587,2.8587,2.8587,2.86,2.8614,2.8614,2.8627,2.8668,2.8701,2.8926,2.902,2.9011,2.9043,2.8998,2.9002,2.9323,2.9578,2.9664,2.9822,3.026,3.0613,3.0629,3.0866,3.1097,3.1137,3.1454,1.7309,1.7309,1.7309,1.7309,1.7512,1.8272,1.865,1.8788,1.9376,1.9869,2.0254,2.1177,2.1556,2.1921,2.2974,2.3722,2.3992,2.4131,2.4325,2.4402,2.4394,2.4084,2.3557,2.3494,2.3484,2.3463,2.336,2.3349,2.3297,2.3256,2.3235,2.3028,2.2708,2.2594,2.2522,2.2192,2.1983,2.2045,2.1994,2.2035,2.2037,2.2054,2.2425,2.3307,2.4155,2.5189,2.634,2.6922,2.6998,2.7209,2.7403,2.7411,2.7451,2.7477,2.7477,2.749,2.7503,2.7516,2.7607,2.7689,2.7715,2.7807,2.782,2.7673,2.7833,2.7898,2.8055,2.8455,2.8481,2.8494,2.8442,2.8033,2.7885,2.7898,2.7824,2.7812,2.7867,2.7855,2.7924,2.8219,2.8284,2.8365,2.8476,2.8554,2.8554,2.8492,2.8538,2.8587,2.8587,2.8587,2.8587,2.8587,2.8614,2.8611,2.8625,2.8638,2.8722,2.8807,2.9132,2.928,2.9242,2.9255,2.9277,2.9408,2.975,2.998,3.0164,3.0402,3.0738,3.0982,3.1155,3.1562,3.1929,3.1807,3.1942,1.7309,1.7309,1.7309,1.7309,1.7333,1.7512,1.7645,1.7692,1.787,1.8465,1.9032,1.9422,2.0073,2.0953,2.1921,2.2614,2.3193,2.3809,2.4304,2.4486,2.4507,2.4435,2.4208,2.4156,2.4187,2.4167,2.4208,2.4064,2.3836,2.3712,2.3567,2.3236,2.3163,2.3039,2.3018,2.2884,2.2884,2.2832,2.2542,2.2522,2.2697,2.252,2.2871,2.3891,2.4893,2.5635,2.6129,2.6574,2.6773,2.693,2.7286,2.7617,2.7512,2.7512,2.7538,2.7581,2.7581,2.7742,2.8085,2.8233,2.8416,2.8739,2.8739,2.8913,2.8926,2.8848,2.8908,2.9096,2.9096,2.9109,2.907,2.8987,2.8791,2.8739,2.8778,2.8821,2.8812,2.8276,2.7991,2.8146,2.8198,2.8161,2.8253,2.8397,2.8417,2.8409,2.846,2.8571,2.8584,2.8565,2.8641,2.866,2.8852,2.8914,2.9002,2.9018,2.9068,2.9155,2.9416,2.9791,2.9754,2.9713,2.9838,2.9984,3.0178,3.0415,3.0703,3.092,3.1254,3.1467,3.1657,3.1915,3.2119,3.2187,3.2187,1.7309,1.7309,1.7309,1.7309,1.7309,1.7309,1.7309,1.7309,1.7309,1.7582,1.8133,1.8542,1.9178,1.9809,2.0751,2.1623,2.2702,2.3809,2.439,2.4497,2.4507,2.4507,2.4507,2.4507,2.4507,2.4507,2.4487,2.4363,2.4218,2.4136,2.4053,2.3815,2.3619,2.3536,2.3473,2.3349,2.3163,2.3142,2.2987,2.2976,2.3111,2.3007,2.3261,2.4126,2.495,2.5509,2.6492,2.6753,2.7142,2.7557,2.7941,2.7906,2.7559,2.765,2.7814,2.7937,2.8255,2.8425,2.8756,2.8834,2.8939,2.9279,2.9305,2.9292,2.9292,2.9292,2.9462,2.9601,2.9662,2.9666,2.9653,2.9353,2.9344,2.9292,2.9318,2.9305,2.9179,2.8581,2.8292,2.8533,2.8584,2.8502,2.8492,2.8532,2.8381,2.8427,2.831,2.8405,2.8469,2.849,2.8718,2.8849,2.9097,2.9272,2.9382,2.9452,2.9497,2.9629,2.9828,3.0278,3.0577,3.054,3.0517,3.0663,3.0825,3.1097,3.1355,3.1576,3.1671,3.1834,3.1997,3.2132,3.2187,3.2187,3.2187,1.7309,1.7309,1.7309,1.7309,1.7309,1.7309,1.7309,1.7309,1.7309,1.7356,1.7442,1.8241,1.8496,1.8788,1.965,2.0939,2.246,2.3529,2.4164,2.4475,2.4507,2.4507,2.4507,2.4507,2.4507,2.4507,2.4507,2.4466,2.4466,2.4497,2.4383,2.4405,2.4178,2.4012,2.3888,2.365,2.3515,2.3525,2.3381,2.3381,2.3443,2.3401,2.3714,2.4225,2.4552,2.5206,2.6215,2.6677,2.7182,2.8241,2.8533,2.823,2.7933,2.798,2.8356,2.8547,2.8926,2.9201,2.934,2.9418,2.9457,2.9501,2.9593,2.9606,2.9645,2.9724,2.992,3.0093,3.0249,3.0236,3.0179,2.998,2.9698,2.9632,2.9606,2.9567,2.9449,2.9044,2.9048,2.9149,2.9004,2.8844,2.8887,2.8959,2.8674,2.8459,2.8339,2.8329,2.8419,2.8608,2.8962,2.9142,2.9394,2.9474,2.9587,3.0139,3.0161,3.0119,3.0296,3.0737,3.119,3.1137,3.1078,3.131,3.1522,3.1694,3.182,3.1915,3.2037,3.2187,3.2187,3.2187,3.2187,3.2187,3.2187,1.7309,1.7309,1.7309,1.7309,1.7309,1.7309,1.7309,1.7309,1.7309,1.7309,1.7333,1.7489,1.7629,1.7878,1.885,2.0565,2.2195,2.3171,2.3799,2.4293,2.4454,2.4507,2.4507,2.4507,2.4507,2.4507,2.4507,2.4507,2.4507,2.4507,2.4507,2.4476,2.4425,2.4374,2.4343,2.4301,2.4167,2.4074,2.3919,2.3908,2.4032,2.395,2.3961,2.443,2.4632,2.5071,2.536,2.5709,2.6159,2.6982,2.7143,2.7661,2.8293,2.8804,2.9086,2.917,2.9327,2.9622,2.9897,2.9975,3.0255,3.0555,3.0613,3.0626,3.0639,3.0658,3.06,3.0691,3.0777,3.0817,3.083,3.0613,3.0691,3.0678,3.06,3.0587,3.0508,3.0137,2.964,2.962,2.9402,2.9219,2.9307,2.935,2.9174,2.9015,2.8957,2.8978,2.9074,2.9264,2.9542,2.9643,2.9704,2.9731,2.9753,3.0493,3.0886,3.0712,3.0842,3.1168,3.1503,3.1551,3.1633,3.1721,3.1848,3.1974,3.2101,3.22,3.2187,3.2187,3.2187,3.2187,3.2187,3.2187,3.2187,1.7309,1.7309,1.7309,1.7309,1.7309,1.7309,1.7309,1.7309,1.7309,1.7309,1.7309,1.7309,1.7309,1.752,1.8032,1.953,2.1141,2.2692,2.3302,2.3799,2.4229,2.4507,2.4507,2.4507,2.4507,2.4507,2.4507,2.4507,2.4507,2.4507,2.4507,2.4497,2.4507,2.4507,2.4497,2.4466,2.4507,2.4456,2.4322,2.4291,2.4476,2.4291,2.4363,2.4491,2.4703,2.4964,2.5396,2.5519,2.6089,2.6913,2.7538,2.8116,2.8731,2.9354,2.9806,2.9702,2.9876,3.0137,3.0497,3.0581,3.0712,3.0914,3.1005,3.1005,3.1005,3.0966,3.1005,3.1005,3.1005,3.1005,3.0979,3.1005,3.1005,3.1005,3.1005,3.1005,3.094,3.0712,3.0417,3.0064,2.9894,2.9794,2.9737,2.9725,2.9643,2.9591,2.9552,2.9619,2.9693,2.9856,3.0046,3.0081,3.0138,3.0257,3.0231,3.0652,3.1182,3.1114,3.1126,3.1452,3.1614,3.1564,3.1711,3.1878,3.2036,3.2036,3.2182,3.2187,3.2187,3.2187,3.2187,3.2187,3.2187,3.2187,3.2187,1.7309,1.7309,1.7309,1.7309,1.7309,1.7309,1.7309,1.7309,1.7309,1.7309,1.7309,1.7309,1.7326,1.7473,1.7877,1.8727,2.0076,2.1898,2.2582,2.328,2.3799,2.4229,2.4486,2.4507,2.4507,2.4507,2.4507,2.4507,2.4507,2.4507,2.4507,2.4507,2.4507,2.4507,2.4507,2.4507,2.4507,2.4507,2.4507,2.4507,2.4507,2.4507,2.4507,2.4507,2.4507,2.4818,2.5294,2.5388,2.5876,2.6658,2.7463,2.8263,2.8819,2.9561,2.9935,2.9987,3.0421,3.074,3.0861,3.0966,3.094,3.1005,3.1005,3.1005,3.1005,3.1005,3.1005,3.1005,3.1005,3.1005,3.1005,3.1005,3.1005,3.1005,3.1005,3.1005,3.1005,3.0927,3.0914,3.0665,3.0477,3.0359,3.0268,3.0294,3.0244,3.0205,3.0173,3.0146,3.0217,3.0299,3.043,3.0472,3.0577,3.0792,3.0818,3.0763,3.1091,3.1119,3.1109,3.1283,3.1397,3.1466,3.1651,3.1798,3.1743,3.1767,3.1968,3.2187,3.2187,3.2187,3.2187,3.2187,3.2187,3.2187,3.2187,1.7309,1.7309,1.7309,1.7309,1.7309,1.7309,1.7309,1.7309,1.7309,1.7309,1.7309,1.7309,1.7426,1.7698,1.8125,1.905,2.0008,2.0678,2.1632,2.2626,2.3205,2.3777,2.4368,2.4507,2.4507,2.4507,2.4507,2.4507,2.4507,2.4507,2.4507,2.4507,2.4507,2.4507,2.4507,2.4507,2.4507,2.4507,2.4507,2.4507,2.4507,2.4507,2.4507,2.4507,2.4518,2.4561,2.4807,2.4861,2.5179,2.584,2.609,2.7078,2.8403,2.87,2.8944,2.937,3.0031,3.0698,3.0628,3.0836,3.0968,3.0968,3.0986,3.1005,3.1005,3.1005,3.1005,3.1005,3.1005,3.1005,3.1005,3.1005,3.1005,3.1005,3.1005,3.1005,3.1005,3.1005,3.1005,3.0992,3.0725,3.0777,3.0796,3.083,3.0869,3.0817,3.0783,3.0704,3.0665,3.0704,3.0712,3.0738,3.0751,3.094,3.1005,3.1005,3.1024,3.108,3.1118,3.1123,3.1211,3.1323,3.1453,3.1545,3.1495,3.1601,3.1895,3.2091,3.215,3.2128,3.2055,3.2109,3.2187,3.2187,3.2128,1.7309,1.7309,1.7309,1.7309,1.7309,1.7309,1.7309,1.7309,1.7309,1.7309,1.7309,1.7309,1.7527,1.7908,1.8187,1.8689,1.9446,2.0008,2.0656,2.1734,2.2517,2.328,2.3734,2.4229,2.4507,2.4507,2.4507,2.4507,2.4507,2.4507,2.4507,2.4507,2.4507,2.4507,2.4507,2.4507,2.4507,2.4507,2.4507,2.4507,2.4507,2.4507,2.4507,2.4507,2.4507,2.4507,2.4507,2.4529,2.4636,2.5158,2.5442,2.611,2.6996,2.7424,2.7819,2.7968,2.8486,2.9101,2.9697,3.0375,3.0685,3.0855,3.0911,3.1005,3.1005,3.1005,3.1005,3.1005,3.1005,3.1005,3.1005,3.1005,3.1005,3.1005,3.1005,3.1005,3.1005,3.1005,3.1005,3.1005,3.1005,3.1005,3.1005,3.0992,3.0966,3.094,3.0901,3.0874,3.0861,3.0887,3.0914,3.094,3.0953,3.0992,3.1005,3.1005,3.1005,3.1043,3.1043,3.1061,3.108,3.1174,3.1304,3.1365,3.1365,3.1545,3.1835,3.1872,3.1872,3.1872,3.1867,3.1908,3.1945,3.1872,3.184,1.7309,1.7309,1.7309,1.7309,1.7309,1.7309,1.7309,1.7309,1.7309,1.7309,1.7333,1.738,1.7637,1.7947,1.8087,1.8388,1.8804,1.9523,2.0008,2.0746,2.1623,2.257,2.3193,2.3842,2.4229,2.4507,2.4507,2.4507,2.4507,2.4507,2.4507,2.4507,2.4507,2.4507,2.4507,2.4507,2.4507,2.4507,2.4507,2.4507,2.4507,2.4507,2.4507,2.4507,2.4507,2.4507,2.4507,2.4507,2.4518,2.4679,2.5062,2.5568,2.6048,2.6524,2.6771,2.6976,2.7363,2.7738,2.8478,2.9218,3.0088,3.0425,3.0761,3.0911,3.1005,3.1005,3.1005,3.1005,3.1005,3.1005,3.1005,3.1005,3.1005,3.1005,3.1005,3.1005,3.1005,3.1005,3.1005,3.1005,3.1005,3.1005,3.1005,3.1005,3.1005,3.1005,3.1005,3.1005,3.1005,3.1005,3.1005,3.1005,3.1005,3.1005,3.1005,3.1005,3.1005,3.1005,3.1005,3.1005,3.1043,3.108,3.1174,3.1198,3.1254,3.1347,3.1545,3.1559,3.159,3.1683,3.172,3.1664,3.1633,3.159,3.1656,1.7309,1.7309,1.7309,1.7309,1.7309,1.7309,1.7309,1.7309,1.7309,1.7309,1.7333,1.7527,1.7651,1.7791,1.8001,1.8234,1.8527,1.8597,1.9279,1.9962,2.0579,2.1556,2.2429,2.3117,2.3681,2.4293,2.4454,2.4507,2.4507,2.4507,2.4507,2.4507,2.4507,2.4507,2.4507,2.4507,2.4507,2.4507,2.4507,2.4507,2.4507,2.4507,2.4507,2.4507,2.4507,2.4507,2.4507,2.4507,2.4507,2.4507,2.4679,2.502,2.5505,2.5767,2.5892,2.6018,2.6421,2.6597,2.6833,2.8048,2.9042,2.9484,2.9922,3.052,3.0748,3.0911,3.0968,3.0986,3.1005,3.1005,3.1005,3.1005,3.1005,3.1005,3.1005,3.1005,3.1005,3.1005,3.1005,3.1005,3.1005,3.1005,3.1005,3.1005,3.1005,3.1005,3.1005,3.1005,3.1005,3.1005,3.1005,3.1005,3.1005,3.1005,3.1005,3.1005,3.1005,3.1005,3.1005,3.1005,3.1024,3.1043,3.108,3.1118,3.1161,3.1216,3.1254,3.1323,3.1429,3.154,3.1559,3.1447,3.1493,3.1551,3.1651,1.7309,1.7309,1.7309,1.7309,1.7309,1.7309,1.7309,1.7309,1.7309,1.7309,1.7309,1.7403,1.7551,1.7698,1.7791,1.8094,1.8458,1.8489,1.892,1.9423,2.0068,2.0714,2.161,2.2495,2.3323,2.3712,2.4121,2.4507,2.4507,2.4486,2.4507,2.4507,2.4507,2.4507,2.4507,2.4507,2.4507,2.4507,2.4507,2.4507,2.4507,2.4507,2.4507,2.4507,2.4507,2.4507,2.4507,2.4507,2.4507,2.4507,2.4507,2.4764,2.5009,2.5062,2.5084,2.5084,2.5516,2.5411,2.5537,2.6874,2.8148,2.8505,2.892,2.942,3.0063,3.0177,3.0545,3.0766,3.0949,3.0861,3.1005,3.1005,3.1005,3.1005,3.1005,3.1005,3.1005,3.1005,3.1005,3.1005,3.1005,3.1005,3.1005,3.1005,3.1005,3.1005,3.1005,3.1005,3.1005,3.1005,3.1005,3.1005,3.1005,3.1005,3.1005,3.1005,3.1005,3.1005,3.1005,3.1005,3.1005,3.1005,3.1043,3.108,3.108,3.1118,3.1136,3.1174,3.1243,3.1317,3.1267,3.1192,3.1288,3.1447,3.1567,1.7309,1.7309,1.7309,1.7309,1.7309,1.7309,1.7309,1.7309,1.7309,1.7309,1.7309,1.7309,1.7403,1.7551,1.7698,1.7931,1.8311,1.8481,1.8635,1.9012,1.9469,1.9985,2.0678,2.1431,2.224,2.2768,2.3572,2.4046,2.4003,2.4347,2.4486,2.4507,2.4507,2.4507,2.4507,2.4507,2.4507,2.4507,2.4507,2.4507,2.4507,2.4507,2.4507,2.4507,2.4507,2.4507,2.4507,2.4507,2.4507,2.4507,2.4507,2.4507,2.4529,2.4507,2.4507,2.4507,2.4507,2.4507,2.4956,2.5883,2.7261,2.7855,2.7976,2.8454,2.8868,2.9174,2.9427,3.0292,3.0457,3.0621,3.0823,3.1005,3.1005,3.1005,3.1005,3.1005,3.1005,3.1005,3.1005,3.1005,3.1005,3.1005,3.1005,3.1005,3.1005,3.1005,3.1005,3.1005,3.1005,3.1005,3.1005,3.1005,3.1005,3.1005,3.1005,3.1005,3.1005,3.1005,3.1005,3.1005,3.1005,3.1005,3.1005,3.1024,3.1043,3.1005,3.1043,3.1099,3.1061,3.1043,3.1043,3.1061,3.108,3.1245,3.1357,1.7309,1.7309,1.7309,1.7309,1.7309,1.7309,1.7309,1.7309,1.7309,1.7309,1.7309,1.7309,1.7309,1.738,1.7558,1.7838,1.8133,1.8381,1.8589,1.885,1.9027,1.95,2.0016,2.061,2.123,2.185,2.2755,2.3389,2.328,2.4133,2.4433,2.4507,2.4507,2.4507,2.4507,2.4507,2.4507,2.4507,2.4507,2.4507,2.4507,2.4507,2.4507,2.4507,2.4507,2.4507,2.4507,2.4507,2.4507,2.4507,2.4507,2.4507,2.4507,2.4507,2.4507,2.4507,2.4507,2.4507,2.4604,2.54,2.6235,2.7037,2.7037,2.7412,2.7743,2.7972,2.8382,2.9349,2.9633,3.0082,3.0527,3.0986,3.0986,3.1005,3.1005,3.1005,3.1005,3.1005,3.1005,3.1005,3.1005,3.1005,3.1005,3.1005,3.1005,3.1005,3.1005,3.1005,3.1005,3.1005,3.1005,3.1005,3.1005,3.1005,3.1005,3.1005,3.1005,3.1005,3.1005,3.1005,3.1005,3.1005,3.1005,3.1005,3.1005,3.1005,3.1005,3.1024,3.1005,3.1005,3.1005,3.1024,3.1005,3.1075,3.125,1.7309,1.7309,1.7309,1.7309,1.7309,1.7309,1.7309,1.7309,1.7309,1.7309,1.7309,1.7309,1.7309,1.7333,1.7426,1.7691,1.8063,1.8149,1.8388,1.8758,1.8781,1.8943,1.9409,1.9962,2.0407,2.1118,2.212,2.2965,2.3149,2.3842,2.4368,2.4507,2.4454,2.4507,2.4507,2.4507,2.4507,2.4507,2.4507,2.4507,2.4507,2.4507,2.4507,2.4507,2.4507,2.4507,2.4507,2.4507,2.4507,2.4507,2.4507,2.4507,2.4507,2.4507,2.4507,2.4507,2.4507,2.4507,2.4518,2.4882,2.5158,2.5663,2.5945,2.6256,2.6748,2.7066,2.7654,2.8394,2.8947,2.9485,3.0043,3.0697,3.0879,3.0986,3.1005,3.1005,3.1005,3.1005,3.1005,3.1005,3.1005,3.1005,3.1005,3.1005,3.1005,3.1005,3.1005,3.1005,3.1005,3.1005,3.1005,3.1005,3.1005,3.1005,3.1005,3.1005,3.1005,3.1005,3.1005,3.1005,3.1005,3.1005,3.1005,3.1005,3.1005,3.1005,3.1005,3.1005,3.1005,3.1005,3.1005,3.1005,3.1005,3.1106,3.1258,1.7309,1.7309,1.7309,1.7309,1.7309,1.7309,1.7309,1.7309,1.7309,1.7309,1.7309,1.7309,1.7309,1.7326,1.7426,1.7551,1.7947,1.8087,1.8156,1.8581,1.8674,1.872,1.8989,1.9386,1.9629,2.0249,2.1163,2.2053,2.1987,2.3006,2.3582,2.3917,2.4336,2.4475,2.4507,2.4507,2.4507,2.4507,2.4507,2.4507,2.4507,2.4507,2.4507,2.4507,2.4507,2.4507,2.4507,2.4507,2.4507,2.4507,2.4507,2.4507,2.4507,2.4507,2.4507,2.4507,2.4507,2.4507,2.4518,2.4518,2.4764,2.4882,2.4743,2.5084,2.5673,2.583,2.6472,2.7238,2.8132,2.8679,2.9174,2.9877,3.012,3.0158,3.0209,3.0171,3.0196,3.0139,3.0508,3.0564,3.0968,3.0968,3.1005,3.1005,3.1005,3.1005,3.1005,3.1005,3.1005,3.1005,3.1005,3.1005,3.1005,3.1005,3.1005,3.1005,3.1005,3.1005,3.1005,3.1005,3.1005,3.1005,3.1005,3.1005,3.1005,3.1005,3.1005,3.1005,3.1005,3.1005,3.1005,3.1005,3.1005,3.1106,3.1221,1.7309,1.7309,1.7309,1.7309,1.7309,1.7309,1.7309,1.7309,1.7309,1.7309,1.7309,1.7309,1.7309,1.7356,1.7551,1.7675,1.7745,1.797,1.8087,1.8203,1.8396,1.845,1.8535,1.8781,1.9004,1.9256,1.9985,2.0939,2.0543,2.1708,2.2536,2.3193,2.3928,2.425,2.4411,2.4507,2.4507,2.4507,2.4507,2.4507,2.4507,2.4507,2.4507,2.4507,2.4507,2.4507,2.4507,2.4507,2.4507,2.4507,2.4507,2.4507,2.4507,2.4507,2.4507,2.4507,2.4507,2.4507,2.4507,2.4507,2.4507,2.4583,2.454,2.4572,2.469,2.4988,2.5526,2.6048,2.6748,2.734,2.7924,2.8275,2.8592,2.8664,2.8755,2.8782,2.8841,2.9096,2.9595,3.0043,3.0678,3.0911,3.0986,3.1005,3.1005,3.1005,3.1005,3.1005,3.1005,3.1005,3.1005,3.1005,3.1005,3.1005,3.1005,3.1005,3.1005,3.1005,3.1005,3.1005,3.1005,3.1005,3.1005,3.1005,3.1005,3.1005,3.1005,3.1005,3.1005,3.1005,3.1005,3.1005,3.1005,3.1005,3.1088,1.7309,1.7309,1.7309,1.7309,1.7309,1.7309,1.7309,1.7309,1.7309,1.7309,1.7309,1.7309,1.7309,1.7309,1.738,1.7527,1.7667,1.7784,1.7947,1.8063,1.8133,1.8187,1.8303,1.8442,1.8566,1.8966,1.9569,2.0167,2.0484,2.1204,2.2116,2.3084,2.341,2.3842,2.425,2.4507,2.4507,2.4507,2.4507,2.4507,2.4507,2.4507,2.4507,2.4507,2.4507,2.4507,2.4507,2.4507,2.4507,2.4507,2.4507,2.4507,2.4507,2.4507,2.4507,2.4507,2.4507,2.4507,2.4507,2.4507,2.4507,2.4507,2.4507,2.4507,2.4561,2.4679,2.4924,2.5316,2.5777,2.6492,2.7005,2.7319,2.7654,2.7867,2.7939,2.7968,2.8068,2.8347,2.8893,2.9819,3.047,3.093,3.1005,3.1005,3.1005,3.1005,3.1005,3.1005,3.1005,3.1005,3.1005,3.1005,3.1005,3.1005,3.1005,3.1005,3.1005,3.1005,3.1005,3.1005,3.1005,3.1005,3.1005,3.1005,3.1005,3.1005,3.1005,3.1005,3.1005,3.1005,3.1005,3.1005,3.1005,3.1005,3.1005,1.7309,1.7309,1.7309,1.7309,1.7309,1.7309,1.7309,1.7309,1.7309,1.7309,1.7309,1.7309,1.7309,1.7309,1.7309,1.738,1.7504,1.752,1.7613,1.7707,1.79,1.7931,1.8024,1.8195,1.8311,1.8697,1.9035,1.9432,1.9903,2.0619,2.1507,2.1898,2.2495,2.3335,2.3832,2.4219,2.4507,2.4507,2.4507,2.4507,2.4507,2.4507,2.4507,2.4507,2.4507,2.4507,2.4507,2.4507,2.4507,2.4507,2.4507,2.4507,2.4507,2.4507,2.4507,2.4507,2.4507,2.4507,2.4507,2.4507,2.4507,2.4507,2.4507,2.4507,2.454,2.4615,2.47,2.4882,2.5348,2.5809,2.6214,2.6607,2.6967,2.7325,2.7345,2.7334,2.7516,2.7698,2.8537,2.9568,3.0266,3.0804,3.1005,3.1005,3.1005,3.1005,3.1005,3.1005,3.1005,3.1005,3.1005,3.1005,3.1005,3.1005,3.1005,3.1005,3.1005,3.1005,3.1005,3.1005,3.1005,3.1005,3.1005,3.1005,3.1005,3.1005,3.1005,3.1005,3.1005,3.1005,3.1005,3.1005,3.1005,3.1005,3.1005,1.7309,1.7309,1.7309,1.7309,1.7309,1.7309,1.7309,1.7309,1.7309,1.7309,1.7309,1.7309,1.7309,1.7309,1.7309,1.7309,1.7356,1.738,1.738,1.7326,1.7574,1.7675,1.7768,1.7955,1.8094,1.8187,1.8442,1.8897,1.8951,1.9615,2.028,2.0385,2.181,2.278,2.3335,2.3864,2.4229,2.4507,2.4507,2.4507,2.4507,2.4507,2.4507,2.4507,2.4507,2.4507,2.4507,2.4507,2.4507,2.4507,2.4507,2.4507,2.4507,2.4507,2.4507,2.4507,2.4507,2.4507,2.4507,2.4507,2.4507,2.4507,2.4507,2.4507,2.4518,2.454,2.4583,2.4583,2.5009,2.5232,2.5558,2.5715,2.5998,2.6289,2.6404,2.6445,2.6569,2.7071,2.8059,2.9081,2.9947,3.0489,3.1005,3.1005,3.1005,3.1005,3.1005,3.1005,3.0986,3.0986,3.1005,3.1005,3.1005,3.1005,3.1005,3.1005,3.1005,3.1005,3.1005,3.1005,3.1005,3.1005,3.1005,3.1005,3.1005,3.1005,3.1005,3.1005,3.1005,3.1005,3.1005,3.1005,3.1005,3.1005,3.1005,1.7309,1.7309,1.7309,1.7309,1.7309,1.7309,1.7309,1.7309,1.7309,1.7309,1.7309,1.7309,1.7309,1.7309,1.7309,1.7309,1.7309,1.7309,1.7309,1.7309,1.741,1.7457,1.7457,1.7691,1.79,1.8141,1.8357,1.8566,1.8789,1.9165,1.9606,2.0235,2.123,2.1823,2.2943,2.3485,2.396,2.4454,2.4507,2.4507,2.4507,2.4507,2.4507,2.4507,2.4507,2.4507,2.4507,2.4507,2.4507,2.4507,2.4507,2.4507,2.4507,2.4507,2.4507,2.4507,2.4507,2.4507,2.4507,2.4507,2.4507,2.4507,2.4507,2.4507,2.4507,2.4507,2.4507,2.4507,2.4561,2.4743,2.4892,2.4977,2.5105,2.5338,2.5559,2.5601,2.5696,2.661,2.7609,2.8478,2.9452,3.0101,3.064,3.0879,3.1005,3.1005,3.1005,3.0986,3.0949,3.0917,3.1005,3.1005,3.1005,3.1005,3.1005,3.1005,3.1005,3.1005,3.1005,3.1005,3.1005,3.1005,3.1005,3.1005,3.1005,3.1005,3.1005,3.1005,3.1005,3.1005,3.1005,3.1005,3.1005,3.1005,3.1005,1.7309,1.7309,1.7309,1.7309,1.7309,1.7309,1.7309,1.7309,1.7309,1.7309,1.7309,1.7309,1.7309,1.7309,1.7309,1.7309,1.7309,1.7309,1.7309,1.7309,1.7309,1.7309,1.738,1.7481,1.7667,1.7955,1.8334,1.8589,1.8758,1.8843,1.9225,1.9789,2.0272,2.132,2.257,2.3137,2.3799,2.4475,2.4411,2.4433,2.4433,2.4486,2.4507,2.4507,2.4507,2.4507,2.4507,2.4507,2.4507,2.4507,2.4507,2.4507,2.4507,2.4507,2.4507,2.4507,2.4507,2.4507,2.4507,2.4507,2.4507,2.4507,2.4507,2.4507,2.4507,2.4507,2.4507,2.4507,2.4507,2.4647,2.485,2.4946,2.5052,2.5253,2.5338,2.5401,2.5706,2.6361,2.7008,2.7504,2.8386,2.9108,2.9491,2.9517,2.9626,2.9762,2.9947,3.0381,3.047,3.0564,3.0729,3.0804,3.0659,3.0861,3.1005,3.1005,3.1005,3.1005,3.0898,3.0986,3.0973,3.1005,3.1005,3.1005,3.1005,3.1005,3.1005,3.1005,3.1005,3.1005,3.1005,3.1005,3.1005,3.1005,3.1005,1.7309,1.7309,1.7309,1.7309,1.7309,1.7309,1.7309,1.7309,1.7309,1.7309,1.7309,1.7309,1.7309,1.7309,1.7309,1.7309,1.7309,1.7309,1.7309,1.7309,1.7309,1.7309,1.7309,1.7333,1.7551,1.7815,1.8195,1.8496,1.872,1.8735,1.885,1.9165,2.0153,2.1382,2.2006,2.2831,2.3604,2.3701,2.3766,2.4046,2.4229,2.4454,2.4486,2.4507,2.4507,2.4507,2.4507,2.4507,2.4507,2.4507,2.4507,2.4507,2.4507,2.4507,2.4507,2.4507,2.4507,2.4507,2.4507,2.4507,2.4507,2.4507,2.4507,2.4507,2.4507,2.4507,2.4507,2.4507,2.4507,2.4561,2.4743,2.4871,2.4977,2.5084,2.5126,2.52,2.5642,2.607,2.6412,2.6751,2.7444,2.8219,2.8426,2.8426,2.8486,2.8565,2.8814,2.9225,2.9588,2.9723,2.9858,2.9947,2.9928,3.0247,3.0659,3.0508,3.0324,3.0583,3.0489,3.0753,3.0955,3.0986,3.1005,3.1005,3.1005,3.1005,3.1005,3.1005,3.1005,3.1005,3.1005,3.1005,3.1005,3.1005,3.1005,1.7309,1.7309,1.7309,1.7309,1.7309,1.7309,1.7309,1.7309,1.7309,1.7309,1.7309,1.7309,1.7309,1.7309,1.7309,1.7309,1.7309,1.7309,1.7309,1.7309,1.7309,1.7309,1.7333,1.7356,1.7481,1.7745,1.8055,1.8288,1.8489,1.8543,1.8658,1.8874,1.8958,1.988,2.0633,2.144,2.1974,2.2359,2.2699,2.2821,2.3606,2.395,2.4454,2.4507,2.4507,2.4507,2.4507,2.4507,2.4507,2.4507,2.4507,2.4507,2.4507,2.4507,2.4507,2.4507,2.4507,2.4507,2.4507,2.4507,2.4507,2.4507,2.4507,2.4507,2.4507,2.4507,2.4507,2.4507,2.4507,2.4507,2.4625,2.4625,2.4711,2.4754,2.4807,2.4988,2.5295,2.5632,2.5967,2.6423,2.6978,2.7617,2.8108,2.8108,2.8088,2.8187,2.8267,2.8624,2.8683,2.8841,2.905,2.9108,2.9167,2.942,2.9742,2.9362,2.9245,2.9646,3.012,3.0457,3.0735,3.0986,3.1005,3.1005,3.1005,3.1005,3.1005,3.1005,3.1005,3.1005,3.1005,3.1005,3.1005,3.1005,3.1005]},{"header":{"parameterUnit":"m.s-1","parameterCategory":1,"la1":31.0,"la2":29.5877,"lo1":-88.7671,"lo2":-86.6584,"dy":0.0162,"dx":0.0185,"nx":115,"ny":88,"refTime":"2024-11-29T12:00:00:Z","depth":0,"parameterNumber":3,"parameterNumberName":"V-component_of_WINDS"},"data":[0.0,0.0,0.0,0.0,0.0,0.0,0.0,0.0,0.0,0.0,0.0,0.0,0.0,0.0,0.0,0.0,0.0,0.0,0.0,0.0,0.0,0.0,0.0,0.0,0.0,0.0,0.0,0.0,0.0,0.0,0.0,0.0,0.0,0.0,0.0,0.0,0.0,0.0,0.0,0.0,0.0,0.0,0.0,0.0,0.0,0.0,0.0,0.0,0.0,0.0,0.0,0.0,0.0,0.0,0.0,0.0,0.0,0.0,0.0,0.0,0.0,0.0,0.0,0.0,0.0,0.0,0.0,0.0,0.0,0.0,0.0,0.0,0.0,0.0,0.0,0.0,0.0,0.0,0.0,0.0,0.0,0.0,0.0,0.0,0.0,0.0,0.0,0.0,0.0,0.0,0.0,0.0,0.0,0.0,0.0,0.0,0.0,0.0,0.0,0.0,0.0,0.0,0.0,0.0,0.0,0.0,0.0,0.0,0.0,0.0,0.0,0.0,0.0,0.0,0.0,0.0,0.0,0.0,0.0,0.0,0.0,0.0,0.0,0.0,0.0,0.0,0.0,0.0,0.0,0.0,0.0,0.0,0.0,0.0,0.0,0.0,0.0,0.0,0.0,0.0,0.0,0.0,0.0,0.0,0.0,0.0,0.0,0.0,0.0,0.0,0.0,0.0,0.0,0.0,0.0,0.0,0.0,0.0,0.0,0.0,0.0,0.0,0.0,0.0,0.0,0.0,0.0,0.0,0.0,0.0,0.0,0.0,0.0,0.0,0.0,0.0,0.0,0.0,0.0,0.0,0.0,0.0,0.0,0.0,0.0,0.0,0.0,0.0,0.0,0.0,0.0,0.0,0.0,0.0,0.0,0.0,0.0,0.0,0.0,0.0,0.0,0.0,0.0,0.0,0.0,0.0,0.0,0.0,0.0,0.0,0.0,0.0,0.0,0.0,0.0,0.0,0.0,0.0,0.0,0.0,0.0,0.0,0.0,0.0,0.0,0.0,0.0,0.0,0.0,0.0,0.0,0.0,0.0,0.0,0.0,0.0,0.0,0.0,0.0,0.0,0.0,0.0,0.0,0.0,0.0,0.0,0.0,0.0,0.0,0.0,0.0,0.0,0.0,0.0,0.0,0.0,0.0,0.0,0.0,0.0,0.0,0.0,0.0,0.0,0.0,0.0,0.0,0.0,0.0,0.0,0.0,0.0,0.0,0.0,0.0,0.0,0.0,0.0,0.0,0.0,0.0,0.0,0.0,0.0,0.0,0.0,0.0,0.0,0.0,0.0,0.0,0.0,0.0,0.0,0.0,0.0,0.0,0.0,0.0,0.0,0.0,0.0,0.0,0.0,0.0,0.0,0.0,0.0,0.0,0.0,0.0,0.0,0.0,0.0,0.0,0.0,0.0,0.0,0.0,0.0,0.0,0.0,0.0,0.0,0.0,0.0,0.0,0.0,0.0,0.0,0.0,0.0,0.0,0.0,0.0,0.0,0.0,0.0,0.0,0.0,0.0,0.0,0.0,0.0,0.0,0.0,0.0,0.0,0.0,0.0,0.0,0.0,0.0,0.0,0.0,0.0,0.0,0.0,0.0,0.0,0.0,0.0,0.0,0.0,0.0,0.0,0.0,0.0,0.0,0.0,0.0,0.0,0.0,0.0,0.0,0.0,0.0,0.0,0.0,0.0,0.0,0.0,0.0,0.0,0.0,0.0,0.0,0.0,0.0,0.0,0.0,0.0,0.0,0.0,0.0,0.0,0.0,0.0,0.0,0.0,0.0,0.0,0.0,0.0,0.0,0.0,0.0,0.0,0.0,0.0,0.0,0.0,0.0,0.0,0.0,0.0,0.0,0.0,0.0,0.0,0.0,0.0,0.0,0.0,0.0,0.0,0.0,0.0,0.0,0.0,0.0,0.0,0.0,0.0,0.0,0.0,0.0,0.0,0.0,0.0,0.0,0.0,0.0,0.0,0.0,0.0,0.0,0.0,0.0,0.0,0.0,0.0,0.0,0.0,0.0,0.0,0.0,0.0,0.0,0.0,0.0,0.0,0.0,0.0,0.0,0.0,0.0,0.0,0.0,0.0,0.0,0.0,0.0,0.0,0.0,0.0,0.0,0.0,0.0,0.0,0.0,0.0,0.0,0.0,0.0,0.0,0.0,0.0,0.0,0.0,0.0,0.0,0.0,0.0,0.0,0.0,0.0,0.0,0.0,0.0,0.0,0.0,0.0,0.0,0.0,0.0,0.0,0.0,0.0,0.0,0.0,0.0,0.0,0.0,0.0,0.0,0.0,0.0,0.0,0.0,0.0,0.0,0.0,0.0,0.0,0.0,0.0,0.0,0.0,0.0,0.0,0.0,0.0,0.0,0.0,0.0,0.0,0.0,0.0,0.0,0.0,0.0,0.0,0.0,0.0,0.0,0.0,0.0,0.0,0.0,0.0,0.0,0.0,0.0,0.0,0.0,0.0,0.0,0.0,0.0,0.0,0.0,0.0,0.0,0.0,0.0,0.0,0.0,0.0,0.0,0.0,0.0,0.0,0.0,0.0,0.0,0.0,0.0,0.0,0.0,0.0,0.0,0.0,0.0,0.0,0.0,0.0,0.0,0.0,0.0,0.0,0.0,0.0,0.0,0.0,0.0,0.0,0.0,0.0,0.0,0.0,0.0,0.0,0.0,0.0,0.0,0.0,0.0,0.0,0.0,0.0,0.0,0.0,0.0,0.0,0.0,0.0,0.0,0.0,0.0,0.0,0.0,0.0,0.0,0.0,0.0,0.0,0.0,0.0,0.0,0.0,0.0,0.0,0.0,0.0,0.0,0.0,0.0,0.0,0.0,0.0,0.0,0.0,0.0,0.0,0.0,0.0,0.0,0.0,0.0,0.0,0.0,0.0,0.0,0.0,0.0,0.0,0.0,0.0,0.0,0.0,0.0,0.0,0.0,0.0,0.0,0.0,0.0,0.0,0.0,0.0,0.0,0.0,0.0,0.0,0.0,0.0,0.0,0.0,0.0,0.0,0.0,0.0,0.0,0.0,0.0,0.0,0.0,0.0,0.0,0.0,0.0,0.0,0.0,0.0,0.0,0.0,0.0,0.0,0.0,0.0,0.0,0.0,0.0,0.0,0.0,0.0,0.0,0.0,0.0,0.0,0.0,0.0,0.0,0.0,0.0,0.0,0.0,0.0,0.0,0.0,0.0,0.0,0.0,0.0,0.0,0.0,0.0,0.0,0.0,0.0,0.0,0.0,0.0,0.0,0.0,0.0,0.0,0.0,0.0,0.0,0.0,0.0,0.0,0.0,0.0,0.0,0.0,0.0,0.0,0.0,0.0,0.0,0.0,0.0,0.0,0.0,0.0,0.0,0.0,0.0,0.0,0.0,0.0,0.0,0.0,0.0,0.0,0.0,0.0,0.0,0.0,0.0,0.0,0.0,0.0,0.0,0.0,0.0,0.0,0.0,0.0,0.0,0.0,0.0,0.0,0.0,0.0,0.0,0.0,0.0,0.0,0.0,0.0,0.0,0.0,0.0,0.0,0.0,0.0,0.0,0.0,0.0,0.0,0.0,0.0,0.0,0.0,0.0,0.0,0.0,0.0,0.0,0.0,0.0,0.0,0.0,0.0,0.0,0.0,0.0,0.0,0.0,0.0,0.0,0.0,0.0,0.0,0.0,0.0,0.0,0.0,0.0,0.0,0.0,0.0,0.0,0.0,0.0,0.0,0.0,0.0,0.0,0.0,0.0,0.0,0.0,0.0,0.0,0.0,0.0,0.0,0.0,0.0,0.0,0.0,0.0,0.0,0.0,0.0,0.0,0.0,0.0,0.0,0.0,0.0,0.0,0.0,0.0,0.0,0.0,0.0,0.0,0.0,0.0,0.0,0.0,0.0,0.0,0.0,0.0,0.0,0.0,0.0,0.0,0.0,0.0,0.0,0.0,0.0,0.0,0.0,0.0,0.0,0.0,0.0,0.0,0.0,0.0,0.0,0.0,0.0,0.0,0.0,0.0,0.0,0.0,0.0,0.0,0.0,0.0,0.0,0.0,0.0,0.0,0.0,0.0,0.0,0.0,0.0,0.0,0.0,0.0,0.0,0.0,0.0,0.0,0.0,0.0,0.0,0.0,0.0,0.0,0.0,0.0,0.0,0.0,0.0,0.0,0.0,0.0,0.0,0.0,0.0,0.0,0.0,0.0,0.0,0.0,0.0,0.0,0.0,0.0,0.0,0.0,0.0,0.0,0.0,0.0,0.0,0.0,0.0,0.0,0.0,0.0,0.0,0.7349,0.0,0.0,0.0,0.0,0.0,0.0,0.0,0.0,0.0,0.0,0.0,0.0,0.0,0.0,0.0,0.0,0.0,0.0,0.0,0.0,0.0,0.0,0.0,0.0,0.0,0.0,0.0,0.0,0.0,0.0,0.0,0.0,0.0,0.0,0.0,0.0,0.0,0.0,0.0,0.0,0.0,0.0,0.0,0.0,0.0,0.0,0.0,0.0,0.0,0.0,0.0,0.0,0.0,0.0,0.0,0.0,0.0,0.0,0.0,0.0,0.0,0.0,0.0,0.0,0.0,0.0,0.0,0.0,0.0,0.0,0.0,0.0,0.0,0.0,0.0,0.0,0.0,0.0,0.0,0.0,0.0,0.0,0.0,0.0,0.0,0.0,0.0,0.0,0.0,0.0,0.0,0.0,0.0,0.0,0.0,0.0,0.0,0.0,0.0,0.0,0.0,0.0,0.0,0.0,0.0,0.0,0.0,0.0,0.0,0.0,0.6997,0.6977,0.6874,0.6952,0.7219,0.0,0.0,0.0,0.0,0.0,0.0,0.0,0.0,0.0,0.0,0.0,0.0,0.0,0.0,0.0,0.0,0.0,0.0,0.0,0.0,0.0,0.0,0.0,0.0,0.0,0.0,0.0,0.0,0.0,0.0,0.0,0.0,0.0,0.0,0.0,0.0,0.0,0.0,0.0,0.0,0.0,0.0,0.0,0.0,0.0,0.0,0.0,0.0,0.0,0.0,0.0,0.0,0.0,0.0,0.0,0.0,0.0,0.0,0.0,0.0,0.0,0.0,0.0,0.0,0.0,0.0,0.0,0.0,0.0,0.0,0.0,0.0,0.0,0.0,0.0,0.0,0.0,0.0,0.0,0.0,0.0,0.0,0.0,0.0,0.0,0.0,0.0,0.0,0.0,0.0,0.0,0.0,0.0,0.0,0.0,0.0,0.0,0.0,0.0,0.0,0.0,0.0,0.0,0.0,0.0,0.0,0.0,0.0,0.0,0.0,0.0,0.0,0.716,0.7288,0.7577,0.0,0.0,0.0,0.0,0.0,0.0,0.0,0.0,0.0,0.0,0.0,0.0,0.0,0.0,0.0,0.0,0.0,0.0,0.0,0.0,0.0,0.0,0.0,0.0,0.0,0.0,0.0,0.0,0.0,0.0,0.0,0.0,0.0,0.0,0.0,0.0,0.0,0.0,0.0,0.0,0.0,0.0,0.0,0.0,0.0,0.0,0.0,0.0,0.0,0.0,0.0,0.0,0.0,0.0,0.0,0.0,0.0,0.0,0.0,0.0,0.0,0.0,0.0,0.0,0.0,0.0,0.0,0.0,0.0,0.0,0.0,0.0,0.0,0.0,0.0,0.0,0.0,0.0,0.0,0.0,0.0,0.0,0.0,0.0,0.0,0.0,0.0,0.0,0.0,0.0,0.0,0.0,0.0,0.0,0.0,0.0,0.0,0.0,0.0,0.0,0.0,0.0,0.0,0.0,0.0,0.0,0.0,0.0,0.0,0.0,0.7112,0.8051,0.8521,0.0,0.9095,0.0,0.0,0.0,0.0,0.0,0.0,0.0,0.0,0.0,0.0,0.0,0.0,0.0,0.0,0.0,0.0,0.0,0.0,0.0,0.0,0.0,0.0,0.0,0.0,0.0,0.0,0.0,0.0,0.0,0.0,0.0,0.0,0.0,0.0,0.0,0.0,0.0,0.0,0.0,0.0,0.0,0.0,0.0,0.0,0.0,0.0,0.0,0.0,0.0,0.0,0.0,0.0,0.0,0.0,0.0,0.0,0.0,0.0,0.0,0.0,0.0,0.0,0.0,0.0,0.0,0.0,0.0,0.0,0.0,0.0,0.0,0.0,0.0,0.0,0.0,0.0,0.0,0.0,0.0,0.0,0.0,0.0,0.0,0.0,0.0,0.0,0.0,0.0,0.0,0.0,0.0,0.0,0.0,0.0,0.0,0.0,0.0,0.0,0.0,0.0,0.0,0.0,0.0,0.0,0.0,0.0,0.0,0.0,0.0,0.0,0.0,0.8659,0.9003,0.9076,0.0,0.0,0.0,0.0,0.0,0.0,0.0,0.0,0.0,0.0,0.0,0.0,0.0,0.0,0.0,0.0,0.0,0.0,0.0,0.0,0.0,0.0,0.0,0.0,0.0,0.0,0.0,0.0,0.0,0.0,0.0,0.0,0.0,0.0,0.0,0.0,0.0,0.0,0.0,0.0,0.0,0.0,0.0,0.0,0.0,0.0,0.0,0.0,0.0,0.0,0.0,0.0,0.0,0.0,0.0,0.0,0.0,0.0,0.0,0.0,0.0,0.0,0.0,0.0,0.0,0.0,0.0,0.0,0.0,0.0,0.0,0.0,0.0,0.0,0.0,0.0,0.0,0.0,0.0,0.0,0.0,0.0,0.0,0.0,0.0,0.0,0.0,0.0,0.0,0.0,0.0,0.0,0.0,0.0,0.0,0.0,0.0,0.0,0.0,0.0,0.0,0.0,0.0,0.0,0.0,0.0,0.0,0.0,0.0,0.0,0.8282,0.0,0.9338,0.9543,0.9364,0.8735,0.0,0.0,0.0,0.0,0.0,0.0,0.0,0.0,0.0,0.0,0.0,0.0,0.0,0.0,0.0,0.0,0.0,0.0,0.0,0.0,0.0,0.0,0.0,0.0,0.0,0.0,0.0,0.0,0.0,0.0,0.0,0.0,0.0,0.0,0.0,0.0,0.0,0.0,0.0,0.0,0.0,0.0,0.0,0.0,0.0,0.0,0.0,0.0,0.0,0.0,0.0,0.0,0.0,0.0,0.0,0.0,0.0,0.0,0.0,0.0,0.0,0.0,0.0,0.0,0.0,0.0,0.0,0.0,0.0,0.0,0.0,0.0,0.0,0.0,0.0,0.0,0.0,0.0,0.0,0.0,0.0,0.0,0.0,0.0,0.0,0.0,0.0,0.0,0.0,0.0,0.0,0.0,0.0,0.0,0.0,0.0,0.0,0.0,0.0,0.0,0.0,0.0,0.0,0.0,0.0,0.0,0.0,0.0,0.0,0.8538,0.8692,1.0186,1.0441,1.0128,0.0,0.0,0.0,0.0,0.0,0.0,0.0,0.0,0.0,0.0,0.0,0.0,0.0,0.0,0.0,0.0,0.0,0.0,0.0,0.0,0.0,0.0,0.0,0.0,0.0,0.0,0.0,0.0,0.0,0.0,0.0,0.0,0.0,0.0,0.0,0.0,0.0,0.0,0.0,0.0,0.0,0.0,0.0,0.0,0.0,0.0,0.0,0.0,0.0,0.0,0.0,0.0,0.0,0.0,0.0,0.0,0.0,0.0,0.0,0.0,0.0,0.0,0.0,0.0,0.0,0.0,0.0,0.0,0.0,0.0,0.0,0.0,0.0,0.0,0.0,0.0,0.0,0.0,0.0,0.0,0.0,0.0,0.0,0.0,0.0,0.0,0.0,0.0,0.0,0.0,0.0,0.0,0.0,0.0,0.0,0.0,0.0,0.0,0.0,0.0,0.0,0.0,0.0,0.0,0.0,0.0,0.0,0.0,0.0,0.7533,0.8114,0.9336,1.1183,1.0326,0.9753,0.0,0.0,0.0,0.0,0.0,0.0,0.0,0.0,0.0,0.0,0.0,0.0,0.0,0.0,0.0,0.0,0.0,0.0,0.0,0.0,0.0,0.0,0.0,0.0,0.0,0.0,0.0,0.0,0.0,0.0,0.0,0.0,0.0,0.0,0.0,0.0,0.0,0.0,0.0,0.0,0.0,0.0,0.0,0.0,0.0,0.0,0.0,0.0,0.0,0.0,0.0,0.0,0.0,0.0,0.0,0.0,0.0,0.0,0.0,0.0,0.0,0.0,0.0,0.0,0.0,0.0,0.0,0.0,0.0,0.0,0.0,0.0,0.0,0.0,0.0,0.0,0.0,0.0,0.0,0.0,0.0,0.0,0.0,0.0,0.0,0.0,0.0,0.0,0.0,0.0,0.0,0.0,0.0,0.0,0.0,0.0,0.0,0.0,0.0,0.0,0.0,0.0,0.0,0.0,0.0,0.0,0.0,0.0,0.0,0.7432,0.0,1.0034,0.0,1.0199,0.9452,0.0,0.0,0.0,0.0,0.0,0.0,0.0,0.0,0.0,0.0,0.0,0.0,0.0,0.0,0.0,0.0,0.0,0.0,0.0,0.0,0.0,0.0,0.0,0.0,0.0,0.0,0.0,0.0,0.0,0.0,0.0,0.0,0.0,0.0,0.0,0.0,0.0,0.0,0.0,0.0,0.0,0.0,0.0,0.0,0.0,0.0,0.0,0.0,0.0,0.0,0.0,0.0,0.0,0.0,0.0,0.0,0.0,0.0,0.0,0.0,0.0,0.0,0.0,0.0,0.0,0.0,0.0,0.0,0.0,0.0,0.0,0.0,0.0,0.0,0.0,0.0,0.0,0.0,0.0,0.0,0.0,0.0,0.0,0.0,0.0,0.0,0.0,0.0,0.0,0.0,0.0,0.0,0.0,0.0,0.0,0.0,0.0,0.0,0.0,0.0,0.0,0.0,0.0,0.0,0.0,0.0,0.0,0.0,0.7651,0.9659,1.0544,1.0629,0.9883,1.0089,0.9274,0.0,0.0,0.0,0.0,0.0,0.0,0.0,0.0,0.0,0.0,0.0,0.0,0.0,0.0,0.0,0.0,0.0,0.0,0.0,0.0,0.0,0.0,0.0,0.0,0.0,0.0,0.0,0.0,0.0,0.0,0.0,0.0,0.0,0.0,0.0,0.0,0.0,0.0,0.0,0.0,0.0,0.0,0.0,0.0,0.0,0.0,0.0,0.0,0.0,0.0,0.0,0.0,0.0,0.0,0.0,0.0,0.0,0.0,0.0,0.0,0.0,0.0,0.0,0.0,0.0,0.0,0.0,0.0,0.0,0.0,0.0,0.0,0.0,0.0,0.0,0.0,0.0,0.0,0.0,0.0,0.0,0.0,0.0,0.0,0.0,0.0,0.0,0.0,0.0,0.0,0.0,0.0,0.0,0.0,0.0,0.0,0.0,0.0,0.0,0.0,0.0,0.0,0.0,0.0,0.0,0.0,0.0,0.0,0.0,0.8713,0.9503,1.0351,1.1145,0.9724,0.9107,0.0,0.0,0.0,0.0,0.0,0.0,0.0,0.0,0.0,0.0,0.0,0.0,0.0,0.0,0.0,0.0,0.0,0.0,0.0,0.0,0.0,0.0,0.0,0.0,0.0,0.0,0.0,0.0,0.0,0.0,0.0,0.0,0.0,0.0,0.0,0.0,0.0,0.0,0.0,0.0,0.0,0.0,0.0,0.0,0.0,0.0,0.0,0.0,0.0,0.0,0.0,0.0,0.0,0.0,0.0,0.0,0.0,0.0,0.0,0.0,0.0,0.0,0.0,0.0,0.0,0.0,0.0,0.0,0.0,0.0,0.0,0.0,0.0,0.0,0.0,0.0,0.0,0.0,0.0,0.0,0.0,0.0,0.0,0.0,0.0,0.0,0.0,0.0,0.0,0.0,0.0,0.0,0.0,0.0,0.0,0.0,0.0,0.0,0.0,0.0,0.0,0.0,0.0,0.0,0.0,0.0,0.0,0.0,0.0,1.0071,1.0533,1.1115,1.1744,0.9918,0.916,0.9605,0.0,0.0,0.0,0.0,0.0,0.0,0.0,0.0,0.0,0.0,0.0,0.0,0.0,0.0,0.0,0.0,0.0,0.0,0.0,0.0,0.0,0.0,0.0,0.0,0.0,0.0,0.0,0.0,0.0,0.0,0.0,0.0,0.0,0.0,0.0,0.0,0.0,0.0,0.0,0.0,0.0,0.0,0.0,0.0,0.0,0.0,0.0,0.0,0.0,0.0,0.0,0.0,0.0,0.0,0.0,0.0,0.0,0.0,0.0,0.0,0.0,0.0,0.0,0.0,0.0,0.0,0.0,0.0,0.0,0.0,0.0,0.0,0.0,0.0,0.0,0.0,0.0,0.0,0.0,0.0,0.0,0.0,0.0,0.0,0.0,0.0,0.0,0.0,0.0,0.0,0.0,0.0,0.0,0.0,0.0,0.0,0.0,0.0,0.0,0.0,0.0,0.0,0.0,0.0,0.0,0.0,0.0,0.0,1.3206,1.3299,1.2838,1.1776,1.0703,0.952,0.0,0.0,0.0,0.0,0.0,0.0,0.0,0.0,0.0,0.0,0.0,0.0,0.0,0.0,0.0,0.0,0.0,0.0,0.0,0.0,0.0,0.0,0.0,0.0,0.0,0.0,0.0,0.0,0.0,0.0,0.0,0.0,0.0,0.0,0.0,0.0,0.0,0.0,0.0,0.0,0.0,0.0,0.0,0.0,0.0,0.0,0.0,0.0,0.0,0.0,0.0,0.0,0.0,0.0,0.0,0.0,0.0,0.0,0.0,0.0,0.0,0.0,0.0,0.0,0.0,0.0,0.0,0.0,0.0,0.0,0.0,0.0,0.0,0.0,0.0,0.0,0.0,0.0,0.0,0.0,0.0,0.0,0.0,0.0,0.0,0.0,0.0,0.0,0.0,0.0,0.0,0.0,0.0,0.0,0.0,0.0,0.0,0.0,0.0,0.0,0.0,0.0,0.0,0.0,0.0,0.0,0.0,0.0,0.0,1.4528,1.5077,1.4989,1.4227,1.2441,1.1119,0.0,0.0,0.0,0.0,0.0,0.0,0.0,0.0,0.0,0.0,0.0,0.0,0.0,0.0,0.0,0.0,0.0,0.0,0.0,0.0,0.0,0.0,0.0,0.0,0.0,0.0,0.0,0.0,0.0,0.0,0.0,0.0,0.0,0.0,0.0,0.0,0.0,0.0,0.0,0.0,0.0,0.0,0.0,0.0,0.0,0.0,0.0,0.0,0.0,0.0,0.0,0.0,0.0,0.0,0.0,0.0,0.0,0.0,0.0,0.0,0.0,0.0,0.0,0.0,0.0,0.0,0.0,0.0,0.0,0.0,0.0,0.0,0.0,0.0,0.0,0.0,0.0,0.0,0.0,0.0,0.0,0.0,0.0,0.0,0.0,0.0,0.0,0.0,0.0,0.0,0.0,0.0,0.0,0.0,0.0,0.0,0.0,0.0,0.0,0.0,0.0,0.0,0.0,0.0,0.0,0.0,0.0,0.0,1.4414,1.6106,1.6785,1.6808,1.6224,1.4101,1.2379,0.0,0.0,0.0,0.0,0.0,0.0,0.0,0.0,0.0,0.0,0.0,0.0,0.0,0.0,0.0,0.0,0.0,0.0,0.0,0.0,0.0,0.0,0.0,0.0,0.0,0.0,0.0,0.0,0.0,0.0,0.0,0.0,0.0,0.0,0.0,0.0,0.0,0.0,0.0,0.0,0.0,0.0,0.0,0.0,0.0,0.0,0.0,0.0,0.0,0.0,0.0,0.0,0.0,0.0,0.0,0.0,0.0,0.0,0.0,0.0,0.0,0.0,0.0,0.0,0.0,0.0,0.0,0.0,0.0,0.0,0.0,0.0,0.0,0.0,0.0,0.0,0.0,0.0,0.0,0.0,0.0,0.0,0.0,0.0,0.0,0.0,0.0,0.0,0.0,0.0,0.0,0.0,0.0,0.0,0.0,0.0,0.0,0.0,0.0,0.0,0.0,0.0,0.0,0.0,0.0,0.0,0.0,0.0,1.5535,1.7562,1.8199,1.8231,1.7656,1.558,1.346,0.0,0.0,0.0,0.0,0.0,0.0,0.0,0.0,0.0,0.0,0.0,0.0,0.0,0.0,0.0,0.0,0.0,0.0,0.0,0.0,0.0,0.0,0.0,0.0,0.0,0.0,0.0,0.0,0.0,0.0,0.0,0.0,0.0,0.0,0.0,0.0,0.0,0.0,0.0,0.0,0.0,0.0,0.0,0.0,0.0,0.0,0.0,0.0,0.0,0.0,0.0,0.0,0.0,0.0,0.0,0.0,0.0,0.0,0.0,0.0,0.0,0.0,0.0,0.0,0.0,0.0,0.0,0.0,0.0,0.0,0.0,0.0,0.0,0.0,0.0,0.0,0.0,0.0,0.0,0.0,0.0,0.0,0.0,0.0,0.0,0.0,0.0,0.0,0.0,0.0,0.0,0.0,0.0,0.0,0.0,0.0,0.0,0.0,0.0,0.0,0.0,0.0,0.0,0.0,0.0,0.0,0.0,0.0,1.6131,1.7553,1.8185,1.8442,1.8301,1.6421,1.4514,0.0,0.0,0.0,0.0,0.0,0.0,0.0,0.0,0.0,0.0,0.0,0.0,0.0,0.0,0.0,0.0,0.0,0.0,0.0,0.0,0.0,0.0,0.0,0.0,0.0,0.0,0.0,0.0,0.0,0.0,0.0,0.0,0.0,0.0,0.0,0.0,0.0,0.0,0.0,0.0,0.0,0.0,0.0,0.0,0.0,0.0,0.0,0.0,0.5677,0.0,0.0,0.0,0.0,0.0,0.0,0.0,0.0,0.0,0.0,0.0,0.0,0.0,0.0,0.0,0.0,0.0,0.0,0.0,0.0,0.0,0.0,0.0,0.0,0.0,0.0,0.0,0.0,0.0,0.0,0.0,0.0,0.0,0.0,0.0,0.0,0.0,0.0,0.0,0.0,0.0,0.0,0.0,0.0,0.0,0.0,0.0,0.0,0.0,0.0,0.0,0.0,0.0,0.0,0.0,0.0,0.0,0.0,0.0,1.6775,1.7988,1.8339,1.8488,1.8456,1.7258,1.5603,0.0,0.0,0.0,0.0,0.0,0.0,0.0,0.0,0.0,0.0,0.0,0.0,0.0,0.0,0.0,0.0,0.0,0.0,0.0,0.0,0.0,0.0,0.0,0.0,0.0,0.0,0.0,0.0,0.0,0.0,0.0,0.0,0.0,0.0,0.0,0.0,0.0,0.0,0.0,0.0,0.0,0.0,0.0,0.0,0.0,0.0,0.0,0.0,0.0,0.0,0.0,0.0,0.0,0.0,0.0,0.0,0.0,0.0,0.0,0.0,0.0,0.0,0.0,0.0,0.0,0.0,0.0,0.0,0.0,0.0,0.0,0.0,0.0,0.0,0.0,0.0,0.0,0.0,0.0,0.0,0.0,0.0,0.0,0.0,0.0,0.0,0.0,0.0,0.0,0.0,0.0,0.0,0.0,0.0,0.0,0.0,0.0,0.0,0.0,0.0,0.0,0.0,0.0,0.0,0.0,0.0,0.0,1.5778,1.7192,1.8428,1.8488,1.8508,1.8527,1.8031,1.6591,1.4164,0.0,0.0,0.0,0.0,0.0,0.0,0.0,0.0,0.0,0.0,0.0,0.0,0.0,0.0,0.0,0.0,0.0,0.0,0.0,0.0,0.0,0.0,0.0,0.0,0.0,0.0,0.0,0.0,0.0,0.0,0.0,0.0,0.0,0.0,0.0,0.0,0.0,0.0,0.5131,0.5908,0.0,0.0,0.0,0.0,0.0,0.0,0.0,0.0,0.6445,0.0,0.0,0.0,0.0,0.0,0.0,0.0,0.0,0.0,0.0,0.0,0.0,0.0,0.0,0.0,0.0,0.0,0.0,0.0,0.0,0.0,0.0,0.0,0.0,0.0,0.0,0.0,0.0,0.0,0.0,0.0,0.0,0.0,0.0,0.0,0.0,0.0,0.0,0.0,0.0,0.0,0.0,0.0,0.0,0.0,0.0,0.0,0.0,0.0,0.0,0.0,0.0,0.0,0.0,0.0,0.0,1.618,1.5994,1.6715,1.8442,1.8488,1.8547,1.8663,1.8574,1.7368,1.4938,0.0,0.0,0.0,0.0,0.0,0.0,0.0,0.0,0.0,0.0,0.0,0.0,0.0,0.0,0.0,0.0,0.0,0.0,0.0,0.0,0.0,0.0,0.0,0.0,0.0,0.0,0.0,0.0,0.0,0.0,0.0,0.0,0.0,0.0,0.0,0.0,0.0,0.0,0.0,0.775,0.8367,0.0,0.0,0.0,0.0,0.0,0.0,0.0,0.0,0.6427,0.0,0.0,0.0,0.0,0.0,0.0,0.0,0.0,0.0,0.0,0.0,0.0,0.0,0.0,0.0,0.0,0.0,0.0,0.0,0.0,0.0,0.0,0.0,0.0,0.0,0.0,0.0,0.0,0.0,0.0,0.0,0.0,0.0,0.0,0.0,0.0,0.0,0.0,0.0,0.0,0.0,0.0,0.0,0.0,0.0,0.0,0.0,0.0,0.0,0.0,0.0,0.0,0.0,0.0,0.0,1.5603,1.6738,1.7697,1.8577,1.8639,1.8683,1.8717,1.8119,1.6921,0.0,0.0,0.0,0.0,0.0,0.0,0.0,0.0,0.0,0.0,0.0,0.0,0.0,0.0,0.0,0.0,0.0,0.0,0.0,0.0,0.0,0.0,0.0,0.0,0.0,0.0,0.0,0.0,0.0,0.0,0.0,0.0,0.0,0.0,0.0,0.0,0.0,0.0,0.0,0.0,0.8201,0.8794,0.9096,0.0,0.0,0.0,0.0,0.0,0.0,0.7615,0.7062,0.0,0.0,0.0,0.0,0.0,0.0,0.0,0.0,0.0,0.0,0.0,0.0,0.0,0.0,0.0,0.0,0.0,0.0,0.0,0.0,0.0,0.0,0.0,0.0,0.0,0.0,0.0,0.0,0.0,0.0,0.0,0.0,0.0,0.0,0.0,0.0,0.0,0.0,0.0,0.0,0.0,0.0,0.0,0.0,0.0,0.0,0.0,0.0,0.0,0.0,0.0,0.0,0.0,0.0,0.0,1.4832,1.713,1.846,1.8702,1.8764,1.8808,1.8822,1.7725,1.6434,0.0,0.0,0.0,0.0,0.0,0.0,0.0,0.0,0.0,0.0,0.0,0.0,0.0,0.0,0.0,0.0,0.0,0.0,0.0,0.0,0.0,0.0,0.0,0.0,0.0,0.0,0.0,0.0,0.0,0.0,0.0,0.0,0.0,0.0,0.0,0.0,0.0,0.0,0.0,0.0,0.0,0.9317,0.985,0.9326,0.0,0.0,0.0,0.0,0.8903,0.8537,0.0,0.0,0.0,0.0,0.0,0.0,0.0,0.0,0.0,0.0,0.0,0.0,0.0,0.0,0.0,0.0,0.0,0.0,0.0,0.0,0.0,0.0,0.0,0.0,0.0,0.0,0.0,0.0,0.0,0.0,0.0,0.0,0.0,0.0,0.0,0.0,0.0,0.0,0.0,0.0,0.0,0.0,0.0,0.0,0.0,0.0,0.0,0.0,0.0,0.0,0.0,0.0,0.0,0.0,0.0,0.0,1.4831,1.6293,1.7548,1.8645,1.8711,1.8803,1.896,1.8255,1.6778,0.0,0.0,0.0,0.0,0.0,0.0,0.0,0.0,0.0,0.0,0.0,0.0,0.0,0.0,0.0,0.0,0.0,0.0,0.0,0.0,0.0,0.0,0.0,0.0,0.0,0.0,0.0,0.0,0.0,0.0,0.0,0.0,0.0,0.0,0.0,0.0,0.0,0.0,0.0,0.0,0.0,1.1074,1.0809,1.0375,1.0061,0.0,0.0,0.9758,1.0494,0.9988,0.0,0.0,0.0,0.0,0.0,0.0,0.0,0.0,0.0,0.0,0.0,0.0,0.0,0.0,0.0,0.0,0.0,0.0,0.0,0.0,0.0,0.0,0.0,0.0,0.0,0.0,0.0,0.0,0.0,0.0,0.0,0.0,0.0,0.0,0.0,0.0,0.0,0.0,0.0,0.0,0.0,0.0,0.0,0.0,0.0,0.0,0.0,0.0,0.0,0.0,0.0,0.0,0.0,0.0,0.0,1.3267,1.4951,1.6926,1.8194,1.8736,1.8836,1.8908,1.8979,1.7675,1.6136,0.0,0.0,0.0,0.0,0.0,0.0,0.0,0.0,0.0,0.0,0.0,0.0,0.0,0.0,0.0,0.0,0.0,0.0,0.0,0.0,0.0,0.0,0.0,0.0,0.0,0.0,0.0,0.0,0.0,0.0,0.0,0.0,0.0,0.0,0.0,0.0,0.0,0.0,0.0,0.0,0.0,0.0,1.1184,1.089,0.0,0.0,0.0,1.0769,1.0892,0.0,0.0,0.0,0.0,0.0,0.0,0.0,0.0,0.0,0.0,0.0,0.0,0.0,0.0,0.0,0.0,0.0,0.0,0.0,0.0,0.0,0.0,0.0,0.0,0.0,0.0,0.0,0.0,0.0,0.0,0.0,0.0,0.0,0.0,0.0,0.0,0.0,0.0,0.0,0.0,0.0,0.0,0.0,0.0,0.0,0.0,0.0,0.0,0.0,0.0,0.0,0.0,0.0,0.0,0.0,0.0,0.0,1.5036,1.7543,1.886,1.886,1.8951,1.9003,1.8998,1.7337,0.0,0.0,0.0,0.0,0.0,0.0,0.0,0.0,0.0,0.0,0.0,0.0,0.0,0.0,0.0,0.0,0.0,0.0,0.0,0.0,0.0,0.0,0.0,0.0,0.0,0.0,0.0,0.0,0.0,0.0,0.0,0.0,0.0,0.0,0.0,0.0,0.0,0.0,0.0,0.0,0.0,0.0,1.052,1.151,1.1405,1.1279,0.0,0.0,1.1574,1.1387,1.1584,1.1129,0.0,0.0,0.0,0.0,0.0,0.0,0.0,0.0,0.0,0.0,0.0,0.0,0.0,0.0,0.0,0.0,0.0,0.0,0.0,0.0,0.0,0.0,0.0,0.0,0.0,0.0,0.0,0.0,0.0,0.0,0.0,0.0,0.0,0.0,0.0,0.0,0.0,0.0,0.0,0.0,0.0,0.0,0.0,0.0,0.0,0.0,0.0,0.0,0.0,0.0,0.0,0.0,0.0,0.0,0.0,1.5133,1.7674,1.8993,1.8993,1.9003,1.9026,1.9058,1.7824,1.5988,0.0,0.0,0.0,0.0,0.0,0.0,0.0,0.0,0.0,0.0,0.0,0.0,0.0,0.0,0.0,0.0,0.0,0.0,0.0,0.0,0.0,0.0,0.0,0.0,0.0,0.0,0.0,0.0,0.0,0.0,0.0,0.0,0.0,0.0,0.0,0.0,0.0,0.0,0.0,0.0,0.0,1.1529,1.2012,1.2036,1.2285,0.0,0.0,1.2174,1.2514,1.2601,1.1938,0.9942,0.0,0.0,0.0,0.0,0.0,0.0,0.0,0.0,0.0,0.0,0.0,0.0,0.0,0.0,0.0,0.0,0.0,0.0,0.0,0.0,0.0,0.0,0.0,0.0,0.0,0.0,0.0,0.0,0.0,0.0,0.0,0.0,0.0,0.0,0.0,0.0,0.0,0.0,0.0,0.0,0.0,0.0,0.0,0.0,0.0,0.0,0.0,0.0,0.0,0.0,0.0,0.0,0.0,1.3992,1.523,1.7715,1.9003,1.9003,1.9003,1.9022,1.9045,1.8261,1.6596,0.0,0.0,0.0,0.0,0.0,0.0,0.0,0.0,0.0,0.0,0.0,0.0,0.0,0.0,0.0,0.0,0.0,0.0,0.0,0.0,0.0,0.0,0.0,0.0,0.0,0.0,0.0,0.0,0.5287,0.5387,0.5319,0.0,0.0,0.0,0.0,0.0,0.0,0.0,0.0,0.0,0.0,1.1862,1.288,1.3224,0.0,0.0,1.3874,1.3824,1.3651,1.3138,1.2366,1.1236,1.0179,0.0,0.0,0.0,0.0,0.0,0.0,0.0,0.0,0.0,0.0,0.0,0.0,0.0,0.0,0.0,0.0,0.0,0.0,0.0,0.0,0.0,0.0,0.0,0.0,0.0,0.0,0.0,0.0,0.0,0.0,0.0,0.0,0.0,0.0,0.0,0.0,0.0,0.0,0.0,0.0,0.0,0.0,0.0,0.0,0.0,0.0,0.0,0.0,0.0,0.0,0.0,0.0,1.4013,1.5283,1.7777,1.9026,1.9036,1.9026,1.9026,1.9021,1.8489,1.7075,0.0,0.0,0.0,0.0,0.0,0.0,0.0,0.0,0.0,0.0,0.0,0.0,0.0,0.0,0.0,0.0,0.0,0.0,0.0,0.0,0.0,0.0,0.0,0.0,0.0,0.0,0.0,0.0,0.5712,0.5663,0.5404,0.0,0.0,0.0,0.0,0.0,0.0,0.0,0.0,0.0,0.0,1.2517,1.3574,1.3991,1.4217,1.4314,1.4308,1.4228,1.3968,1.3526,1.2907,1.2026,0.0,0.0,0.0,0.0,0.0,0.0,0.0,0.0,0.0,0.0,0.0,0.0,0.0,0.0,0.0,0.0,0.0,0.0,0.0,0.0,0.0,0.0,0.0,0.0,0.0,0.0,0.0,0.8104,0.0,0.0,0.7918,0.0,0.0,0.0,0.0,0.0,0.0,0.0,0.0,0.0,0.0,0.0,0.0,0.0,0.0,0.0,0.0,0.0,0.0,0.0,0.0,0.0,0.0,1.4042,1.5327,1.7806,1.9106,1.9106,1.9092,1.9106,1.9077,1.8511,1.7278,1.5312,0.0,0.0,0.0,0.0,0.0,0.0,0.0,0.0,0.0,0.0,0.0,0.0,0.0,0.0,0.0,0.0,0.0,0.0,0.0,0.0,0.0,0.0,0.0,0.0,0.0,0.0,0.5717,0.5296,0.5081,0.0,0.0,0.0,0.0,0.0,0.0,0.0,0.0,0.0,0.0,1.2428,1.3665,1.3967,1.4138,1.4381,1.4622,1.3616,1.2969,1.3381,1.3821,1.3633,0.0,0.0,0.0,0.0,0.0,0.0,0.0,0.0,0.0,0.0,0.0,0.0,0.0,0.0,0.0,0.0,0.0,0.0,0.0,0.0,0.0,0.0,0.0,0.0,0.0,0.0,0.0,1.1409,1.0539,0.0,0.0,0.0,0.0,0.0,0.0,0.0,0.0,0.0,0.0,0.0,1.4689,1.5538,0.0,0.0,0.0,0.0,0.0,0.0,0.0,0.0,0.0,0.0,0.0,0.0,1.4209,1.59,1.8004,1.9106,1.9106,1.9106,1.9106,1.9106,1.8903,1.7699,1.537,0.0,0.0,0.0,0.0,0.0,0.0,0.0,0.0,0.0,0.0,0.0,0.0,0.0,0.0,0.0,0.0,0.0,0.0,0.0,0.0,0.0,0.0,0.0,0.0,0.0,0.5743,0.0,0.0,0.0,0.0,0.0,0.0,0.0,0.0,0.0,0.0,0.0,1.0573,1.1324,1.3138,1.4509,1.4809,1.5705,1.6353,0.0,0.0,0.0,0.0,0.0,0.0,0.0,0.0,0.0,0.0,0.0,0.0,0.0,0.0,1.5426,1.1255,0.9576,0.9079,1.0026,0.0,0.0,0.0,0.0,0.0,0.0,0.0,0.0,0.0,0.0,0.0,0.0,0.0,0.0,1.3654,0.0,1.2178,0.0,0.0,0.0,0.0,0.0,0.0,0.0,0.0,1.6677,1.7461,1.733,1.812,1.7626,0.0,1.6197,1.4689,0.0,0.0,0.0,0.0,0.0,0.0,0.0,0.0,1.4885,1.6547,1.823,1.9106,1.9106,1.9106,1.9106,1.9101,1.8898,1.7896,1.6031,1.4943,1.3491,0.0,0.0,0.0,0.0,0.0,0.0,0.0,0.0,0.0,0.0,0.0,0.0,0.0,0.0,0.0,0.0,0.0,0.0,0.0,0.0,0.0,0.0,0.0,0.5968,0.0,0.0,0.0,0.0,0.0,0.0,0.0,0.0,0.0,0.9843,1.0945,1.1973,1.2758,1.4386,1.5548,1.5766,0.0,0.0,0.0,0.0,0.0,0.0,0.0,1.6128,1.6751,1.6321,1.5898,1.5989,1.7741,1.8856,1.7915,0.0,0.0,1.4183,1.2526,1.2037,1.2956,1.3388,1.3682,1.4019,1.4528,1.5054,0.0,0.0,0.0,0.0,0.0,0.0,0.0,0.0,1.5667,1.5644,0.0,1.4349,0.0,0.0,0.0,0.0,0.0,1.5191,0.0,0.0,1.9203,2.0436,2.0926,2.0926,2.0345,1.9237,1.974,1.8468,1.5494,1.358,0.0,0.0,0.0,0.0,0.0,0.0,1.5973,1.7197,1.8462,1.9106,1.9106,1.9106,1.9106,1.9087,1.855,1.7917,1.7249,1.6582,1.5385,1.3569,1.2831,0.0,0.0,0.0,0.0,0.0,0.0,0.0,0.0,0.0,0.0,0.0,0.0,0.0,0.0,0.0,0.0,0.0,0.0,0.0,0.0,0.6416,0.0,0.0,0.0,0.0,0.0,0.0,0.0,0.0,0.0,0.0,1.1284,1.2379,1.3679,1.476,0.0,0.0,0.0,0.0,1.7058,1.7554,1.6945,1.6778,1.7673,1.8243,1.8489,1.8208,0.0,0.0,1.7879,1.9308,2.0008,1.806,1.8639,1.9268,1.938,1.7991,1.7214,1.7646,1.7472,1.7553,1.7802,1.8034,1.8516,2.2053,0.0,0.0,0.0,0.0,1.9048,1.9171,1.9922,1.9434,1.8392,1.7,1.6713,0.0,0.0,0.0,0.0,0.0,0.0,1.8668,1.9304,2.0277,2.0828,2.0998,2.0998,2.0799,2.0465,2.064,2.0277,1.9333,1.7896,1.5574,1.247,0.0,0.0,0.0,0.0,1.6596,1.7873,1.8709,1.9106,1.9106,1.9106,1.9106,1.9106,1.8932,1.854,1.7931,1.7719,1.693,1.5466,1.4341,0.0,0.0,0.0,0.0,0.0,0.0,0.0,0.0,0.0,0.0,0.0,0.0,0.0,0.0,0.0,0.0,0.0,0.0,0.0,0.6372,0.6873,0.7363,0.0,0.0,0.0,0.0,0.0,0.0,0.0,0.0,0.0,1.494,1.4882,1.4516,0.0,0.0,1.7293,1.6909,1.7842,1.876,1.9295,1.9154,0.0,1.9236,1.9203,1.9254,1.9542,2.0254,2.0668,2.0528,2.1185,2.1509,2.0739,2.0988,2.1335,2.1227,1.9214,1.786,1.8283,1.8445,1.8556,1.8928,1.918,1.9396,2.5774,2.3677,2.2651,2.2726,2.3454,2.2601,2.2752,2.3522,2.2641,2.1601,2.0485,1.9532,1.8389,1.7108,1.6692,0.0,0.0,0.0,2.0283,2.0994,2.1262,2.1561,2.1811,2.1782,2.1627,2.138,2.1394,2.1249,2.0998,2.0233,1.846,1.5735,0.0,0.0,1.5857,1.6611,1.7573,1.8746,1.8987,1.9167,1.9334,1.9171,1.9106,1.9106,1.9106,1.8941,1.8569,1.8564,1.8085,1.7032,1.6016,1.4478,0.0,0.0,0.0,0.0,0.0,0.0,0.0,0.0,0.0,0.0,0.0,0.7786,0.0,0.0,0.0,0.0,0.7092,0.7488,0.7958,0.8558,0.0,0.0,0.0,0.0,0.0,0.0,0.0,1.3581,1.4474,1.5448,1.6784,1.7016,1.6751,1.5985,1.7547,1.8645,1.8323,0.0,1.993,2.0464,2.0576,2.0647,2.0786,2.0638,2.0617,2.0938,2.1308,2.1651,2.185,2.2073,2.2151,2.2077,2.2108,2.2197,2.2197,2.077,1.9711,2.0038,2.0106,2.0237,2.042,2.0455,2.0504,2.8658,2.8542,2.7122,2.6467,2.6367,2.631,2.6259,2.6165,2.5178,2.4799,2.4701,2.259,2.1362,2.0873,2.0138,0.0,2.0832,2.1177,2.1789,2.2527,2.2294,2.2546,2.3155,2.2984,2.2632,2.2087,2.2105,2.1796,2.1235,2.1203,2.1084,2.085,1.8705,1.7893,1.8425,1.8498,1.8995,1.9888,1.9511,1.9415,1.9675,1.9315,1.9106,1.9106,1.9106,1.9101,1.9092,1.9101,1.8845,1.8279,1.7583,1.609,1.3699,0.0,0.0,0.0,0.0,0.0,0.0,0.0,0.0,0.0,0.0,0.0,0.0,0.0,0.0,0.0,0.9303,0.0,1.0465,1.095,0.0,0.0,0.0,1.1709,1.2652,1.3917,1.4891,1.531,0.0,0.0,1.7503,1.8841,1.9812,1.9731,2.0115,2.0411,2.0388,2.0386,2.0649,2.1173,2.1347,2.1587,2.1928,2.2046,2.2022,2.2058,2.2197,2.2146,2.217,2.2197,2.2197,2.2282,2.2258,2.2306,2.2306,2.2651,2.2911,2.2335,2.223,2.2159,2.1964,2.1842,2.174,3.0847,3.0754,2.987,2.887,2.7836,2.7265,2.6869,2.6546,2.6243,2.5527,2.4528,2.4457,2.3833,2.285,2.3154,2.3322,2.3437,2.4012,2.4387,2.4548,2.4007,2.3795,2.3829,2.3304,2.2931,2.2715,2.305,2.3146,2.2988,2.2823,2.272,2.2629,2.1676,2.0974,2.0675,2.114,2.1507,2.1744,2.1109,2.0425,1.9723,1.9315,1.9106,1.9106,1.9106,1.9106,1.9106,1.9106,1.9043,1.886,1.7809,1.6488,1.4921,1.2486,0.0,0.0,0.0,0.0,0.0,0.0,0.0,0.0,0.0,1.0339,0.8085,0.0,0.9743,0.0,1.076,1.1379,1.1478,1.2125,0.0,0.0,1.3483,1.3942,1.5497,1.5719,1.6216,1.7409,1.8301,1.9258,2.0241,2.0733,2.1131,2.1473,2.0973,2.0501,2.0377,2.0681,2.111,2.1616,2.1754,2.1825,2.1963,2.2108,2.2197,2.2197,2.2197,2.2197,2.2197,2.2197,2.2318,2.2706,2.2803,2.2959,2.3308,2.3525,2.3565,2.3416,2.3091,2.2803,2.2739,2.2411,2.212,3.2089,3.2056,3.1653,3.1023,3.0232,2.9178,2.8596,2.8384,2.801,2.7286,2.6335,2.6225,2.5492,2.4418,2.4991,2.5133,2.4918,2.5171,2.5476,2.5748,2.5298,2.5172,2.5303,2.456,2.4167,2.4097,2.4005,2.3948,2.3954,2.382,2.3823,2.3996,2.3661,2.3425,2.3255,2.2699,2.2471,2.2629,2.1914,2.1066,2.0173,1.9633,1.9273,1.9125,1.9106,1.9106,1.9106,1.8831,1.8709,1.8671,1.7728,1.6742,1.5733,1.3955,1.2327,0.0,0.0,0.0,0.0,0.0,0.0,0.0,0.0,0.0,0.0,0.0,1.1225,1.1312,1.2511,1.3378,1.3643,1.4457,1.5213,1.5781,1.5647,1.6091,1.7549,1.7535,1.7879,1.9177,1.9797,2.0442,2.1287,2.162,2.1861,2.2149,2.1696,2.1272,2.1203,2.1409,2.1692,2.1982,2.2018,2.203,2.203,2.2123,2.2197,2.2197,2.2197,2.2197,2.2197,2.2405,2.2658,2.2947,2.3204,2.3445,2.3758,2.3982,2.4114,2.4078,2.3869,2.3621,2.3408,2.3115,2.2827,3.2851,3.284,3.274,3.2685,3.2602,3.1321,3.0721,3.0588,2.987,2.9315,2.8859,2.7822,2.6812,2.5917,2.6363,2.6359,2.6039,2.5854,2.6136,2.6704,2.6427,2.6545,2.697,2.6161,2.5717,2.5576,2.4937,2.4605,2.4501,2.4497,2.4685,2.5011,2.5001,2.5208,2.5513,2.3743,2.2913,2.3086,2.242,2.1657,2.0795,2.0167,1.9592,1.9144,1.9106,1.9106,1.9101,1.8598,1.8332,1.8303,1.7684,1.7069,1.6474,1.5703,1.4776,0.0,1.2877,0.0,0.0,0.0,0.0,0.0,0.0,0.0,0.0,1.2929,1.2974,1.3029,1.4412,1.5552,1.6126,1.7038,1.7604,1.7604,1.7736,1.8181,1.9058,1.9277,1.966,2.0596,2.1175,2.1485,2.1548,2.1921,2.2185,2.2185,2.2149,2.2086,2.2158,2.213,2.2146,2.2197,2.2197,2.2166,2.2182,2.2182,2.2221,2.227,2.233,2.2333,2.2438,2.2803,2.3115,2.3236,2.3609,2.3898,2.3986,2.4338,2.4585,2.4597,2.4573,2.4422,2.3989,2.3765,2.3487,3.3677,3.3552,3.2939,3.2685,3.2685,3.2409,3.1951,3.135,3.0605,3.0034,2.9577,2.8991,2.862,2.8415,2.8506,2.8496,2.8438,2.8408,2.8438,2.8561,2.7971,2.7693,2.7652,2.698,2.6282,2.5655,2.5833,2.564,2.5066,2.5419,2.5649,2.5698,2.5598,2.5591,2.5663,0.0,0.0,0.0,2.3807,2.2824,2.1243,2.0755,2.0068,1.9149,1.9106,0.0,1.9101,1.8999,1.8918,1.8912,1.8337,0.0,0.0,0.0,0.0,0.0,0.0,0.0,0.0,0.0,0.0,0.0,1.4959,1.4617,1.3608,1.4885,1.5686,1.5417,1.6338,1.6979,1.7135,1.807,1.8698,1.8735,1.9468,2.0079,2.0295,2.067,2.1055,2.1223,2.1701,2.2041,2.2029,2.2137,2.2185,2.2197,2.2197,2.2197,2.2197,2.2197,2.2197,2.2197,2.2197,2.2197,2.2197,2.2197,2.2393,2.2706,2.2851,2.3007,2.3344,2.3525,2.3785,2.408,2.4297,2.453,2.4903,2.5095,2.5114,2.5155,2.5143,2.4999,2.4465,2.4066,2.372,3.4596,3.4505,3.4065,3.3876,0.0,3.3437,3.3039,3.2619,3.1901,3.1259,3.0658,3.0054,2.9661,2.9438,2.9438,2.9314,2.9124,2.9124,2.9223,2.9433,2.9092,2.9042,2.9157,2.8456,2.7918,2.7495,2.7318,2.6873,2.6169,2.6283,2.616,2.5791,2.5689,2.5642,2.5649,2.5609,2.5412,2.5049,2.4521,2.3713,2.2641,2.1563,2.0635,1.9912,1.9374,0.0,0.0,0.0,0.0,0.0,0.0,0.0,0.0,0.0,0.0,1.7166,1.6601,1.6164,1.5983,1.5977,1.6245,1.6796,1.7354,1.7057,1.5598,1.6424,1.7135,1.7475,1.7923,1.8397,1.8938,1.9466,1.9806,1.9817,2.0271,2.0706,2.0956,2.1235,2.1512,2.1765,2.2017,2.2197,2.2197,2.2197,2.2197,2.2197,2.2197,2.2197,2.2197,2.2197,2.2197,2.2197,2.2197,2.2197,2.2221,2.2454,2.267,2.2947,2.3212,2.3493,2.3758,2.3994,2.423,2.4465,2.4705,2.4994,2.521,2.5294,2.5294,2.5294,2.5294,2.5222,2.4934,2.4699,2.4547,3.5291,3.5245,3.5128,3.5065,3.502,3.4283,3.4,3.3933,0.0,0.0,0.0,3.1145,3.0689,3.0298,3.0174,2.991,2.9535,2.9412,2.9561,2.9913,2.9919,3.0124,3.0462,2.986,2.9539,2.938,2.8725,2.8026,2.7354,2.7161,2.6692,2.6029,2.59,2.5786,2.5663,2.5654,2.5637,2.5586,2.5021,2.4485,2.3982,2.248,2.143,2.0907,1.9946,1.9435,1.9411,1.8961,1.8695,1.868,1.8187,1.812,1.868,1.9174,1.9522,1.9703,2.0133,2.0028,1.9171,1.9127,1.8983,1.8618,1.9253,1.9105,1.781,1.7869,1.8326,1.9203,1.9275,1.9648,2.0512,2.0692,2.074,2.0752,2.0824,2.1091,2.1476,2.1536,2.1713,2.2101,2.2185,2.2197,2.2197,2.2197,2.2197,2.2197,2.2197,2.2197,2.2197,2.2197,2.2197,2.2197,2.2294,2.2381,2.243,2.2818,2.3139,2.3332,2.3669,2.3934,2.409,2.4386,2.4609,2.4681,2.5035,2.5252,2.5294,2.5294,2.5294,2.5294,2.5294,2.5294,2.5294,2.5294,2.5246,3.5233,3.5111,3.4994,3.4935,3.4906,3.4795,3.4733,3.4634,3.3304,3.2641,3.2542,3.2442,3.2343,3.226,3.1627,3.1319,3.1216,3.0601,3.0332,3.0395,3.0395,3.0426,3.0489,3.039,3.0009,2.9423,2.9297,2.8874,2.8281,2.8195,2.7805,2.7141,2.6956,2.6541,2.5919,2.586,2.5798,2.5682,2.5584,2.5042,2.403,2.3465,2.2663,2.1599,2.1009,2.0737,2.0727,2.0625,2.0596,2.0596,2.0509,2.0509,2.0606,2.0669,2.075,2.074,2.0542,2.0136,1.9574,1.961,1.9829,2.0158,2.0436,2.0133,1.9097,1.9693,2.0215,2.0382,2.0343,2.0428,2.062,2.1016,2.1281,2.132,2.1704,2.2005,2.2041,2.2069,2.2093,2.2173,2.2197,2.2197,2.2197,2.2197,2.2197,2.2197,2.2246,2.2234,2.2294,2.2197,2.2197,2.2258,2.2598,2.2839,2.2935,2.3348,2.3777,2.4225,2.4326,2.4525,2.4903,2.5047,2.5131,2.5162,2.5222,2.5282,2.5294,2.5294,2.5294,2.5294,2.5294,2.5294,2.5294,2.5294,2.5294,3.6439,3.6011,3.5877,3.5549,3.5116,3.4958,3.4911,3.4833,3.4199,3.3668,3.3254,3.2901,3.2685,3.2658,3.2348,3.2199,3.2166,3.1427,3.1101,3.1068,3.0688,3.0489,3.0489,3.0489,3.0323,3.0009,3.0003,2.9638,2.8986,2.8913,2.8513,2.7803,2.7292,2.6845,2.6489,2.6103,2.5819,2.571,2.5701,2.5443,2.4883,2.4138,2.3365,2.2578,2.1809,2.1244,2.1009,2.0998,2.0998,2.0998,2.0998,2.0998,2.1013,2.1347,2.1525,2.1569,2.2028,2.205,2.1541,2.1318,2.1108,2.0915,2.1178,2.1116,2.0558,2.0549,2.0718,2.0992,2.1028,2.1149,2.144,2.168,2.1852,2.1825,2.2065,2.2185,2.2197,2.2197,2.2197,2.2197,2.2197,2.2197,2.2197,2.2197,2.2197,2.2209,2.2417,2.2718,2.2995,2.3055,2.2931,2.2742,2.3095,2.3392,2.3469,2.3861,2.4242,2.4489,2.4741,2.4994,2.527,2.5294,2.5294,2.5294,2.5294,2.5294,2.5294,2.5294,2.5294,2.5294,2.5294,2.5294,2.5294,2.5294,2.5294,3.752,3.6991,3.6857,3.6306,3.5479,3.5096,3.4939,3.4911,3.4894,3.458,3.4,3.3436,3.3188,3.3188,3.3039,3.2939,3.284,3.2183,3.1774,3.1548,3.1019,3.0654,3.0506,3.0489,3.0489,3.0489,3.0489,3.0208,2.9694,2.9594,2.92,2.8464,2.7704,2.731,2.731,2.6742,2.6393,2.6258,2.6236,2.6005,2.5581,2.4716,2.3997,2.3505,2.2642,2.1901,2.148,2.1427,2.1413,2.1438,2.1427,2.1511,2.1652,2.2135,2.2494,2.2726,2.3569,2.3892,2.3375,2.2999,2.245,2.1728,2.2029,2.2132,2.1838,2.1332,2.1157,2.15,2.1584,2.1753,2.2065,2.2173,2.2197,2.2197,2.2197,2.2197,2.2197,2.2197,2.2197,2.2197,2.2197,2.2197,2.2209,2.2321,2.2466,2.2658,2.2923,2.336,2.3722,2.3861,2.3765,2.3585,2.3705,2.3922,2.3994,2.4374,2.4645,2.4681,2.4994,2.521,2.5294,2.5294,2.5294,2.5294,2.5294,2.5294,2.5294,2.5294,2.5294,2.5294,2.5294,2.5294,2.5294,2.5294,2.5294,3.7699,3.7595,3.7523,3.6924,3.6081,3.5404,3.5056,3.4944,3.4928,3.4866,3.475,3.47,3.4662,3.4601,3.3983,3.3701,3.3652,3.2923,3.2266,3.1697,3.1532,3.1151,3.0594,3.0522,3.0489,3.0522,3.0506,3.0439,3.034,3.0346,3.0009,2.9297,2.8612,2.8254,2.8238,2.8181,2.8093,2.797,2.7853,2.7065,2.5678,2.5205,2.474,2.4205,2.369,2.3214,2.2686,2.274,2.2736,2.274,2.2696,2.2997,2.354,2.3685,2.3978,2.4542,2.473,2.4581,2.4083,2.398,2.366,2.3146,2.3315,2.3238,2.264,2.2372,2.2183,2.216,2.2129,2.2113,2.2185,2.2197,2.2197,2.2197,2.2197,2.2197,2.2234,2.2197,2.2197,2.2197,2.2318,2.2209,2.2369,2.267,2.3103,2.35,2.3621,2.3843,2.4091,2.4348,2.4616,2.4447,2.4468,2.4451,2.4506,2.4891,2.5102,2.5204,2.5252,2.5294,2.5294,2.5294,2.5294,2.5294,2.5294,2.5294,2.5294,2.5294,2.5294,2.5294,2.5294,2.5294,2.5294,2.5294,2.5294,3.9502,3.8879,3.8821,3.8134,3.7088,3.6661,3.6197,3.569,3.5661,3.5393,3.4928,3.4911,3.4911,3.4883,3.458,3.4435,3.4414,3.3685,3.3204,3.2867,3.2464,3.2083,3.1785,3.1333,3.114,3.1101,3.0721,3.0489,3.0489,3.0489,3.0323,3.0009,2.934,2.8986,2.8969,2.8582,2.8337,2.8214,2.8148,2.7771,2.7108,2.6393,2.5677,2.492,2.4324,2.3668,2.2989,2.2888,2.3084,2.3455,2.3476,2.3804,2.4454,2.4498,2.4588,2.4851,2.5226,2.5347,2.5186,2.5172,2.4695,2.3625,2.3628,2.3339,2.2644,2.265,2.2721,2.265,2.239,2.2197,2.2209,2.2197,2.2197,2.2197,2.2197,2.2318,2.2662,2.267,2.2766,2.3079,2.3156,2.3144,2.3164,2.3332,2.3681,2.4097,2.4234,2.4493,2.5165,2.5509,2.5796,2.6097,2.594,2.5438,2.5126,2.5114,2.5282,2.5294,2.5294,2.5294,2.5294,2.5294,2.5294,2.5294,2.5294,2.5294,2.5294,2.5294,2.5294,2.5294,2.5294,2.5294,2.5294,2.5294,2.5294,4.0916,4.002,3.9662,3.8927,3.8011,3.7678,3.7166,3.6589,3.6519,3.603,3.5286,3.5221,3.5081,3.4928,3.4911,3.4911,3.4828,3.4336,3.3983,3.3768,3.3238,3.289,3.2674,3.2183,3.1907,3.1791,3.1151,3.0704,3.0522,3.0489,3.0489,3.0406,2.9943,2.9711,2.9655,2.9201,2.8933,2.8847,2.8817,2.8767,2.8591,2.7705,2.6675,2.57,2.4984,2.4236,2.3493,2.3447,2.365,2.4097,2.414,2.4457,2.5079,2.5151,2.5197,2.5373,2.5792,2.6087,2.615,2.6138,2.5633,2.4552,2.4427,2.4122,2.3503,2.3667,2.376,2.3517,2.314,2.2929,2.265,2.2646,2.2618,2.2646,2.263,2.2815,2.3151,2.3212,2.3356,2.3734,2.3899,2.4251,2.4513,2.4678,2.488,2.533,2.5407,2.5574,2.6374,2.6514,2.6543,2.7082,2.6539,2.6005,2.5646,2.5406,2.5347,2.5294,2.5294,2.5294,2.5294,2.5294,2.5294,2.5294,2.5294,2.5294,2.5294,2.5294,2.5294,2.5294,2.5294,2.5294,2.5294,2.5294,2.5294,4.1202,4.0611,3.9533,3.8988,3.8685,3.8045,3.7623,3.7434,3.7336,3.6857,3.6171,3.5966,3.5557,3.4961,3.4944,3.4911,3.4883,3.4828,3.4452,3.39,3.3784,3.3387,3.2707,3.2641,3.2641,3.2591,3.1907,3.1234,3.0621,3.0555,3.0489,3.0506,3.0483,3.0456,3.0373,3.029,3.0357,3.022,3.0168,3.0215,3.0086,2.8963,2.7713,2.6576,2.5773,2.5195,2.4791,2.4721,2.4711,2.4766,2.4781,2.5069,2.5676,2.5774,2.6023,2.656,2.6705,2.6721,2.6712,2.6744,2.645,2.5964,2.6161,2.6197,2.5256,2.564,2.5616,2.4826,2.4762,2.4493,2.3993,2.3704,2.3589,2.3613,2.3673,2.3673,2.3807,2.3774,2.377,2.4053,2.4595,2.5291,2.6349,2.6566,2.6651,2.7008,2.7256,2.7315,2.7282,2.6896,2.671,2.6607,2.623,2.5634,2.6151,2.5891,2.5488,2.5453,2.5541,2.54,2.5329,2.5294,2.5312,2.5312,2.5294,2.5294,2.5294,2.5294,2.5294,2.5294,2.5294,2.5294,2.5294,2.5294,2.5294,4.1952,4.119,4.045,3.9944,3.961,3.9332,3.8898,3.8354,3.83,3.7789,3.7005,3.6416,3.5972,3.5694,3.5146,3.4911,3.4911,3.4911,3.475,3.4513,3.4502,3.4364,3.4087,3.3652,3.3403,3.3304,3.2663,3.2166,3.1951,3.1901,3.1658,3.1267,3.1211,3.0986,3.0588,3.0489,3.0489,3.0489,3.0474,3.0464,3.0405,2.9626,2.8739,2.7902,2.6397,2.5444,2.5034,2.4924,2.5038,2.5402,2.5431,2.5734,2.6357,2.6442,2.6531,2.6777,2.6807,2.6807,2.6851,2.7158,2.7103,2.6595,2.6961,2.6978,2.6407,2.6595,2.6724,2.6461,2.668,2.6671,2.6198,2.493,2.3806,2.3806,2.3834,2.4195,2.4643,2.4574,2.4688,2.5845,2.6415,2.6748,2.7056,2.722,2.7295,2.7452,2.7504,2.772,2.8019,2.7858,2.7789,2.8192,2.7855,2.7432,2.7644,2.6727,2.6018,2.6018,2.6035,2.6035,2.5983,2.5541,2.5453,2.5458,2.5418,2.5435,2.5458,2.5471,2.5435,2.5294,2.5294,2.5294,2.5294,2.5294,2.5294,4.2211,4.1481,4.0995,4.0519,4.0121,4.0113,3.9775,3.9219,3.9127,3.8623,3.7807,3.714,3.6721,3.6388,3.5627,3.5263,3.5226,3.5015,3.4911,3.4911,3.4911,3.4911,3.4828,3.4397,3.4149,3.4038,3.3403,3.2956,3.2707,3.2685,3.2426,3.1973,3.1956,3.1708,3.1244,3.0996,3.087,3.082,3.0621,3.0489,3.0426,2.9968,2.9467,2.8828,2.7317,2.6165,2.567,2.555,2.5701,2.6052,2.6112,2.6328,2.6749,2.6807,2.6807,2.6807,2.6982,2.7084,2.7157,2.7679,2.7847,2.7484,2.7868,2.7943,2.7582,2.7911,2.8058,2.7972,2.8061,2.8249,2.7627,2.6164,2.5083,2.5066,2.5017,2.5315,2.6054,2.5782,2.627,2.7351,2.7709,2.7877,2.8127,2.8179,2.8211,2.8176,2.8176,2.839,2.8728,2.865,2.8618,2.9044,2.8425,2.8002,2.7986,2.7358,2.69,2.6879,2.6744,2.6727,2.6432,2.5931,2.5704,2.5669,2.5634,2.5652,2.5652,2.5652,2.5558,2.5418,2.5294,2.5294,2.5294,2.5294,2.5454,4.1969,4.1459,4.099,4.0568,4.0133,4.0113,4.0096,3.9978,3.9761,3.9256,3.8623,3.8255,3.7696,3.7082,3.6352,3.5992,3.5893,3.5413,3.5044,3.4916,3.4911,3.4911,3.4894,3.4828,3.4795,3.4767,3.4149,3.3469,3.2939,3.2923,3.2856,3.274,3.2707,3.2636,3.2624,3.1934,3.1625,3.1499,3.1019,3.0654,3.047,3.0261,2.9965,2.9609,2.8562,2.7645,2.6883,2.6746,2.6662,2.672,2.6734,2.6778,2.6851,2.6866,2.6837,2.7039,2.7404,2.7695,2.7782,2.8332,2.8681,2.8668,2.9204,2.942,2.9315,2.9686,2.9726,2.9139,2.9008,2.878,2.8109,2.7725,2.7463,2.7591,2.7129,2.7135,2.7346,2.7478,2.7723,2.8312,2.8443,2.8794,2.9324,2.9369,2.9291,2.9306,2.9338,2.9338,2.934,2.8996,2.862,2.8538,2.8454,2.8338,2.8163,2.7986,2.7855,2.7736,2.7554,2.7417,2.6896,2.6419,2.6419,2.6372,2.6109,2.6109,2.6333,2.6329,2.6087,2.5896,2.5652,2.5664,2.5838,2.6002,2.5926,4.2218,4.1514,4.1337,4.082,4.0146,4.0113,4.0113,4.01,4.0011,3.9788,3.9408,3.8773,3.8294,3.7859,3.7153,3.6758,3.6725,3.646,3.5893,3.5077,3.4944,3.4928,3.4911,3.4911,3.4911,3.4878,3.4684,3.4464,3.4232,3.4199,3.3983,3.3541,3.3453,3.3183,3.2757,3.2464,3.2348,3.2315,3.2133,3.2017,3.2,3.1863,3.1524,3.096,3.0233,2.9485,2.8732,2.7496,2.6835,2.6836,2.6807,2.6968,2.7317,2.7405,2.7636,2.807,2.826,2.8376,2.8463,2.8971,2.9334,2.9421,2.9914,3.0219,3.0233,3.0377,3.0372,3.01,3.0115,2.9948,2.9749,2.9563,2.8953,2.7706,2.7521,2.7769,2.8195,2.8599,2.8728,2.8586,2.8949,2.934,2.9524,2.9602,2.9602,2.9602,2.9602,2.9602,2.954,2.9371,2.9277,2.9214,2.8976,2.8755,2.8771,2.8741,2.8645,2.8436,2.8228,2.795,2.7451,2.7149,2.7136,2.7086,2.6812,2.6761,2.6981,2.693,2.671,2.6765,2.6837,2.6858,2.688,2.6913,2.6988,4.2458,4.1764,4.1743,4.1332,4.0623,4.0446,4.0365,4.0316,4.0108,3.9973,3.9757,3.9225,3.8892,3.8639,3.7912,3.752,3.7487,3.7238,3.6605,3.5744,3.5379,3.5181,3.4961,3.4911,3.4911,3.4911,3.4911,3.4911,3.4911,3.4894,3.4651,3.4281,3.4215,3.4016,3.3503,3.3226,3.3105,3.3088,3.2823,3.2685,3.2674,3.2685,3.2348,3.1666,3.1075,3.0436,2.9674,2.8315,2.7543,2.7516,2.7517,2.7694,2.8057,2.81,2.826,2.8608,2.8898,2.9029,2.9102,2.961,2.9972,3.006,3.035,3.0598,3.0598,3.0612,3.0612,3.0612,3.0568,3.0582,3.0462,3.0357,2.9686,2.8645,2.8532,2.8615,2.9014,2.9373,2.942,2.9154,2.9308,2.9556,2.9602,2.9602,2.9602,2.9602,2.9602,2.9602,2.9602,2.9587,2.9602,2.9602,2.9462,2.9369,2.9509,2.9479,2.9416,2.9166,2.8869,2.8503,2.8065,2.7904,2.7855,2.7986,2.7822,2.7851,2.8016,2.7703,2.7488,2.7716,2.7939,2.7922,2.7937,2.8257,2.8373,4.2624,4.2236,4.2205,4.1888,4.141,4.1019,4.0849,4.0754,4.0316,4.0087,3.9948,3.971,3.951,3.9301,3.8605,3.8274,3.8149,3.7685,3.7321,3.697,3.6489,3.5909,3.5346,3.5292,3.5309,3.5226,3.5209,3.5098,3.5098,3.5093,3.4944,3.4816,3.4795,3.4878,3.4596,3.4165,3.3851,3.3773,3.3238,3.2972,3.2956,3.2923,3.2617,3.1975,3.1434,3.0871,3.0181,2.9412,2.8864,2.8708,2.852,2.8564,2.8724,2.8738,2.8782,2.8971,2.9392,2.9595,2.9784,3.0147,3.0525,3.051,3.0524,3.0612,3.0612,3.0612,3.0612,3.0612,3.0612,3.0538,3.0387,3.0357,3.0175,3.0142,2.9835,2.979,2.9777,2.9762,2.9638,2.9573,2.9587,2.9602,2.9602,2.9602,2.9602,2.9602,2.9602,2.9602,2.9602,2.9602,2.9602,2.9602,2.9602,2.9602,2.9602,2.9587,2.9524,2.9416,2.9198,2.8885,2.8615,2.8535,2.8583,2.8712,2.8704,2.8801,2.8812,2.8482,2.8477,2.8732,2.8859,2.8893,2.92,2.9632,2.9884,4.2634,4.2198,4.2216,4.192,4.1514,4.1366,4.1321,4.1309,4.1151,4.0784,4.0473,4.0356,3.999,3.952,3.9275,3.9096,3.8914,3.8755,3.8377,3.7934,3.7735,3.7205,3.6642,3.6506,3.6489,3.6456,3.6357,3.6241,3.576,3.5711,3.5462,3.4928,3.4994,3.4944,3.4845,3.4684,3.4618,3.4601,3.4447,3.4281,3.4265,3.4265,3.3995,3.336,3.2707,3.2049,3.1375,3.0671,2.974,2.8781,2.8694,2.8927,2.9305,2.9377,2.9552,2.9958,3.0176,3.0321,3.035,3.0496,3.0598,3.0612,3.0612,3.0612,3.0612,3.0612,3.0612,3.0612,3.0612,3.0612,3.0537,3.0507,3.0477,3.0432,3.0279,3.0051,2.9869,2.9793,2.9745,2.962,2.9602,2.9602,2.9602,2.9602,2.9602,2.9602,2.9602,2.9602,2.9602,2.9602,2.9602,2.9602,2.9602,2.9602,2.9602,2.9602,2.9571,2.954,2.9369,2.9182,2.901,2.8949,2.9137,2.9355,2.9068,2.9061,2.927,2.924,2.9493,2.9818,3.0233,3.0491,3.0873,3.1256,3.1474,4.2731,4.2488,4.2488,4.2358,4.2059,4.1888,4.1803,4.176,4.1587,4.1326,4.099,4.0684,4.0363,3.9948,3.9687,3.9528,3.9392,3.9379,3.9106,3.8755,3.8642,3.8046,3.7317,3.7102,3.7119,3.7119,3.7135,3.687,3.6522,3.6473,3.6208,3.5876,3.5512,3.5391,3.5391,3.5044,3.4928,3.4894,3.4911,3.4911,3.4911,3.4911,3.4554,3.3996,3.3371,3.265,3.1666,3.1131,3.0456,2.9769,2.9566,2.9668,2.9958,3.0031,3.019,3.0598,3.0612,3.0598,3.0612,3.0612,3.0612,3.0612,3.0612,3.0612,3.0612,3.0612,3.0626,3.0959,3.0975,3.0989,3.0931,3.0757,3.0627,3.0567,3.0431,3.0234,3.0038,3.0038,2.99,2.9759,2.9682,2.9665,2.9618,2.9602,2.9602,2.9602,2.9602,2.9602,2.9602,2.9602,2.9602,2.9602,2.9617,2.9631,2.9631,2.9645,2.9687,2.9655,2.9791,2.9563,2.9489,2.9458,2.9638,2.9771,2.9483,2.9449,2.9859,3.0281,3.0726,3.1118,3.1648,3.1963,3.2202,3.2244,3.2536,4.291,4.291,4.291,4.291,4.2806,4.2466,4.2259,4.2198,4.1909,4.1656,4.147,4.1007,4.0809,4.0636,4.0095,3.9725,3.9586,3.9524,3.9405,3.9242,3.9133,3.8589,3.7698,3.7599,3.7582,3.7549,3.7384,3.7321,3.7238,3.7218,3.7139,3.6808,3.634,3.6158,3.6042,3.5557,3.5181,3.528,3.5197,3.5263,3.5309,3.5251,3.4947,3.4554,3.3631,3.2789,3.1847,3.1279,3.0955,3.0822,3.0702,3.051,3.0554,3.0583,3.0583,3.0598,3.0612,3.0627,3.0728,3.0786,3.0815,3.0917,3.0931,3.0801,3.0946,3.1018,3.1192,3.1568,3.1597,3.1612,3.1554,3.1134,3.1004,3.1018,3.0901,3.0754,3.0545,3.0398,3.0175,2.99,2.9838,2.9761,2.9682,2.9634,2.9634,2.9666,2.9649,2.9602,2.9602,2.9602,2.9602,2.9602,2.9631,2.966,2.9674,2.9688,2.9743,2.9797,3.0134,3.0155,3.0083,3.0097,3.0185,3.0221,3.0241,3.0508,3.093,3.1379,3.1761,3.2013,3.2227,3.2648,3.3027,3.2901,3.3041,4.291,4.291,4.291,4.291,4.29,4.2806,4.2731,4.2711,4.2616,4.234,4.2067,4.1888,4.1558,4.1122,4.0636,4.0277,3.9969,3.9674,3.9418,3.9329,3.9315,3.9199,3.8788,3.8705,3.8755,3.8722,3.8788,3.851,3.8099,3.7901,3.7669,3.7185,3.7069,3.687,3.6791,3.6622,3.6622,3.6539,3.6075,3.6042,3.6278,3.5997,3.5728,3.5503,3.4302,3.3408,3.2848,3.1881,3.1278,3.1117,3.091,3.0772,3.0656,3.0656,3.0685,3.0699,3.0699,3.0844,3.1192,3.1321,3.1525,3.1917,3.1917,3.2076,3.209,3.2003,3.2106,3.2279,3.2279,3.2293,3.225,3.2193,3.1975,3.1917,3.1961,3.1974,3.1824,3.0993,3.038,3.0183,3.0107,3.0034,3.0001,2.9892,2.9847,2.9773,2.9697,2.9618,2.9632,2.9677,2.9821,2.9939,3.0106,3.0236,3.0395,3.0379,3.0332,3.0356,3.0594,3.0883,3.0811,3.0769,3.0865,3.105,3.1216,3.153,3.1794,3.2019,3.2294,3.255,3.2746,3.3013,3.3224,3.3294,3.3294,4.291,4.291,4.291,4.291,4.291,4.291,4.291,4.291,4.291,4.2777,4.2526,4.2328,4.2022,4.1706,4.1224,4.0774,4.0228,3.9674,3.9365,3.9299,3.9315,3.9315,3.9315,3.9315,3.9315,3.9315,3.9282,3.9037,3.8805,3.8672,3.854,3.8112,3.7798,3.7619,3.752,3.7321,3.7069,3.699,3.6742,3.6725,3.694,3.6729,3.6337,3.6192,3.5222,3.4553,3.3756,3.3148,3.2526,3.2123,3.179,3.13,3.0877,3.0979,3.1094,3.1062,3.138,3.1569,3.1902,3.1989,3.2105,3.2482,3.2511,3.2497,3.2497,3.2497,3.2685,3.2875,3.2979,3.2948,3.2933,3.26,3.2555,3.2497,3.2526,3.2511,3.2336,3.1534,3.0977,3.0969,3.0922,3.0732,3.0554,3.0463,3.0203,3.0186,3.0029,2.9965,3.0066,3.0154,3.0395,3.0567,3.0763,3.0947,3.1166,3.1206,3.1083,3.112,3.1227,3.1526,3.1698,3.1626,3.1567,3.1752,3.1921,3.2202,3.2469,3.2662,3.276,3.2929,3.3097,3.3238,3.3294,3.3294,3.3294,4.291,4.291,4.291,4.291,4.291,4.291,4.291,4.291,4.291,4.2891,4.2835,4.2458,4.2348,4.2198,4.1782,4.1151,4.0363,3.9795,3.9481,3.9312,3.9315,3.9315,3.9315,3.9315,3.9315,3.9315,3.9315,3.9249,3.9249,3.9299,3.9116,3.9103,3.8692,3.8381,3.8228,3.7847,3.7632,3.7649,3.7417,3.7417,3.7516,3.7404,3.709,3.6993,3.64,3.5831,3.5026,3.4454,3.3982,3.3286,3.3114,3.2368,3.1642,3.1521,3.184,3.167,3.209,3.2395,3.2585,3.2672,3.2716,3.2729,3.283,3.2845,3.2888,3.2975,3.3193,3.3458,3.3632,3.3618,3.359,3.3296,3.2946,3.2874,3.2845,3.2801,3.2671,3.2221,3.2085,3.202,3.1756,3.1478,3.1386,3.1293,3.0918,3.0585,3.0456,3.0412,3.0542,3.0712,3.1024,3.1149,3.1315,3.14,3.1589,3.2356,3.2202,3.1947,3.1995,3.2249,3.2546,3.2597,3.2571,3.2458,3.2606,3.282,3.2915,3.3013,3.314,3.3294,3.3294,3.3294,3.3294,3.3294,3.3294,4.291,4.291,4.291,4.291,4.291,4.291,4.291,4.291,4.291,4.291,4.29,4.2816,4.2758,4.2634,4.2213,4.1361,4.0509,3.9982,3.9657,3.9402,3.9325,3.9315,3.9315,3.9315,3.9315,3.9315,3.9315,3.9315,3.9315,3.9315,3.9315,3.9265,3.9136,3.9053,3.9004,3.8937,3.8722,3.8573,3.8278,3.8261,3.8506,3.8282,3.8206,3.8302,3.766,3.7039,3.6557,3.5712,3.4873,3.4265,3.4162,3.3593,3.2908,3.2592,3.2445,3.2396,3.2571,3.2935,3.324,3.3327,3.3601,3.3935,3.3962,3.3976,3.3991,3.3974,3.3947,3.4049,3.4182,3.4225,3.424,3.3962,3.4049,3.4034,3.3947,3.3933,3.3846,3.347,3.2919,3.2753,3.2476,3.2273,3.2193,3.2101,3.1838,3.156,3.1428,3.1382,3.1452,3.1623,3.1818,3.1858,3.1854,3.1882,3.1941,3.2987,3.3449,3.297,3.2929,3.3132,3.338,3.3576,3.3553,3.3173,3.3051,3.3146,3.3241,3.3308,3.3294,3.3294,3.3294,3.3294,3.3294,3.3294,3.3294,4.291,4.291,4.291,4.291,4.291,4.291,4.291,4.291,4.291,4.291,4.291,4.291,4.291,4.2824,4.2611,4.1881,4.1047,4.0211,3.9906,3.9657,3.9441,3.9315,3.9315,3.9315,3.9315,3.9315,3.9315,3.9315,3.9315,3.9315,3.9315,3.9299,3.9315,3.9315,3.9299,3.9249,3.9315,3.9186,3.897,3.8921,3.9265,3.8874,3.9037,3.8957,3.873,3.8213,3.7739,3.7348,3.6618,3.6041,3.5566,3.511,3.4583,3.403,3.3505,3.3205,3.3363,3.3654,3.3908,3.3964,3.4109,3.4295,3.4397,3.4397,3.4397,3.4353,3.4397,3.4397,3.4397,3.4397,3.4368,3.4397,3.4397,3.4397,3.4397,3.4397,3.4324,3.4109,3.3744,3.3352,3.3164,3.3017,3.299,3.2869,3.2706,3.2542,3.2392,3.2358,3.2369,3.2511,3.2682,3.2756,3.2783,3.2912,3.2883,3.3451,3.4104,3.3769,3.3599,3.3802,3.3865,3.3885,3.3747,3.3482,3.3466,3.3466,3.3326,3.3294,3.3294,3.3294,3.3294,3.3294,3.3294,3.3294,3.3294,4.291,4.291,4.291,4.291,4.291,4.291,4.291,4.291,4.291,4.291,4.291,4.291,4.2882,4.2843,4.2697,4.231,4.1622,4.0648,4.0272,3.9919,3.9657,3.9441,3.9329,3.9315,3.9315,3.9315,3.9315,3.9315,3.9315,3.9315,3.9315,3.9315,3.9315,3.9315,3.9315,3.9315,3.9315,3.9315,3.9315,3.9315,3.9315,3.9315,3.9315,3.9315,3.9315,3.9004,3.8534,3.8402,3.8004,3.7459,3.6946,3.6461,3.6149,3.5544,3.4818,3.4231,3.4499,3.4555,3.4501,3.4353,3.4324,3.4397,3.4397,3.4397,3.4397,3.4397,3.4397,3.4397,3.4397,3.4397,3.4397,3.4397,3.4397,3.4397,3.4397,3.4397,3.4397,3.431,3.4295,3.402,3.3848,3.3717,3.3616,3.3645,3.3479,3.3436,3.3254,3.3225,3.3266,3.343,3.3574,3.3694,3.381,3.4011,3.404,3.3905,3.4266,3.4109,3.3986,3.4065,3.404,3.4003,3.383,3.3692,3.3744,3.3695,3.3504,3.3294,3.3294,3.3294,3.3294,3.3294,3.3294,3.3294,3.3294,4.291,4.291,4.291,4.291,4.291,4.291,4.291,4.291,4.291,4.291,4.291,4.291,4.2862,4.2793,4.2635,4.2166,4.1655,4.1304,4.0791,4.0248,3.994,3.967,3.9379,3.9315,3.9315,3.9315,3.9315,3.9315,3.9315,3.9315,3.9315,3.9315,3.9315,3.9315,3.9315,3.9315,3.9315,3.9315,3.9315,3.9315,3.9315,3.9315,3.9315,3.9315,3.9285,3.9258,3.908,3.9023,3.8772,3.8264,3.8094,3.7398,3.6477,3.6243,3.6023,3.555,3.5123,3.4698,3.4733,3.4549,3.4431,3.4431,3.4414,3.4397,3.4397,3.4397,3.4397,3.4397,3.4397,3.4397,3.4397,3.4397,3.4397,3.4397,3.4397,3.4397,3.4397,3.4397,3.4397,3.4382,3.4124,3.4182,3.4165,3.424,3.4283,3.4225,3.415,3.4063,3.402,3.4063,3.4109,3.4138,3.4153,3.4324,3.4397,3.4397,3.438,3.4329,3.4295,3.4264,3.421,3.4108,3.3988,3.3902,3.3922,3.3851,3.3574,3.3413,3.3329,3.3378,3.3448,3.3396,3.3294,3.3294,3.3378,4.291,4.291,4.291,4.291,4.291,4.291,4.291,4.291,4.291,4.291,4.291,4.291,4.2842,4.2706,4.2588,4.2348,4.1941,4.1655,4.1316,4.0714,4.0309,3.9919,3.9696,3.9441,3.9315,3.9315,3.9315,3.9315,3.9315,3.9315,3.9315,3.9315,3.9315,3.9315,3.9315,3.9315,3.9315,3.9315,3.9315,3.9315,3.9315,3.9315,3.9315,3.9315,3.9315,3.9315,3.9315,3.9302,3.9188,3.8786,3.8576,3.808,3.7457,3.7145,3.6875,3.6738,3.6337,3.5897,3.5431,3.4903,3.4683,3.4532,3.4481,3.4397,3.4397,3.4397,3.4397,3.4397,3.4397,3.4397,3.4397,3.4397,3.4397,3.4397,3.4397,3.4397,3.4397,3.4397,3.4397,3.4397,3.4397,3.4397,3.4397,3.4382,3.4353,3.4324,3.4281,3.4252,3.4237,3.4266,3.4295,3.4324,3.4339,3.4382,3.4397,3.4397,3.4397,3.4363,3.4363,3.4346,3.4329,3.4244,3.4125,3.4042,3.4042,3.3902,3.3657,3.3623,3.3623,3.3623,3.3654,3.3588,3.3553,3.3623,3.3626,4.291,4.291,4.291,4.291,4.291,4.291,4.291,4.291,4.291,4.291,4.29,4.2881,4.2776,4.2668,4.2609,4.248,4.2297,4.1927,4.1655,4.1271,4.0774,4.0302,3.9969,3.9631,3.9441,3.9315,3.9315,3.9315,3.9315,3.9315,3.9315,3.9315,3.9315,3.9315,3.9315,3.9315,3.9315,3.9315,3.9315,3.9315,3.9315,3.9315,3.9315,3.9315,3.9315,3.9315,3.9315,3.9315,3.9285,3.9161,3.8871,3.8493,3.8123,3.7793,3.7618,3.7472,3.719,3.6935,3.6368,3.5801,3.5151,3.4885,3.4616,3.4481,3.4397,3.4397,3.4397,3.4397,3.4397,3.4397,3.4397,3.4397,3.4397,3.4397,3.4397,3.4397,3.4397,3.4397,3.4397,3.4397,3.4397,3.4397,3.4397,3.4397,3.4397,3.4397,3.4397,3.4397,3.4397,3.4397,3.4397,3.4397,3.4397,3.4397,3.4397,3.4397,3.4397,3.4397,3.4397,3.4397,3.4363,3.4329,3.4244,3.4196,3.4145,3.4059,3.3902,3.3917,3.3914,3.3827,3.3793,3.3845,3.3848,3.3914,3.3799,4.291,4.291,4.291,4.291,4.291,4.291,4.291,4.291,4.291,4.291,4.29,4.2842,4.2812,4.2754,4.2667,4.2568,4.2483,4.2453,4.2061,4.1677,4.1332,4.0809,4.0358,3.999,3.9705,3.9402,3.9325,3.9315,3.9315,3.9315,3.9315,3.9315,3.9315,3.9315,3.9315,3.9315,3.9315,3.9315,3.9315,3.9315,3.9315,3.9315,3.9315,3.9315,3.9315,3.9315,3.9315,3.9315,3.9315,3.9315,3.9161,3.8898,3.8535,3.8337,3.8252,3.8167,3.7865,3.7765,3.7575,3.6676,3.5944,3.5608,3.5267,3.4802,3.4601,3.4481,3.4431,3.4414,3.4397,3.4397,3.4397,3.4397,3.4397,3.4397,3.4397,3.4397,3.4397,3.4397,3.4397,3.4397,3.4397,3.4397,3.4397,3.4397,3.4397,3.4397,3.4397,3.4397,3.4397,3.4397,3.4397,3.4397,3.4397,3.4397,3.4397,3.4397,3.4397,3.4397,3.4397,3.4397,3.438,3.4363,3.4329,3.4295,3.423,3.4179,3.4145,3.4108,3.4037,3.3934,3.3917,3.402,3.4031,3.4057,3.383,4.291,4.291,4.291,4.291,4.291,4.291,4.291,4.291,4.291,4.291,4.291,4.2872,4.2833,4.2793,4.2754,4.2627,4.2514,4.2521,4.2246,4.1952,4.1604,4.1264,4.0803,4.0322,3.9893,3.9709,3.9507,3.9315,3.9315,3.9329,3.9315,3.9315,3.9315,3.9315,3.9315,3.9315,3.9315,3.9315,3.9315,3.9315,3.9315,3.9315,3.9315,3.9315,3.9315,3.9315,3.9315,3.9315,3.9315,3.9315,3.9315,3.9107,3.8928,3.8871,3.8857,3.8857,3.8551,3.862,3.8537,3.7545,3.66,3.6322,3.5993,3.561,3.5121,3.5023,3.4754,3.4585,3.4448,3.4501,3.4397,3.4397,3.4397,3.4397,3.4397,3.4397,3.4397,3.4397,3.4397,3.4397,3.4397,3.4397,3.4397,3.4397,3.4397,3.4397,3.4397,3.4397,3.4397,3.4397,3.4397,3.4397,3.4397,3.4397,3.4397,3.4397,3.4397,3.4397,3.4397,3.4397,3.4397,3.4397,3.4363,3.4329,3.4329,3.4295,3.4278,3.4244,3.4208,3.414,3.4159,3.4227,3.422,3.4206,3.3962,4.291,4.291,4.291,4.291,4.291,4.291,4.291,4.291,4.291,4.291,4.291,4.291,4.2872,4.2833,4.2793,4.2696,4.2556,4.2503,4.2415,4.2205,4.1931,4.1666,4.1304,4.0897,4.0485,4.019,3.9769,3.953,3.9556,3.9392,3.9329,3.9315,3.9315,3.9315,3.9315,3.9315,3.9315,3.9315,3.9315,3.9315,3.9315,3.9315,3.9315,3.9315,3.9315,3.9315,3.9315,3.9315,3.9315,3.9315,3.9315,3.9315,3.9302,3.9315,3.9315,3.9315,3.9315,3.9315,3.8985,3.8282,3.7265,3.6798,3.6707,3.6337,3.6009,3.5787,3.5579,3.4924,3.4806,3.4687,3.4534,3.4397,3.4397,3.4397,3.4397,3.4397,3.4397,3.4397,3.4397,3.4397,3.4397,3.4397,3.4397,3.4397,3.4397,3.4397,3.4397,3.4397,3.4397,3.4397,3.4397,3.4397,3.4397,3.4397,3.4397,3.4397,3.4397,3.4397,3.4397,3.4397,3.4397,3.4397,3.4397,3.438,3.4363,3.4397,3.4363,3.4312,3.4346,3.4363,3.4363,3.4346,3.4329,3.4285,3.4183,4.291,4.291,4.291,4.291,4.291,4.291,4.291,4.291,4.291,4.291,4.291,4.291,4.291,4.2881,4.2851,4.2735,4.2589,4.2526,4.2435,4.2277,4.2176,4.1938,4.1672,4.1338,4.1001,4.0719,4.022,3.9855,3.9919,3.9478,3.9339,3.9315,3.9315,3.9315,3.9315,3.9315,3.9315,3.9315,3.9315,3.9315,3.9315,3.9315,3.9315,3.9315,3.9315,3.9315,3.9315,3.9315,3.9315,3.9315,3.9315,3.9315,3.9315,3.9315,3.9315,3.9315,3.9315,3.9315,3.9232,3.8604,3.7994,3.7428,3.7428,3.713,3.6858,3.666,3.6369,3.5643,3.5433,3.5105,3.4771,3.4414,3.4414,3.4397,3.4397,3.4397,3.4397,3.4397,3.4397,3.4397,3.4397,3.4397,3.4397,3.4397,3.4397,3.4397,3.4397,3.4397,3.4397,3.4397,3.4397,3.4397,3.4397,3.4397,3.4397,3.4397,3.4397,3.4397,3.4397,3.4397,3.4397,3.4397,3.4397,3.4397,3.4397,3.4397,3.4397,3.438,3.4397,3.4397,3.4397,3.438,3.4397,3.4361,3.4254,4.291,4.291,4.291,4.291,4.291,4.291,4.291,4.291,4.291,4.291,4.291,4.291,4.291,4.29,4.2862,4.2775,4.2619,4.2562,4.248,4.2318,4.2308,4.2236,4.198,4.1677,4.1439,4.1059,4.0528,4.0078,3.9995,3.9631,3.9379,3.9315,3.9325,3.9315,3.9315,3.9315,3.9315,3.9315,3.9315,3.9315,3.9315,3.9315,3.9315,3.9315,3.9315,3.9315,3.9315,3.9315,3.9315,3.9315,3.9315,3.9315,3.9315,3.9315,3.9315,3.9315,3.9315,3.9315,3.9285,3.901,3.8832,3.8453,3.824,3.798,3.7587,3.7382,3.695,3.6384,3.5946,3.5531,3.5137,3.462,3.4484,3.4414,3.4397,3.4397,3.4397,3.4397,3.4397,3.4397,3.4397,3.4397,3.4397,3.4397,3.4397,3.4397,3.4397,3.4397,3.4397,3.4397,3.4397,3.4397,3.4397,3.4397,3.4397,3.4397,3.4397,3.4397,3.4397,3.4397,3.4397,3.4397,3.4397,3.4397,3.4397,3.4397,3.4397,3.4397,3.4397,3.4397,3.4397,3.4397,3.4397,3.4358,3.43,4.291,4.291,4.291,4.291,4.291,4.291,4.291,4.291,4.291,4.291,4.291,4.291,4.291,4.2882,4.2862,4.2833,4.2668,4.2609,4.258,4.2417,4.2377,4.2356,4.2215,4.1991,4.1856,4.1516,4.1036,4.0565,4.0601,4.01,3.9786,3.9609,3.9375,3.9312,3.9315,3.9315,3.9315,3.9315,3.9315,3.9315,3.9315,3.9315,3.9315,3.9315,3.9315,3.9315,3.9315,3.9315,3.9315,3.9315,3.9315,3.9315,3.9315,3.9315,3.9315,3.9315,3.9315,3.9315,3.9285,3.9285,3.9107,3.901,3.9121,3.8857,3.8423,3.8294,3.7806,3.7233,3.6538,3.6135,3.5787,3.5253,3.5072,3.5039,3.5021,3.5054,3.5006,3.5055,3.4787,3.4737,3.4431,3.4431,3.4397,3.4397,3.4397,3.4397,3.4397,3.4397,3.4397,3.4397,3.4397,3.4397,3.4397,3.4397,3.4397,3.4397,3.4397,3.4397,3.4397,3.4397,3.4397,3.4397,3.4397,3.4397,3.4397,3.4397,3.4397,3.4397,3.4397,3.4397,3.4397,3.4397,3.4397,3.4358,3.4334,4.291,4.291,4.291,4.291,4.291,4.291,4.291,4.291,4.291,4.291,4.291,4.291,4.291,4.2891,4.2833,4.2803,4.2774,4.2658,4.2609,4.256,4.2498,4.2496,4.2437,4.2308,4.2187,4.2072,4.1666,4.1151,4.1372,4.0773,4.0343,3.9969,3.9579,3.9428,3.9352,3.9315,3.9315,3.9315,3.9315,3.9315,3.9315,3.9315,3.9315,3.9315,3.9315,3.9315,3.9315,3.9315,3.9315,3.9315,3.9315,3.9315,3.9315,3.9315,3.9315,3.9315,3.9315,3.9315,3.9315,3.9315,3.9315,3.9245,3.9272,3.9275,3.9178,3.8942,3.8521,3.8123,3.7587,3.7159,3.6722,3.6477,3.6229,3.6197,3.615,3.6103,3.6056,3.585,3.5465,3.5137,3.4637,3.4481,3.4414,3.4397,3.4397,3.4397,3.4397,3.4397,3.4397,3.4397,3.4397,3.4397,3.4397,3.4397,3.4397,3.4397,3.4397,3.4397,3.4397,3.4397,3.4397,3.4397,3.4397,3.4397,3.4397,3.4397,3.4397,3.4397,3.4397,3.4397,3.4397,3.4397,3.4397,3.4397,3.4375,4.291,4.291,4.291,4.291,4.291,4.291,4.291,4.291,4.291,4.291,4.291,4.291,4.291,4.291,4.2881,4.2842,4.2785,4.2736,4.2668,4.2619,4.2589,4.2588,4.2538,4.2478,4.2445,4.2225,4.1906,4.1578,4.1423,4.1059,4.0575,4.0032,3.9842,3.9631,3.9428,3.9315,3.9315,3.9315,3.9315,3.9315,3.9315,3.9315,3.9315,3.9315,3.9315,3.9315,3.9315,3.9315,3.9315,3.9315,3.9315,3.9315,3.9315,3.9315,3.9315,3.9315,3.9315,3.9315,3.9315,3.9315,3.9315,3.9315,3.9315,3.9315,3.9258,3.9161,3.8983,3.8659,3.8306,3.7791,3.7427,3.7174,3.695,3.6814,3.6784,3.6738,3.6661,3.6446,3.604,3.5302,3.482,3.4465,3.4397,3.4397,3.4397,3.4397,3.4397,3.4397,3.4397,3.4397,3.4397,3.4397,3.4397,3.4397,3.4397,3.4397,3.4397,3.4397,3.4397,3.4397,3.4397,3.4397,3.4397,3.4397,3.4397,3.4397,3.4397,3.4397,3.4397,3.4397,3.4397,3.4397,3.4397,3.4397,3.4397,4.291,4.291,4.291,4.291,4.291,4.291,4.291,4.291,4.291,4.291,4.291,4.291,4.291,4.291,4.291,4.2881,4.2852,4.2824,4.2786,4.2747,4.2688,4.2696,4.2657,4.2606,4.2556,4.2366,4.2194,4.197,4.1727,4.1356,4.0879,4.0648,4.0322,3.9864,3.9614,3.9425,3.9315,3.9315,3.9315,3.9315,3.9315,3.9315,3.9315,3.9315,3.9315,3.9315,3.9315,3.9315,3.9315,3.9315,3.9315,3.9315,3.9315,3.9315,3.9315,3.9315,3.9315,3.9315,3.9315,3.9315,3.9315,3.9315,3.9315,3.9315,3.9272,3.9202,3.9148,3.901,3.8662,3.8308,3.8009,3.7735,3.7502,3.7266,3.7252,3.7236,3.7101,3.6966,3.6322,3.5513,3.4971,3.4551,3.4397,3.4397,3.4397,3.4397,3.4397,3.4397,3.4397,3.4397,3.4397,3.4397,3.4397,3.4397,3.4397,3.4397,3.4397,3.4397,3.4397,3.4397,3.4397,3.4397,3.4397,3.4397,3.4397,3.4397,3.4397,3.4397,3.4397,3.4397,3.4397,3.4397,3.4397,3.4397,3.4397,4.291,4.291,4.291,4.291,4.291,4.291,4.291,4.291,4.291,4.291,4.291,4.291,4.291,4.291,4.291,4.291,4.2891,4.2881,4.2881,4.2882,4.2823,4.2803,4.2764,4.2686,4.2627,4.2588,4.2478,4.2256,4.2253,4.1885,4.1523,4.145,4.0696,4.0161,3.9864,3.9618,3.9441,3.9315,3.9315,3.9315,3.9315,3.9315,3.9315,3.9315,3.9315,3.9315,3.9315,3.9315,3.9315,3.9315,3.9315,3.9315,3.9315,3.9315,3.9315,3.9315,3.9315,3.9315,3.9315,3.9315,3.9315,3.9315,3.9315,3.9315,3.9285,3.9272,3.9245,3.9245,3.8928,3.8761,3.8523,3.8395,3.8228,3.8028,3.7972,3.7943,3.7857,3.7475,3.6692,3.5913,3.5219,3.4804,3.4397,3.4397,3.4397,3.4397,3.4397,3.4397,3.4414,3.4414,3.4397,3.4397,3.4397,3.4397,3.4397,3.4397,3.4397,3.4397,3.4397,3.4397,3.4397,3.4397,3.4397,3.4397,3.4397,3.4397,3.4397,3.4397,3.4397,3.4397,3.4397,3.4397,3.4397,3.4397,3.4397,4.291,4.291,4.291,4.291,4.291,4.291,4.291,4.291,4.291,4.291,4.291,4.291,4.291,4.291,4.291,4.291,4.291,4.291,4.291,4.291,4.289,4.2871,4.2871,4.2775,4.2688,4.2607,4.2536,4.2445,4.2325,4.2114,4.1867,4.1545,4.1001,4.0667,4.0091,3.9821,3.9582,3.9325,3.9315,3.9315,3.9315,3.9315,3.9315,3.9315,3.9315,3.9315,3.9315,3.9315,3.9315,3.9315,3.9315,3.9315,3.9315,3.9315,3.9315,3.9315,3.9315,3.9315,3.9315,3.9315,3.9315,3.9315,3.9315,3.9315,3.9315,3.9315,3.9315,3.9315,3.9258,3.9121,3.9026,3.8972,3.889,3.8738,3.8616,3.8588,3.8548,3.7828,3.7057,3.6368,3.5609,3.5088,3.467,3.4484,3.4397,3.4397,3.4397,3.4414,3.4448,3.445,3.4397,3.4397,3.4397,3.4397,3.4397,3.4397,3.4397,3.4397,3.4397,3.4397,3.4397,3.4397,3.4397,3.4397,3.4397,3.4397,3.4397,3.4397,3.4397,3.4397,3.4397,3.4397,3.4397,3.4397,3.4397,4.291,4.291,4.291,4.291,4.291,4.291,4.291,4.291,4.291,4.291,4.291,4.291,4.291,4.291,4.291,4.291,4.291,4.291,4.291,4.291,4.291,4.291,4.2881,4.2861,4.2785,4.2686,4.2546,4.2435,4.2318,4.2259,4.2065,4.1781,4.1505,4.0955,4.0302,4.0024,3.9657,3.9312,3.9352,3.9339,3.9339,3.9329,3.9315,3.9315,3.9315,3.9315,3.9315,3.9315,3.9315,3.9315,3.9315,3.9315,3.9315,3.9315,3.9315,3.9315,3.9315,3.9315,3.9315,3.9315,3.9315,3.9315,3.9315,3.9315,3.9315,3.9315,3.9315,3.9315,3.9315,3.9205,3.9053,3.8969,3.8901,3.8794,3.8738,3.8697,3.8472,3.7955,3.7473,3.7086,3.6415,3.5866,3.5577,3.553,3.5464,3.5351,3.5219,3.4872,3.482,3.4737,3.4618,3.4551,3.4654,3.4501,3.4397,3.4397,3.4397,3.4397,3.4467,3.4414,3.4399,3.4397,3.4397,3.4397,3.4397,3.4397,3.4397,3.4397,3.4397,3.4397,3.4397,3.4397,3.4397,3.4397,3.4397,4.291,4.291,4.291,4.291,4.291,4.291,4.291,4.291,4.291,4.291,4.291,4.291,4.291,4.291,4.291,4.291,4.291,4.291,4.291,4.291,4.291,4.291,4.291,4.29,4.2833,4.2745,4.2606,4.2475,4.2356,4.2328,4.2277,4.2114,4.1607,4.0966,4.0635,4.02,3.9773,3.9738,3.97,3.953,3.9441,3.9325,3.9329,3.9315,3.9315,3.9315,3.9315,3.9315,3.9315,3.9315,3.9315,3.9315,3.9315,3.9315,3.9315,3.9315,3.9315,3.9315,3.9315,3.9315,3.9315,3.9315,3.9315,3.9315,3.9315,3.9315,3.9315,3.9315,3.9315,3.9258,3.9121,3.904,3.8972,3.8903,3.8876,3.8805,3.8467,3.8155,3.7895,3.7633,3.713,3.6569,3.6384,3.6384,3.6337,3.6275,3.6103,3.577,3.5497,3.5383,3.527,3.5219,3.5236,3.4988,3.4654,3.4787,3.4922,3.4721,3.4804,3.457,3.4416,3.4414,3.4397,3.4397,3.4397,3.4397,3.4397,3.4397,3.4397,3.4397,3.4397,3.4397,3.4397,3.4397,3.4397,4.291,4.291,4.291,4.291,4.291,4.291,4.291,4.291,4.291,4.291,4.291,4.291,4.291,4.291,4.291,4.291,4.291,4.291,4.291,4.291,4.291,4.291,4.29,4.2891,4.2861,4.2774,4.2665,4.2566,4.2458,4.2455,4.2405,4.2267,4.2207,4.1738,4.1327,4.0914,4.063,4.0441,4.0274,4.0183,3.9727,3.9566,3.9325,3.9315,3.9315,3.9315,3.9315,3.9315,3.9315,3.9315,3.9315,3.9315,3.9315,3.9315,3.9315,3.9315,3.9315,3.9315,3.9315,3.9315,3.9315,3.9315,3.9315,3.9315,3.9315,3.9315,3.9315,3.9315,3.9315,3.9315,3.9218,3.9218,3.9164,3.9137,3.908,3.8942,3.872,3.8497,3.8272,3.7911,3.7518,3.7026,3.6631,3.6631,3.6646,3.6569,3.6508,3.6228,3.6181,3.6056,3.5913,3.5866,3.5818,3.561,3.5367,3.5658,3.5754,3.5448,3.5072,3.4806,3.4587,3.4414,3.4397,3.4397,3.4397,3.4397,3.4397,3.4397,3.4397,3.4397,3.4397,3.4397,3.4397,3.4397,3.4397]}]]